[[{"header":{"parameterUnit":"m.s-1","parameterCategory":1,"la1":30.6,"la2":29.2853,"lo1":-89.7004,"lo2":-87.6739,"dx":0.0162,"dy":0.0183,"nx":112,"ny":82,"refTime":"2022-12-19T06:00:00:Z","depth":0,"parameterNumber":2,"parameterNumberName":"U-component_of_WINDS"},"data":[0.0,0.0,0.0,0.0,0.0,0.0,0.0,0.0,0.0,0.0,0.0,0.0,0.0,0.0,0.0,0.0,0.0,0.0,0.0,0.0,0.0,0.0,0.0,0.0,0.0,0.0,0.0,0.0,0.0,0.0,0.0,0.0,0.0,0.0,0.0,0.0,0.0,0.0,0.0,0.0,0.0,0.0,0.0,0.0,0.0,0.0,0.0,0.0,0.0,0.0,0.0,0.0,0.0,0.0,0.0,0.0,0.0,0.0,0.0,0.0,0.0,0.0,0.0,0.0,0.0,0.0,0.0,0.0,0.0,0.0,0.0,0.0,0.0,0.0,0.0,0.0,0.0,0.0,0.0,0.0,0.0,0.0,0.0,0.0,0.0,0.0,0.0,0.0,0.0,0.0,0.0,3.0928,3.1384,3.1742,3.1832,3.1014,3.0455,3.0446,0.0,0.0,0.0,0.0,0.0,0.0,0.0,0.0,0.0,0.0,0.0,0.0,0.0,0.0,0.0,0.0,0.0,0.0,0.0,0.0,0.0,0.0,0.0,0.0,0.0,0.0,0.0,0.0,0.0,0.0,0.0,0.0,0.0,0.0,0.0,0.0,0.0,0.0,0.0,0.0,0.0,0.0,0.0,0.0,0.0,0.0,0.0,0.0,0.0,0.0,0.0,0.0,0.0,0.0,0.0,0.0,0.0,0.0,0.0,0.0,0.0,0.0,0.0,0.0,0.0,0.0,0.0,0.0,0.0,0.0,0.0,0.0,0.0,0.0,0.0,0.0,0.0,0.0,0.0,0.0,0.0,0.0,0.0,0.0,0.0,0.0,0.0,0.0,0.0,0.0,0.0,0.0,0.0,0.0,0.0,0.0,0.0,0.0,0.0,0.0,0.0,0.0,0.0,0.0,3.3024,3.395,3.306,3.2653,3.3321,3.2098,3.1043,3.0364,0.0,0.0,0.0,0.0,0.0,0.0,0.0,0.0,0.0,0.0,0.0,0.0,0.0,0.0,0.0,0.0,0.0,0.0,0.0,0.0,0.0,0.0,0.0,0.0,0.0,0.0,0.0,0.0,0.0,0.0,0.0,0.0,0.0,0.0,0.0,0.0,0.0,0.0,0.0,0.0,0.0,0.0,0.0,0.0,0.0,0.0,0.0,0.0,0.0,0.0,0.0,0.0,0.0,0.0,0.0,0.0,0.0,0.0,0.0,0.0,0.0,0.0,0.0,0.0,0.0,0.0,0.0,0.0,0.0,0.0,0.0,0.0,0.0,0.0,0.0,0.0,0.0,0.0,0.0,0.0,0.0,0.0,0.0,0.0,0.0,0.0,0.0,0.0,0.0,0.0,0.0,0.0,0.0,0.0,0.0,0.0,0.0,0.0,0.0,0.0,0.0,0.0,0.0,3.3372,3.449,3.4683,3.4125,3.3743,3.3706,3.2998,3.2109,3.1014,2.9021,0.0,0.0,0.0,0.0,0.0,0.0,0.0,0.0,0.0,0.0,0.0,0.0,0.0,0.0,0.0,0.0,0.0,0.0,0.0,0.0,0.0,0.0,0.0,0.0,0.0,0.0,0.0,0.0,0.0,0.0,0.0,0.0,0.0,0.0,0.0,0.0,0.0,0.0,0.0,0.0,0.0,0.0,0.0,0.0,0.0,0.0,0.0,0.0,0.0,0.0,0.0,0.0,0.0,0.0,0.0,0.0,0.0,0.0,0.0,0.0,0.0,0.0,0.0,0.0,0.0,0.0,0.0,0.0,0.0,0.0,0.0,0.0,0.0,0.0,0.0,0.0,0.0,0.0,0.0,0.0,0.0,0.0,0.0,0.0,0.0,0.0,0.0,0.0,0.0,0.0,0.0,0.0,0.0,0.0,0.0,0.0,0.0,0.0,0.0,0.0,0.0,0.0,3.5071,3.5613,3.5247,3.5007,3.4691,3.4203,3.3727,3.3006,3.1839,3.0105,0.0,0.0,0.0,0.0,0.0,0.0,0.0,0.0,0.0,0.0,0.0,0.0,0.0,0.0,0.0,0.0,0.0,0.0,0.0,0.0,0.0,0.0,0.0,0.0,0.0,0.0,0.0,0.0,0.0,0.0,0.0,0.0,0.0,0.0,0.0,0.0,0.0,0.0,0.0,0.0,0.0,0.0,0.0,0.0,0.0,0.0,0.0,0.0,0.0,0.0,0.0,0.0,0.0,0.0,0.0,0.0,0.0,0.0,0.0,0.0,0.0,0.0,0.0,0.0,0.0,0.0,0.0,0.0,0.0,0.0,0.0,0.0,0.0,0.0,0.0,0.0,0.0,0.0,0.0,0.0,0.0,0.0,0.0,0.0,0.0,0.0,0.0,0.0,0.0,0.0,0.0,0.0,0.0,0.0,0.0,0.0,0.0,0.0,0.0,0.0,0.0,0.0,3.6784,3.6693,3.6551,3.5969,3.5601,3.545,3.4273,3.3185,3.2497,2.9892,0.0,0.0,0.0,0.0,0.0,0.0,0.0,0.0,0.0,0.0,0.0,0.0,0.0,0.0,0.0,0.0,0.0,0.0,0.0,0.0,0.0,0.0,0.0,0.0,0.0,0.0,0.0,0.0,0.0,0.0,0.0,0.0,0.0,0.0,0.0,0.0,0.0,0.0,0.0,0.0,0.0,0.0,0.0,0.0,0.0,0.0,0.0,0.0,0.0,0.0,0.0,0.0,0.0,0.0,0.0,0.0,0.0,0.0,0.0,0.0,0.0,0.0,0.0,0.0,0.0,0.0,0.0,0.0,0.0,0.0,0.0,0.0,0.0,0.0,0.0,0.0,0.0,0.0,0.0,0.0,0.0,0.0,0.0,0.0,0.0,0.0,0.0,0.0,0.0,0.0,0.0,0.0,0.0,0.0,0.0,0.0,0.0,0.0,0.0,0.0,0.0,0.0,3.6896,3.7129,0.0,3.6446,3.6247,3.6197,3.5336,3.4292,3.3185,0.0,0.0,0.0,0.0,0.0,0.0,0.0,0.0,0.0,0.0,0.0,0.0,0.0,0.0,0.0,0.0,0.0,0.0,0.0,0.0,0.0,0.0,0.0,0.0,0.0,0.0,0.0,0.0,0.0,0.0,0.0,0.0,0.0,0.0,0.0,0.0,0.0,0.0,0.0,0.0,0.0,0.0,0.0,0.0,0.0,0.0,0.0,0.0,0.0,0.0,0.0,0.0,0.0,0.0,0.0,0.0,0.0,0.0,0.0,0.0,0.0,0.0,0.0,0.0,0.0,0.0,0.0,0.0,0.0,0.0,0.0,0.0,0.0,0.0,0.0,0.0,0.0,0.0,0.0,0.0,0.0,0.0,0.0,0.0,0.0,0.0,0.0,0.0,0.0,0.0,0.0,0.0,0.0,0.0,0.0,0.0,0.0,0.0,0.0,0.0,0.0,0.0,3.6498,3.7403,3.7935,0.0,3.7476,3.7404,3.7592,3.652,3.534,3.4203,0.0,0.0,0.0,0.0,0.0,0.0,0.0,0.0,0.0,0.0,0.0,0.0,0.0,0.0,0.0,0.0,0.0,0.0,0.0,0.0,0.0,0.0,0.0,0.0,0.0,0.0,0.0,0.0,0.0,0.0,0.0,0.0,0.0,0.0,0.0,0.0,0.0,0.0,0.0,0.0,0.0,0.0,0.0,0.0,0.0,0.0,0.0,0.0,0.0,0.0,0.0,0.0,0.0,0.0,0.0,0.0,0.0,0.0,0.0,0.0,0.0,0.0,0.0,0.0,0.0,0.0,0.0,0.0,0.0,0.0,0.0,0.0,0.0,0.0,0.0,0.0,0.0,0.0,0.0,0.0,0.0,0.0,0.0,0.0,0.0,0.0,0.0,0.0,0.0,0.0,0.0,0.0,0.0,0.0,0.0,0.0,0.0,0.0,0.0,0.0,0.0,0.0,3.8086,3.8687,3.9295,4.0007,3.9347,3.9089,3.9741,3.7801,3.6207,0.0,0.0,0.0,0.0,0.0,0.0,0.0,0.0,0.0,0.0,0.0,0.0,0.0,0.0,0.0,0.0,0.0,0.0,0.0,0.0,0.0,0.0,0.0,0.0,0.0,0.0,0.0,0.0,0.0,0.0,0.0,0.0,0.0,0.0,0.0,0.0,0.0,0.0,0.0,0.0,0.0,0.0,0.0,0.0,0.0,0.0,0.0,0.0,0.0,0.0,0.0,0.0,0.0,0.0,0.0,0.0,0.0,0.0,0.0,0.0,0.0,0.0,0.0,0.0,0.0,0.0,0.0,0.0,0.0,0.0,0.0,0.0,0.0,0.0,0.0,0.0,0.0,0.0,0.0,0.0,0.0,0.0,0.0,0.0,0.0,0.0,0.0,0.0,0.0,0.0,0.0,0.0,0.0,0.0,0.0,0.0,0.0,0.0,0.0,0.0,0.0,0.0,0.0,3.8863,3.9003,3.9171,3.9812,4.0212,4.0198,3.9555,3.9069,3.8091,3.6334,0.0,0.0,0.0,0.0,0.0,0.0,0.0,0.0,0.0,0.0,0.0,0.0,0.0,0.0,0.0,0.0,0.0,0.0,0.0,0.0,0.0,0.0,0.0,0.0,0.0,0.0,0.0,0.0,0.0,0.0,0.0,0.0,0.0,0.0,0.0,0.0,0.0,0.0,0.0,0.0,0.0,0.0,0.0,0.0,0.0,0.0,0.0,0.0,0.0,0.0,0.0,0.0,0.0,0.0,0.0,0.0,0.0,0.0,0.0,0.0,0.0,0.0,0.0,0.0,0.0,0.0,0.0,0.0,0.0,0.0,0.0,0.0,0.0,0.0,0.0,0.0,0.0,0.0,0.0,0.0,0.0,0.0,0.0,0.0,0.0,0.0,0.0,0.0,0.0,0.0,0.0,0.0,0.0,0.0,0.0,0.0,0.0,0.0,0.0,0.0,0.0,0.0,3.967,4.0109,4.0735,4.2058,4.1973,4.1849,4.1696,4.047,3.9047,3.7773,0.0,0.0,0.0,0.0,0.0,0.0,0.0,0.0,0.0,0.0,0.0,0.0,0.0,0.0,0.0,0.0,0.0,0.0,0.0,0.0,0.0,0.0,0.0,0.0,0.0,0.0,0.0,0.0,0.0,0.0,0.0,0.0,0.0,0.0,0.0,0.0,0.0,0.0,0.0,0.0,0.0,0.0,0.0,0.0,0.0,0.0,0.0,0.0,0.0,0.0,0.0,0.0,0.0,0.0,0.0,0.0,0.0,0.0,0.0,0.0,0.0,0.0,0.0,0.0,0.0,0.0,0.0,0.0,0.0,0.0,0.0,0.0,0.0,0.0,0.0,0.0,0.0,0.0,0.0,0.0,0.0,0.0,0.0,0.0,0.0,0.0,0.0,0.0,0.0,0.0,0.0,0.0,0.0,0.0,0.0,0.0,0.0,0.0,0.0,0.0,0.0,0.0,4.0637,4.1808,4.3348,4.5505,4.4295,4.3773,4.491,4.1832,3.9691,3.9439,0.0,0.0,0.0,0.0,0.0,0.0,0.0,0.0,0.0,0.0,0.0,0.0,0.0,0.0,0.0,0.0,0.0,0.0,0.0,0.0,0.0,0.0,0.0,0.0,0.0,0.0,0.0,0.0,0.0,0.0,0.0,0.0,0.0,0.0,0.0,0.0,0.0,0.0,0.0,0.0,0.0,0.0,0.0,0.0,0.0,0.0,0.0,0.0,0.0,0.0,0.0,0.0,0.0,0.0,0.0,0.0,0.0,0.0,0.0,0.0,3.6676,0.0,0.0,0.0,0.0,0.0,0.0,0.0,0.0,0.0,0.0,0.0,0.0,0.0,0.0,0.0,0.0,0.0,0.0,0.0,0.0,0.0,0.0,0.0,0.0,0.0,0.0,0.0,0.0,0.0,0.0,0.0,0.0,0.0,0.0,0.0,0.0,0.0,0.0,0.0,0.0,0.0,4.2437,4.3423,4.4574,4.5826,4.5831,4.519,4.3823,4.3179,4.1882,3.9571,3.8901,0.0,0.0,0.0,0.0,0.0,0.0,0.0,0.0,0.0,0.0,0.0,0.0,0.0,0.0,0.0,0.0,0.0,0.0,0.0,0.0,0.0,0.0,0.0,0.0,0.0,0.0,0.0,0.0,0.0,0.0,0.0,0.0,0.0,0.0,0.0,0.0,0.0,0.0,0.0,0.0,0.0,0.0,0.0,0.0,0.0,0.0,0.0,0.0,0.0,0.0,0.0,0.0,0.0,0.0,0.0,0.0,0.0,0.0,0.0,0.0,3.8415,0.0,0.0,0.0,0.0,0.0,0.0,0.0,0.0,0.0,0.0,0.0,0.0,0.0,0.0,0.0,0.0,0.0,0.0,0.0,0.0,0.0,0.0,0.0,0.0,0.0,0.0,0.0,0.0,0.0,0.0,0.0,0.0,0.0,0.0,0.0,0.0,0.0,0.0,0.0,0.0,4.3454,4.4531,4.5511,4.6608,4.6799,4.6159,4.4555,4.3899,4.2804,4.098,3.9948,0.0,0.0,0.0,0.0,0.0,0.0,0.0,0.0,0.0,0.0,0.0,0.0,0.0,0.0,0.0,0.0,0.0,0.0,0.0,0.0,0.0,0.0,0.0,0.0,0.0,0.0,0.0,0.0,0.0,0.0,0.0,0.0,0.0,0.0,0.0,0.0,0.0,0.0,0.0,0.0,0.0,0.0,0.0,0.0,0.0,0.0,0.0,0.0,0.0,0.0,0.0,0.0,0.0,4.0333,4.0604,4.0777,4.1245,4.1991,4.2772,4.2148,4.1523,4.0908,4.0174,0.0,0.0,0.0,0.0,0.0,0.0,0.0,0.0,0.0,0.0,0.0,0.0,0.0,0.0,0.0,0.0,0.0,0.0,0.0,0.0,0.0,0.0,0.0,0.0,4.2469,4.2543,4.1222,0.0,0.0,0.0,0.0,0.0,0.0,0.0,0.0,0.0,0.0,0.0,4.4303,4.5512,4.6697,4.777,4.7599,4.7046,4.6114,4.4546,4.3359,4.2581,4.0995,3.9948,0.0,0.0,0.0,0.0,0.0,0.0,0.0,0.0,0.0,0.0,0.0,0.0,0.0,0.0,0.0,0.0,0.0,0.0,0.0,0.0,0.0,0.0,0.0,0.0,0.0,0.0,0.0,0.0,0.0,0.0,0.0,0.0,3.1219,3.1389,0.0,0.0,0.0,0.0,0.0,0.0,0.0,0.0,0.0,0.0,0.0,0.0,0.0,3.9233,3.9391,4.0477,4.1093,4.1207,4.2889,4.4149,4.503,4.5817,4.6723,4.7582,4.7485,0.0,4.1893,4.1768,0.0,0.0,0.0,0.0,0.0,0.0,0.0,0.0,0.0,0.0,0.0,0.0,0.0,0.0,0.0,0.0,0.0,0.0,0.0,0.0,0.0,0.0,4.31,4.3631,4.4609,4.5369,0.0,4.412,4.3198,4.3054,4.302,0.0,0.0,0.0,0.0,0.0,0.0,0.0,4.5546,4.7319,4.8744,4.9319,4.8673,4.7965,4.7556,4.6022,4.4526,4.3299,4.3,4.2073,4.0337,3.8604,0.0,0.0,0.0,0.0,0.0,0.0,0.0,0.0,0.0,0.0,0.0,0.0,0.0,0.0,0.0,0.0,0.0,0.0,0.0,0.0,0.0,0.0,0.0,0.0,0.0,0.0,0.0,0.0,0.0,3.0448,3.2055,3.2468,3.3319,3.3635,0.0,0.0,0.0,0.0,0.0,0.0,0.0,0.0,0.0,4.0076,4.0933,4.1892,4.3024,4.4001,4.4729,4.5189,4.605,4.695,4.7927,4.8396,4.9136,5.0092,5.0101,4.8798,4.6596,4.5501,4.4569,4.3766,0.0,0.0,0.0,0.0,4.1994,4.2349,4.1933,4.2097,0.0,4.2121,0.0,0.0,0.0,0.0,0.0,0.0,0.0,0.0,0.0,0.0,4.6139,4.6376,4.7905,4.9334,4.9334,4.9114,4.8416,0.0,4.5588,4.5207,4.575,0.0,0.0,0.0,0.0,4.6741,4.7446,4.8409,4.9315,5.0245,4.9451,4.8536,4.7867,4.6629,4.5454,4.4496,4.3748,4.297,4.2132,3.989,3.8529,0.0,0.0,0.0,0.0,0.0,0.0,0.0,0.0,0.0,0.0,0.0,0.0,0.0,0.0,0.0,0.0,0.0,0.0,0.0,0.0,0.0,0.0,0.0,0.0,0.0,0.0,0.0,0.0,3.2193,3.3599,3.4047,3.5155,3.5722,0.0,0.0,0.0,0.0,0.0,0.0,3.99,4.044,4.1358,4.2776,4.3637,4.4787,4.624,4.7086,4.7855,4.8432,4.8856,4.949,5.0296,5.0647,5.1229,5.2,5.2038,5.1715,5.1024,4.8981,4.7595,4.6758,4.6172,4.5846,4.5612,4.4443,4.4416,4.486,4.4279,4.4481,4.4982,4.4746,4.4418,4.4149,4.4128,0.0,0.0,0.0,0.0,4.586,4.6935,4.8145,4.9234,4.964,5.1176,5.2601,5.2601,5.3261,5.2931,0.0,4.8393,4.7874,4.8596,0.0,0.0,0.0,0.0,4.8048,4.9114,4.9627,5.0284,5.1353,5.0758,4.9853,4.8874,4.7803,4.6749,4.5603,4.4646,4.4018,4.3898,4.1394,3.9936,3.9683,0.0,0.0,0.0,0.0,0.0,0.0,0.0,0.0,0.0,0.0,0.0,0.0,0.0,0.0,0.0,0.0,0.0,0.0,0.0,0.0,0.0,0.0,0.0,0.0,0.0,0.0,0.0,0.0,0.0,3.7108,3.7923,0.0,0.0,0.0,0.0,3.8032,4.0148,4.1611,4.192,4.3824,4.5416,4.6606,4.7414,4.7875,4.7971,4.8856,4.9279,4.9356,5.0971,5.1857,5.2183,5.3016,5.3598,5.3868,5.3889,5.3867,5.3592,5.1092,4.9531,4.875,4.8711,4.8672,4.8671,4.8593,4.8593,4.8632,4.8594,4.8608,4.8471,4.7511,4.6512,4.5666,4.5547,4.6086,0.0,0.0,4.7932,4.9431,5.0645,5.1329,5.2027,5.3199,5.3887,5.4289,5.4289,5.4913,5.473,0.0,5.1756,5.1255,4.9973,0.0,5.0138,4.9005,5.0011,5.0686,5.0125,5.1251,5.2469,5.3281,5.3019,5.2398,5.1403,5.0367,4.8683,4.6436,4.6202,4.5873,4.5214,4.2913,4.1319,4.0521,3.7653,0.0,0.0,0.0,0.0,0.0,0.0,0.0,0.0,0.0,0.0,0.0,0.0,0.0,0.0,0.0,0.0,0.0,0.0,0.0,0.0,0.0,0.0,0.0,0.0,0.0,0.0,0.0,0.0,3.8071,3.9367,0.0,4.0417,4.1295,4.2069,4.2654,4.3764,4.4764,4.5589,4.6336,4.7312,4.8471,4.9317,5.001,5.0548,5.1395,5.1856,5.1856,5.2472,5.3184,5.3995,5.488,5.5723,5.6536,5.7103,5.6719,5.5586,5.4687,5.3476,5.2148,5.1562,5.1367,5.1289,5.0703,5.0508,5.0505,5.0508,5.0439,5.0294,4.9739,4.9336,4.901,4.8894,4.9086,4.9586,5.0664,5.1173,5.1686,5.3016,5.3983,5.4727,5.4888,5.5852,5.6712,5.6712,5.6932,5.6748,5.5354,5.3916,5.3053,5.3496,5.2248,5.131,5.1813,5.1459,5.1469,5.223,5.2739,5.3551,5.4803,5.4189,5.3291,5.2251,5.1203,4.9689,4.7725,4.7189,4.6651,4.5992,4.4317,4.2708,4.127,3.9088,3.7262,0.0,0.0,0.0,0.0,0.0,0.0,0.0,0.0,0.0,0.0,0.0,0.0,0.0,0.0,0.0,0.0,0.0,0.0,0.0,0.0,0.0,0.0,0.0,0.0,0.0,0.0,3.8977,3.9512,4.0924,4.2252,4.3101,4.3749,4.4603,4.5806,4.6766,4.7642,4.838,4.9105,4.9848,5.0664,5.1241,5.1818,5.2318,5.3203,5.378,5.4049,5.4395,5.5109,5.621,5.7118,5.7992,5.8789,5.9687,5.9375,5.832,5.832,5.7656,5.6367,5.4023,5.3125,5.3086,5.25,5.2266,5.2262,5.2258,5.2177,5.1984,5.1795,5.1662,5.1605,5.1548,5.1548,5.1856,5.3241,5.3498,5.3677,5.4963,5.6143,5.6986,5.6846,5.785,5.8804,5.8804,5.8804,5.8657,5.8143,5.6145,5.4676,5.523,5.3885,5.3021,5.3706,5.34,5.3484,5.4499,5.4837,5.5446,5.6697,5.6151,5.515,5.3696,5.2954,5.1599,4.9404,4.8865,4.8149,4.6993,4.6304,4.4929,4.2649,4.0277,3.8067,3.6004,0.0,0.0,0.0,0.0,0.0,0.0,0.0,0.0,0.0,0.0,0.0,0.0,0.0,0.0,0.0,0.0,0.0,0.0,0.0,0.0,0.0,0.0,0.0,3.5867,3.8396,4.0745,4.1651,4.2812,4.4365,4.6414,4.6594,4.678,4.7257,4.9074,5.0197,5.0197,5.2116,5.3241,5.328,5.328,5.3318,5.3356,5.4203,5.5049,5.5818,5.6862,5.7846,5.883,5.9837,6.0345,6.0547,6.1406,6.1758,6.1758,6.1758,6.1719,6.1211,5.6172,5.4258,5.4258,5.4258,5.4219,5.4219,5.4179,5.4003,5.3738,5.3755,5.3546,5.3356,5.3395,5.3395,5.3587,5.4472,5.4953,5.5465,5.6706,5.7866,5.8768,5.9164,5.9832,6.0419,6.0419,6.0419,6.0419,6.0419,5.851,5.641,5.4869,5.5223,5.5449,5.4641,5.5859,0.0,5.6833,5.7442,5.8186,5.8964,5.8957,5.813,5.5931,5.5677,5.4442,5.1476,5.1259,5.0337,4.8269,4.8942,4.7712,4.454,4.11,3.8121,3.568,0.0,0.0,0.0,0.0,0.0,0.0,0.0,0.0,0.0,0.0,0.0,0.0,0.0,0.0,0.0,0.0,0.0,0.0,0.0,0.0,0.0,3.9171,4.125,4.0769,4.1833,4.3243,4.4942,4.5215,4.6163,4.8528,4.8738,4.9372,5.0976,5.1867,5.2329,5.2329,5.2892,5.378,5.4972,5.5011,5.5626,5.6896,5.7703,5.8303,5.8671,5.9518,6.0217,6.0783,6.1692,6.2147,6.2344,6.3203,6.3242,6.2656,6.2656,6.2265,6.1562,6.0156,5.957,5.957,5.957,5.918,5.8592,5.8435,5.7904,5.7265,5.7079,5.695,5.7011,5.7588,5.778,5.8088,5.9588,5.9578,5.9303,6.0257,6.0211,5.9946,6.0063,6.0236,6.0419,6.0419,6.0419,6.0419,6.0419,5.9406,5.842,5.7995,5.7632,5.7127,5.6299,5.6064,0.0,5.7442,5.7746,5.8389,5.9674,5.902,5.792,5.6584,5.5626,5.4236,5.2072,5.1947,5.1017,4.8833,4.8924,4.7319,4.3606,4.1284,3.9652,0.0,0.0,0.0,0.0,0.0,0.0,0.0,0.0,0.0,0.0,0.0,0.0,0.0,0.0,0.0,0.0,0.0,0.0,0.0,0.0,0.0,0.0,4.1202,4.336,4.4416,4.4528,4.5287,4.7313,4.7336,4.8166,5.0599,5.0871,5.1421,5.2747,5.3733,5.4241,5.4241,5.4934,5.5934,5.7242,5.728,5.7934,5.9319,5.9819,6.0304,6.085,6.1408,6.1989,6.2635,6.355,6.4037,6.414,6.5,6.5117,6.4648,6.4648,6.4336,0.0,0.0,0.0,0.0,0.0,6.1334,6.0834,6.0693,6.0184,5.9645,5.9485,5.9373,5.9435,5.9896,6.005,6.0319,6.1704,6.1362,6.0787,6.1691,6.1395,6.0896,6.0896,6.1153,6.141,6.141,6.141,6.141,6.141,6.0747,0.0,5.9752,5.8768,5.773,5.6916,5.7255,5.7848,5.8693,5.937,6.0114,6.096,5.9984,5.8801,5.7684,5.643,0.0,0.0,0.0,5.154,4.9398,4.8499,0.0,0.0,0.0,0.0,0.0,0.0,0.0,0.0,3.5891,3.5963,0.0,0.0,0.0,0.0,0.0,0.0,0.0,0.0,0.0,0.0,0.0,0.0,0.0,0.0,0.0,0.0,4.3027,4.4672,4.6948,4.6728,4.702,4.8878,4.9139,5.0134,5.2527,5.2705,5.2905,5.3451,5.5049,5.5972,5.5972,0.0,0.0,0.0,0.0,6.0204,6.105,6.1166,6.1689,6.2598,6.2905,6.3532,6.4443,6.5328,6.5742,6.5781,6.6562,6.6914,6.6914,6.6914,6.6914,6.6601,6.3476,6.2305,6.2305,6.2305,6.2151,6.1927,6.1889,0.0,0.0,6.1272,6.118,6.1089,6.1204,6.1243,6.1396,6.2281,6.184,6.1274,6.1993,6.1997,6.1801,6.1741,6.2291,6.2805,6.2805,6.2805,6.2805,6.2805,6.2129,6.1343,6.0519,5.908,5.7774,5.7145,5.8727,6.0047,6.0216,6.1434,6.2313,6.2189,0.0,0.0,5.8722,5.7434,5.6347,5.528,5.3623,5.1824,4.9611,4.7607,4.6324,4.5826,4.5223,4.4157,4.2434,4.1957,4.1597,4.133,4.0003,3.9208,0.0,0.0,0.0,0.0,0.0,0.0,0.0,0.0,0.0,0.0,0.0,0.0,0.0,0.0,0.0,4.186,4.444,4.6801,4.7902,4.8526,4.9121,4.9815,5.0195,5.1264,5.3362,5.3272,5.365,5.5083,5.6819,5.7819,5.7819,5.9396,6.0704,6.155,6.1589,6.1973,6.282,6.3512,6.4114,6.4561,0.0,0.0,6.6375,6.656,6.664,6.664,6.6836,6.6914,6.6914,6.6914,6.6914,6.6836,6.6172,6.5898,6.5898,6.5898,6.5328,6.4539,6.4424,6.3834,6.3065,6.2911,6.2858,6.2935,6.3666,6.3858,0.0,6.4936,6.4719,6.4182,6.3952,6.3559,6.3094,6.2647,6.2695,6.2805,6.2805,6.2805,6.2805,6.2805,6.2129,6.1343,6.0519,5.9564,5.8806,5.8603,5.8964,5.9674,6.0926,6.1332,6.1391,6.097,5.987,5.8632,5.7434,5.628,5.5451,5.5179,5.2615,5.0436,4.8805,4.6811,4.5715,4.5613,4.503,4.4471,4.4141,4.4041,4.3276,4.1873,3.8687,3.8101,0.0,0.0,0.0,0.0,0.0,0.0,0.0,0.0,0.0,0.0,0.0,3.7581,3.8337,0.0,4.3129,4.3518,4.5924,4.8012,4.882,4.9994,5.0927,5.1303,5.1709,5.2648,5.4264,5.5222,5.6104,5.695,5.8973,6.0204,6.0204,6.1396,6.2435,6.332,6.3358,6.3743,6.4589,6.5013,6.5359,6.5615,6.6134,6.6533,6.6758,6.6836,6.6914,6.6914,6.6914,6.6914,6.6914,6.6914,6.6914,6.6914,6.6914,6.6914,6.6914,6.6914,6.6517,6.5945,6.5804,6.5359,6.482,6.4666,6.4589,6.4666,6.5128,6.5243,6.532,6.5782,6.5542,6.5003,6.4518,6.3978,6.3453,6.2917,6.2805,6.2805,6.2805,6.2805,6.2805,6.2805,6.2129,6.1343,6.0519,5.9704,5.9082,5.9044,5.9336,5.9979,6.1163,6.1637,6.1706,6.1528,5.987,5.8542,5.7993,5.628,5.4509,5.304,5.1481,4.9707,4.7534,4.6222,4.5497,4.5497,4.492,4.4618,4.4618,4.3777,4.3044,4.2161,3.8672,3.7723,0.0,0.0,0.0,0.0,0.0,0.0,0.0,3.5313,3.5745,3.7162,3.8565,3.9721,4.0391,4.2653,4.4647,4.5432,4.7247,4.8922,4.9921,5.1169,5.2213,5.2865,5.3227,5.3962,5.5351,5.7175,5.841,5.8781,6.0973,6.232,6.232,6.3281,6.4128,6.482,6.4859,6.5205,6.5897,6.5897,6.5974,6.6115,6.6301,6.6488,6.6601,6.6797,6.6914,6.6914,6.6914,6.6914,6.6914,6.6914,6.6914,6.6914,6.6914,6.6914,6.6914,6.6914,6.6758,6.6594,6.6472,6.629,6.609,6.5936,6.5897,6.5897,6.5897,6.5897,6.5897,6.5897,6.5569,6.5099,6.4518,6.4059,6.3593,6.2965,6.2805,6.2805,6.2805,6.2805,6.2805,6.2805,6.2271,6.1604,6.076,5.996,5.9253,5.9044,5.9505,6.0216,6.1197,6.1806,6.2054,6.1756,5.9957,5.8632,5.8177,5.628,5.4009,5.1095,5.0739,4.9266,4.6544,4.5666,4.5321,4.5321,4.4869,4.4618,4.4618,4.3044,4.2185,4.168,3.8685,3.7738,3.1008,3.2414,3.3623,3.442,3.5038,3.5873,0.0,3.7601,3.8005,3.9429,4.0391,4.1167,4.1914,4.3838,4.5556,4.6224,4.8155,5.0069,5.1527,5.1867,5.2569,5.4007,5.4275,5.4944,5.6592,5.7667,5.8851,6.0388,6.2166,6.3166,6.3166,6.4705,6.5628,6.5743,6.5743,6.5782,6.5897,6.5897,6.5974,6.609,6.6304,6.6454,6.6601,6.6797,6.6914,6.6914,6.6914,6.6914,6.6914,6.6914,6.6914,6.6914,6.6914,6.6914,6.6914,6.6914,6.6758,6.6599,6.6457,6.6264,6.609,6.5936,6.5897,6.5897,6.5897,6.5897,6.5897,6.5897,6.5872,6.5569,6.4664,6.437,6.4059,6.3062,6.2805,6.2805,6.2805,6.2805,6.2805,6.2805,6.2755,6.2376,6.1604,6.082,5.9984,5.9157,5.9099,5.9674,6.1129,6.1366,6.0859,5.937,5.8992,5.79,5.5819,5.5381,5.4272,5.2052,5.0668,4.9009,4.6777,4.5413,4.4719,4.4719,4.4644,4.4618,4.4618,4.3044,4.1439,3.9949,3.8204,3.7403,3.2788,3.4101,3.5249,3.6814,3.7387,3.8011,3.948,3.984,4.0138,4.1148,4.2313,4.3289,4.4096,4.5895,4.7547,4.8289,4.9908,5.1286,5.1899,5.2821,5.3665,5.4326,5.5647,5.6688,5.7155,5.9379,6.105,6.1792,6.3693,6.482,6.482,6.5513,6.5897,6.5897,6.5897,6.5897,6.5897,6.5897,6.5936,6.5974,6.6769,6.6941,6.6518,6.7804,6.8125,6.7617,6.7109,6.6914,6.6914,6.6914,6.6914,6.6914,6.6914,6.6914,6.6914,6.6914,6.6836,6.6757,6.6575,6.6411,6.6269,6.6051,6.5936,6.5897,6.5897,6.5897,6.5897,6.5897,6.5897,6.5717,6.5003,6.459,6.4178,6.3453,6.3014,6.2805,6.2805,6.2805,6.2805,6.2805,6.2805,6.2567,6.1715,6.0938,6.0065,5.9185,5.906,5.9573,6.1095,6.1298,6.0712,5.9016,5.8812,5.7807,5.5381,5.485,5.3494,5.0932,4.99,4.8191,4.5602,4.4637,4.4141,4.4141,4.384,4.3664,4.3664,4.114,4.0052,4.0171,3.7609,3.6373,3.4093,3.5505,3.6712,3.8605,3.9406,4.0101,4.1268,4.1674,4.1955,4.2483,4.3731,4.4975,4.5754,4.7435,4.9005,4.9983,5.1217,5.2175,5.2601,5.3665,5.4656,5.5317,5.7116,5.8354,5.8529,6.109,6.2915,6.3238,6.4879,6.5897,6.5897,6.5897,6.5897,6.5897,6.5897,6.5897,6.5897,6.6128,6.6244,6.6244,6.7449,6.7578,6.6789,6.8141,6.8555,6.8164,6.7265,6.6914,6.6914,6.6914,6.6914,6.6914,6.6914,6.6914,6.6914,6.6914,6.6914,6.6875,6.668,6.6541,6.6419,6.6174,6.6013,6.5936,6.5897,6.5897,6.5897,6.5897,6.5897,6.5781,6.5261,6.4833,6.4407,6.3766,6.3271,6.2965,6.2855,6.2805,6.2805,6.2805,6.2805,6.2567,6.1715,6.0938,6.0086,5.9245,5.8832,5.9268,6.0757,6.0717,6.0109,5.8927,5.8177,5.7024,5.511,5.4491,5.2952,5.0213,4.9103,4.7514,4.4801,4.3992,4.3564,4.3564,4.3187,4.2986,4.2986,3.9756,3.9053,4.0476,3.6881,3.5335,3.4469,3.6248,3.8012,3.8908,4.0682,4.2219,4.2252,4.2828,4.3314,4.3369,4.4587,4.5886,4.655,4.7923,4.9328,5.071,5.1581,5.2599,5.4129,5.4363,5.528,5.7593,5.8657,5.9758,6.1349,6.2425,6.3641,6.4915,6.5597,6.5897,6.5897,6.5897,6.5897,6.5897,6.5897,6.5897,6.5897,6.6667,6.7051,6.709,6.8296,6.839,6.7541,6.7164,6.7422,6.8164,6.7265,6.6914,6.6914,6.6914,6.6914,6.6914,6.6914,6.6914,6.6914,6.6914,6.6914,6.6875,6.668,6.6601,6.6543,6.6205,6.609,6.6051,6.5936,6.5897,6.5897,6.5897,6.5897,6.5781,6.5261,6.5099,6.4833,6.385,6.3587,6.3453,6.2867,6.2805,6.2805,6.2805,6.2805,6.2567,6.1715,6.0938,6.0086,5.9245,5.8458,5.8457,5.9945,5.9413,5.887,5.8812,5.6735,5.504,5.4281,5.4221,5.3029,5.0385,4.8893,4.7128,4.5127,4.3738,4.3011,4.3011,4.2986,4.2986,4.2986,3.9756,3.9053,4.0476,3.5704,3.4258,3.6892,3.8025,3.9127,4.1388,4.2496,4.3166,4.3673,4.4012,4.4181,4.4181,4.494,4.5956,4.7192,4.8534,4.9984,5.1488,5.2372,5.323,5.4246,5.484,5.5868,5.7776,5.9171,6.0419,6.1484,6.3023,6.4142,6.4626,6.5417,6.5897,6.5897,6.5897,6.5897,6.5897,6.5897,6.6167,6.6667,6.6974,6.709,6.709,6.7213,6.7723,6.8605,6.7458,6.7383,6.8164,6.7265,6.6914,6.6914,6.6914,6.6914,6.6914,6.6914,6.6914,6.6836,6.625,6.6055,6.6094,6.6601,6.6719,6.6561,6.6453,6.6267,6.609,6.6051,6.5974,6.5897,6.5897,6.5897,6.5872,6.569,6.5388,6.4997,6.4696,6.4099,6.3543,6.3363,6.3062,6.2805,6.2805,6.2376,6.1915,6.1659,6.0423,5.9418,5.9037,5.9253,5.9539,6.0047,6.0026,5.9697,5.8902,5.7371,5.581,5.4351,5.3773,5.22,4.9024,4.793,4.6272,4.3823,4.3295,4.2986,4.2986,4.2986,4.2986,4.2986,4.0822,4.0592,4.215,3.9405,3.7843,3.8293,3.9495,4.0638,4.2858,4.3639,4.3944,4.4451,4.4587,4.4587,4.4587,4.5111,4.6006,4.7538,4.8947,5.0342,5.1871,5.3208,5.4239,5.4784,5.577,5.7042,5.8657,5.9758,6.0823,6.1924,6.3295,6.4178,6.4407,6.5168,6.569,6.5897,6.5897,6.5897,6.5897,6.5897,6.6282,6.709,6.7398,6.7744,6.8078,6.725,6.7654,6.914,6.7617,6.7383,6.8164,6.7265,6.6914,6.6914,6.6914,6.6914,6.6914,6.6914,6.6719,6.6367,6.582,6.539,6.5234,6.5781,6.5898,6.5781,6.5703,6.5574,6.5368,6.5234,6.5359,6.5513,6.5436,6.5667,6.5897,6.5897,6.5663,6.5321,6.513,6.4481,6.385,6.3637,6.3168,6.2805,6.2805,6.2129,6.1548,6.1229,5.9797,5.8768,5.897,5.9641,6.0216,6.0486,6.0191,5.961,5.8902,5.7152,5.5445,5.3991,5.3234,5.1582,4.8658,4.7624,4.6083,4.3797,4.3295,4.2986,4.2986,4.2986,4.2986,4.2986,4.1419,4.1419,4.2986,4.0707,3.9262,3.873,4.0652,4.2493,4.3271,4.4045,4.4587,4.4587,4.4587,4.4587,4.4587,4.5162,4.6068,4.7479,4.8925,5.0413,5.1883,5.4014,5.5578,5.569,5.6999,5.8547,6.0199,6.0419,6.1043,6.2658,6.3262,6.3808,6.4332,0.0,6.5321,6.5872,6.5897,6.5897,6.5897,6.5936,6.6359,6.7167,6.8013,6.8963,6.99,6.8321,6.8136,6.9062,6.7578,6.7344,6.8086,6.7265,6.6914,6.6914,6.6914,6.6914,6.6914,6.6836,6.6328,6.5586,6.5508,6.4922,6.4219,6.418,6.4219,6.4297,6.414,6.4101,6.4047,6.3728,6.4191,6.4757,6.4666,6.5243,6.5897,6.5897,6.5897,6.5781,6.5261,6.4765,6.4255,6.3766,6.3215,6.2805,6.2805,6.2129,6.1286,6.0458,5.8977,5.8186,5.8896,5.9674,6.0452,6.1197,5.9821,5.8812,5.8748,5.6023,5.3922,5.3204,5.2546,5.1283,4.9288,4.7909,4.6474,4.5048,4.3713,4.2986,4.2986,4.2986,4.2986,4.2986,4.1444,4.1558,4.3011,3.9919,3.8657,3.9941,4.1341,4.2626,4.3945,4.4418,4.4587,4.4587,4.4587,4.4587,4.4587,4.4722,4.532,4.6805,4.8189,4.9649,5.1121,5.3266,5.4943,5.5533,5.6475,5.7923,6.0126,6.0419,6.1043,6.2658,6.2917,6.3408,6.4332,6.4833,6.5321,6.5872,6.5897,6.5897,6.5897,6.6474,6.7205,6.8052,6.8936,6.9513,6.9732,6.8193,6.7677,6.7998,6.7096,6.6875,6.7226,6.6992,6.6914,6.6914,6.6914,6.6914,6.6836,6.6172,6.5781,6.543,6.414,6.3515,6.3242,6.2578,6.3203,6.4297,6.4258,6.418,6.4061,6.3984,6.4357,6.4782,6.4757,6.532,6.5897,6.5897,6.5897,6.5872,6.5717,6.5003,6.4332,6.4217,6.3453,6.2805,6.2805,6.1659,6.0458,5.9574,5.9044,5.8795,5.8998,6.0148,6.1061,6.1264,5.9821,5.862,5.8133,5.5715,5.3743,5.2546,5.2306,5.1283,4.9288,4.7909,4.6474,4.5048,4.3713,4.2986,4.2986,4.2986,4.2986,4.2986,4.2625,4.2824,4.3589,4.2741,4.2083,4.0102,4.1555,4.2973,4.3814,4.4327,4.4654,4.4993,4.4823,4.4688,4.4993,4.4823,4.5026,4.6515,4.7942,4.9387,5.0873,5.3255,5.5082,5.5577,5.6895,5.851,6.0199,6.0713,6.141,6.2695,6.2805,6.3224,6.4294,6.4626,6.5137,6.5872,6.5897,6.6051,6.6397,6.6859,6.7705,6.8975,6.9475,6.9706,6.9667,6.8205,6.7541,6.7596,6.6985,6.6797,6.6914,0.0,6.6758,6.678,6.6781,6.6758,6.668,6.5898,6.5325,6.4783,6.3467,6.2734,6.2265,6.1836,6.2344,6.3164,6.3164,6.3125,6.3047,6.2969,6.3349,6.3845,6.42,6.4782,6.5436,6.5782,6.5897,6.5897,6.5897,6.5299,6.4626,6.4444,6.3766,6.2977,6.2376,6.1265,6.0254,5.9696,5.9313,5.9235,5.9911,6.0757,6.1298,6.1298,5.961,5.8172,5.7845,5.5068,5.3025,5.2247,5.1947,5.1304,5.0095,4.8239,4.6785,4.5978,4.4016,4.2986,4.2986,4.2986,4.3087,4.3338,4.3338,4.3614,4.4166,4.4166,4.3604,3.9792,4.147,4.3169,4.3229,4.3889,4.4609,4.5399,4.4959,4.4621,4.5263,4.4891,4.4857,4.6244,4.768,4.9148,5.078,5.3369,5.5268,5.5631,5.7631,5.9391,6.0309,6.1117,6.1924,6.2732,6.2805,6.3215,6.4217,6.4332,6.4837,6.5872,6.5897,6.632,6.7244,6.7282,6.809,6.986,6.986,6.9821,6.9667,6.8333,6.7654,6.7571,6.7023,6.683,6.6826,6.6644,6.6574,6.6536,6.6459,6.6396,6.6324,6.5504,6.4686,6.3825,6.3062,6.2217,6.1481,6.164,6.168,6.168,6.168,6.1719,6.168,6.1562,6.1993,6.2678,6.3274,6.4012,6.482,6.5551,6.582,6.5897,6.5897,6.5475,6.4965,6.4481,6.3934,6.3141,6.1986,6.1221,6.0662,6.0488,5.9867,5.9892,6.1095,6.1298,6.1298,6.1298,5.9416,5.7924,5.7556,5.4452,5.2347,5.2067,5.1558,5.1229,5.1229,4.8638,4.7094,4.7094,4.4505,4.3087,4.3087,4.3162,4.3438,4.3915,4.3915,4.4192,4.4744,4.4744,4.4289,4.0349,4.1399,4.2395,4.3108,4.3443,4.3713,4.4609,4.4181,4.3639,4.3775,4.3707,4.391,4.479,4.6109,4.7788,4.9889,5.1669,5.3463,5.5359,5.7143,5.8767,6.0236,6.1117,6.1924,6.2732,6.2805,6.3062,6.368,6.4138,6.4837,6.5872,6.5897,6.659,6.8129,6.8167,6.8975,7.0667,7.0706,7.036,6.9706,6.8744,6.7957,6.7425,6.6586,6.6348,6.6457,6.6464,0.0,6.6409,6.5655,6.5374,6.5202,6.3711,6.3025,6.2754,6.1908,6.1477,6.1353,6.1475,6.1523,6.1562,6.164,6.1719,6.1719,6.168,6.2186,6.273,6.2685,6.3666,6.4757,6.482,6.5359,6.5897,6.5897,6.5475,6.4965,6.4481,6.3637,6.2867,6.2618,6.2513,6.2152,6.1404,6.1638,6.1796,6.1384,6.1298,6.1298,6.1298,6.0056,5.8423,5.6296,5.4585,5.3009,5.1533,5.1289,5.1229,5.1229,4.8638,4.7094,4.7094,4.4869,4.3664,4.3664,4.4116,4.4392,4.4493,4.4493,4.4769,4.5347,4.5347,4.5504,3.8903,4.0216,4.1564,4.2032,4.3026,4.4064,4.4497,4.3978,4.3403,4.3403,4.3098,4.32,4.435,4.5417,4.6987,4.959,5.0923,5.2552,5.5291,5.7042,5.8584,6.0199,6.1484,6.2401,6.2768,6.2805,6.3014,6.3587,6.4136,6.4734,6.5446,6.6139,6.6898,6.7705,6.8167,6.8783,6.959,6.959,6.9398,6.9013,6.8244,6.7691,6.7377,6.6625,6.6281,6.64,6.6284,6.6218,6.6192,6.5307,6.4916,6.479,6.3222,6.2564,6.2334,6.1571,6.125,6.1169,6.133,6.1412,6.1431,6.1559,6.164,6.1719,6.1719,6.1914,6.2178,6.2444,6.3299,6.4243,6.4512,6.5243,6.5897,6.5897,6.5475,6.4965,6.4481,6.3766,6.3121,6.2855,6.2457,6.2062,6.1619,6.1488,6.1427,6.1316,6.1298,6.1163,6.0723,6.0158,5.8786,5.6027,5.4292,5.2733,5.1323,5.1229,5.1229,5.1229,4.9577,4.8313,4.7564,4.616,4.4991,4.4242,4.4493,4.4769,4.507,4.507,4.5372,4.5924,4.5924,4.605,3.7579,3.9048,4.0641,4.1112,4.2558,4.3945,4.4282,4.3606,4.2929,4.2929,4.2489,4.2422,4.3639,4.459,4.6012,4.8647,5.0039,5.1838,5.4783,5.6963,5.8804,6.0236,6.1814,6.2805,6.2805,6.2805,6.2965,6.3408,6.4019,6.4664,6.5261,6.6266,6.6898,6.709,6.7744,6.8205,6.8398,6.8398,6.8321,6.8129,6.759,6.7244,6.7051,6.6513,6.6307,6.6307,6.6128,6.5936,6.5705,6.4845,6.4383,6.4099,6.2752,6.2136,6.1905,6.1381,6.1112,6.0973,6.1189,6.1235,6.1266,6.1439,6.159,6.164,6.168,6.164,6.1633,6.2157,6.28,6.346,6.3974,6.4859,6.5667,6.5859,6.5417,6.4833,6.4481,6.3892,6.3271,6.2904,6.2417,6.2073,6.1829,6.126,6.0947,6.1279,6.1045,6.0655,6.0148,5.9945,5.8886,5.6298,5.441,5.2812,5.1635,5.1293,5.1289,5.1409,5.0701,4.9563,4.8199,4.743,4.6351,4.4819,4.492,4.5221,4.5673,4.5673,4.5899,4.6301,4.6301,4.6301,3.8161,3.8673,3.9344,4.1531,4.1683,4.1707,4.317,4.2422,4.1407,4.1407,4.1373,4.1339,4.1508,4.2678,4.4136,4.5771,4.8358,5.1008,5.3315,5.6791,5.9428,6.0309,6.1814,6.2805,6.2805,6.2805,6.2805,6.2855,6.385,6.4803,6.5781,6.591,6.6359,6.709,6.7167,6.759,6.8398,6.8398,6.8013,6.7205,6.7167,6.6744,6.6051,6.5974,6.5936,6.5936,6.5936,6.5474,0.0,6.382,6.3012,6.2267,6.132,6.0935,6.0935,6.0858,6.0819,6.0819,6.0973,6.102,6.1065,6.14,6.1534,6.1523,6.164,6.168,6.1662,6.1599,6.2082,6.2598,6.2512,6.3628,6.4936,6.5705,6.5168,6.4444,6.4407,6.3593,6.2855,6.2805,6.3379,6.3596,6.2738,6.2505,6.2275,6.1536,6.0125,5.9438,6.0013,5.9539,5.858,5.7357,5.5586,5.3999,5.2812,5.1819,5.1468,5.2067,5.0935,4.9762,4.8807,4.802,4.695,4.5397,4.5899,4.6175,4.6225,4.6225,4.625,4.6301,4.6301,4.6301,3.6507,3.7778,3.9205,4.059,4.1687,4.2378,4.2112,4.1644,4.1068,4.0629,4.0527,4.0663,4.1136,4.2049,4.3376,4.5371,4.7419,4.9837,5.2993,5.5988,5.8495,6.0188,6.1814,6.2805,6.2805,6.2805,6.2917,6.3262,6.368,6.4217,6.4938,6.5542,6.6051,6.6359,6.6359,6.6551,6.6898,6.6898,6.6705,6.6359,6.6359,6.6205,6.5897,6.5897,6.5897,6.5859,6.5359,0.0,0.0,6.3128,6.2397,6.2012,6.1127,6.0781,6.0781,6.0781,6.0781,6.0819,6.0858,6.0858,6.0896,6.1151,6.1275,6.142,6.1637,6.1719,6.1677,6.1541,6.2067,6.2598,6.2344,6.346,6.482,6.5705,6.5359,6.4731,6.4444,6.3808,6.3168,6.2855,6.3099,6.3079,6.2185,6.2004,6.1849,6.1432,6.0873,6.0579,6.0799,6.0588,6.003,5.9141,5.7119,5.5248,5.3641,5.2852,5.2516,5.2785,5.2655,5.202,5.0853,5.0836,5.0161,4.8706,4.7963,4.7652,4.7652,4.6755,4.6301,4.6301,4.6301,4.6301,3.5428,3.6916,3.856,3.9555,4.0963,4.1948,4.1339,4.1035,4.073,4.0189,4.0087,4.0257,4.0764,4.1644,4.2828,4.4418,4.6618,4.9094,5.1809,5.5167,5.7927,5.9578,6.1569,6.2805,6.2805,6.2805,6.2965,6.3317,6.3498,6.3766,6.4138,6.5009,6.5513,6.5663,6.5808,6.5897,6.5897,6.5897,6.5897,6.5897,6.5897,6.5897,6.5897,6.5897,6.5897,6.5859,6.4974,6.4436,0.0,6.2666,6.1935,6.1627,6.105,6.0781,6.0781,6.0512,6.0435,6.0396,6.0127,6.0204,6.0396,6.0281,6.0713,6.12,6.1192,6.144,6.168,6.1601,6.1963,6.2409,6.2304,6.3306,6.4512,6.532,6.5322,6.4965,6.4481,6.3975,6.3453,6.2904,6.2805,6.2618,6.2076,6.195,6.183,6.1457,6.1432,6.1424,6.135,6.1298,6.1095,6.052,5.8938,5.6947,5.4611,5.3837,5.332,5.3174,5.3832,5.3651,5.23,5.2732,5.2266,5.0713,4.9734,4.8965,4.8532,4.7416,4.6755,4.6301,4.6301,4.6301,3.5428,3.6137,3.7094,3.8722,3.9057,3.9411,4.0865,4.0629,4.0087,4.0087,4.0087,4.0087,4.0087,4.1305,4.2286,4.232,4.6055,4.9,4.9,5.4331,5.8208,5.8208,6.0952,6.2805,6.2805,6.2805,6.2805,6.2805,6.3308,0.0,6.3631,6.4099,6.4626,6.5099,6.5597,6.5897,6.5897,6.5897,6.5897,6.5897,6.5897,6.5897,6.5897,6.5897,6.5897,6.5859,0.0,0.0,0.0,6.2435,6.1589,6.0819,6.0781,6.0781,6.0704,5.9819,5.9511,5.9396,5.8588,5.8858,5.9396,5.8742,5.9665,6.0877,6.0201,6.0795,6.1719,6.1719,6.1601,6.1616,6.2143,6.2959,6.3757,6.4436,6.4862,6.4965,6.4481,6.3975,6.3453,6.2904,6.2805,6.2805,6.2805,6.282,6.2471,6.1628,6.1457,6.1496,6.135,6.1298,6.1298,6.1298,6.085,5.9245,5.6007,5.4606,5.3684,5.3241,5.3832,5.3858,5.304,5.2963,5.2266,5.0713,5.0713,4.9932,4.8532,4.8532,4.7769,4.6301,4.6301,4.6301,3.5305,3.6188,3.701,3.7987,3.8975,3.9748,3.9628,3.9882,4.0087,4.0087,4.0087,4.0087,4.0087,4.1305,4.2286,4.2286,4.5589,4.8746,5.0382,5.4056,5.7347,5.9419,6.1569,6.2805,6.2805,6.2805,6.2805,6.2805,6.2965,6.3062,6.3062,6.355,6.4255,6.5099,6.5261,6.5542,6.5897,6.5897,6.5897,6.5897,6.5897,6.5897,6.5897,6.5897,6.5551,0.0,0.0,0.0,6.2397,6.155,6.105,6.0781,6.0781,6.0781,6.0781,6.0473,6.0012,5.9473,5.9204,5.8934,5.8627,5.8434,5.8781,5.9271,5.9031,6.0204,6.1562,6.168,6.1601,6.1677,6.2434,6.268,6.3036,6.4411,6.4451,6.4343,6.4785,6.4217,6.3543,6.3363,6.3062,6.2805,6.2805,6.3262,6.3548,6.319,6.3109,6.2995,6.294,6.2438,6.2042,6.2042,6.1458,6.0084,5.7625,5.6183,5.5039,5.4357,5.4292,5.4082,5.3858,5.4272,5.4304,5.3831,5.2828,5.2079,5.1537,5.0518,4.9281,4.7769,4.8132,4.7744,3.3724,3.4596,3.5466,3.6374,3.7763,3.8851,3.8897,3.9546,4.0087,4.0087,4.0087,4.0087,4.0087,4.1305,4.2286,4.2286,4.52,4.8017,4.9732,5.3119,5.6747,6.0433,6.2034,6.2805,6.2805,6.2805,6.2805,6.2805,6.2805,6.2805,6.2805,6.3121,6.368,6.4518,6.49,6.5388,6.5897,6.5897,6.5897,6.5897,6.5897,6.5897,6.5897,6.5551,6.5128,0.0,0.0,6.2551,0.0,6.1166,6.0781,6.0781,6.0781,6.0781,6.0704,6.0089,5.9511,5.8934,5.828,5.7934,5.7742,5.7434,5.7588,5.8072,5.8781,5.9943,6.1094,6.1523,6.1601,6.168,6.2187,6.2414,6.2726,6.3708,6.4063,6.4279,6.4661,6.4427,6.4099,6.3934,6.3498,6.3073,6.3073,6.3652,6.4014,6.3899,6.4122,6.4279,6.4183,6.3462,6.2931,6.2931,6.2174,6.1133,5.9585,5.7731,5.6121,5.5008,5.4455,5.4102,5.3832,5.4221,5.4551,5.482,5.392,5.3286,5.2963,5.1734,5.0624,4.9657,4.9664,4.9244,0.0,3.1962,3.299,3.4282,3.576,3.7217,3.8605,3.9546,0.0,4.0087,4.0087,4.0087,4.0155,4.1339,4.232,4.2422,4.5038,4.7284,4.7919,5.2004,5.658,6.1019,6.2218,6.2768,6.2805,6.2805,6.2805,6.2805,6.2805,6.2805,6.2805,6.2805,6.3062,6.3587,6.4518,6.5261,6.5833,6.5833,6.5872,6.5897,6.5897,6.5897,6.5859,6.5013,6.4589,0.0,6.2781,6.205,6.1935,6.1127,6.0781,6.0757,6.0781,6.0757,6.0517,5.9004,5.835,5.7981,5.6329,5.6275,5.672,5.5934,5.6242,5.7242,5.9072,5.9866,6.0348,6.125,6.1601,6.164,6.1523,6.2109,6.2674,6.2528,6.3592,6.4537,6.4218,6.4604,6.4921,6.4518,6.4019,6.3637,6.3631,6.3918,6.4119,6.4013,6.4635,6.5094,6.509,6.4357,6.3757,6.3757,6.2973,6.2266,6.1511,5.9282,5.7083,5.5343,5.4618,5.3991,5.3458,5.3391,5.3623,5.4281,5.4281,5.3947,5.3261,5.2374,5.2017,5.196,5.1071,5.0539,2.9116,0.0,3.3393,3.3712,3.5689,3.7663,0.0,3.9159,4.0087,4.0087,4.0087,4.0257,4.0832,4.1677,4.2692,4.3842,4.6999,4.9573,5.0329,5.4359,5.8081,6.0408,6.1374,6.2108,6.2768,6.2805,6.2805,6.2805,6.2805,6.2805,6.2805,6.2805,6.3062,6.3587,6.385,6.4407,6.5291,6.5291,6.5475,6.5897,6.5897,6.5897,6.5859,6.5013,6.4243,6.3551,6.2551,6.1704,6.1089,6.0858,6.0597,6.0311,6.0647,6.0365,5.9716,5.9674,5.8635,5.7149,5.677,5.614,5.5555,5.5676,5.5818,5.6203,5.7319,5.8703,6.0142,6.119,6.1523,6.1562,6.164,6.1719,6.1952,6.2584,6.2912,6.3313,6.4393,6.4488,6.4441,6.4845,6.4554,6.4059,6.368,6.4167,6.4694,6.4961,6.5017,6.537,6.6017,6.5297,6.4665,6.4665,6.39,6.3319,6.3147,6.0692,5.8754,5.7753,5.6392,5.5561,5.5376,5.4994,5.479,5.497,5.497,5.5167,5.5486,5.5188,5.4818,5.4166,5.4346,5.3138,2.8038,2.9654,3.1471,3.2382,3.4549,3.6593,3.7203,3.8789,4.0087,4.0087,4.0358,4.073,4.1136,4.2083,4.3274,4.481,4.7049,4.9571,5.2414,5.6441,5.9428,6.0309,6.1447,6.2181,6.2254,6.2585,6.2805,6.2805,6.2805,6.2805,6.2805,6.2805,6.2917,6.3215,6.3262,6.3766,6.4765,6.4765,6.4938,6.5199,6.4818,6.4627,6.4551,6.3329,6.2527,6.2069,6.1229,6.0581,6.0161,6.0161,6.0006,5.9823,6.0074,5.9855,5.9386,5.9241,5.8192,5.6861,5.6484,5.5668,5.4876,5.5287,5.5423,5.5576,5.6458,5.7819,5.9314,6.0411,6.1119,6.1523,6.1601,6.1601,6.1719,6.2187,6.2482,6.2867,6.3677,6.3903,6.3976,6.4326,6.3969,6.3454,6.3201,6.3308,6.3537,6.3844,6.4191,6.4599,6.5277,6.4855,6.451,6.451,6.3674,6.317,6.317,6.1508,5.998,5.9102,5.762,5.6703,5.6388,5.5594,5.5115,5.5179,5.5478,5.5957,5.6585,5.6915,5.6793,5.6338,5.6263,5.5281,2.7831,2.8333,2.9243,3.129,3.3435,3.5448,3.6785,3.869,4.0121,4.0223,4.0764,4.1271,4.1508,4.276,4.4198,4.5527,4.6747,4.9148,5.4005,5.7572,5.9761,6.0018,6.1361,6.2034,6.1484,6.2144,6.2622,6.2622,6.2732,6.2805,6.2805,6.2805,6.2805,6.2805,6.2805,6.3262,6.4138,6.4217,6.4256,6.4181,6.3463,6.3048,6.2859,6.1387,6.0707,6.0632,0.0,0.0,5.9389,5.9389,5.9354,5.9284,5.9354,5.9319,5.9101,5.8458,5.7632,5.677,5.5898,5.5178,5.4603,5.4914,5.5026,5.514,5.5892,5.6957,5.8103,5.9034,6.0318,6.1427,6.1477,6.1561,6.168,6.168,6.2148,6.2656,6.2773,6.3153,6.3527,6.3614,6.3138,6.2748,6.2642,6.226,6.2033,6.2384,6.3078,6.3758,6.4107,6.4237,6.4199,6.4158,6.3321,6.2789,6.2789,6.208,6.1177,6.0123,5.8782,5.7763,5.7108,5.623,5.5686,5.5601,5.6263,5.6822,5.7244,5.7842,5.8171,5.8184,5.743,5.6962,2.8996,2.9391,2.9912,3.201,3.4507,3.6799,3.8304,3.9395,4.0257,4.0899,4.1136,4.1576,4.2828,4.4316,4.5659,4.6486,4.8792,5.1489,5.4217,5.5666,5.6921,5.826,5.92,5.9979,6.0529,6.13,6.1777,6.1777,6.2438,6.2805,6.2805,6.2805,6.2805,6.2805,6.2805,6.2904,6.3062,6.3498,6.36,6.3312,6.3161,6.2746,6.2029,6.1123,6.0707,6.0632,0.0,5.9389,5.9389,5.9389,5.9139,5.8835,5.9248,5.8913,5.8282,5.8524,5.7843,5.6651,5.5508,5.5025,5.4912,5.4678,5.4579,5.4616,5.473,5.5397,5.6201,5.6774,5.8927,6.1116,6.1289,6.1442,6.1523,6.1523,6.1719,6.2031,6.2656,6.2844,6.3101,6.3681,6.3603,6.3309,6.2823,6.2615,6.2563,6.2862,6.3613,6.4278,6.4576,6.5217,6.5533,6.5124,6.4251,6.368,6.368,6.2951,6.2345,6.215,6.028,5.9023,5.855,5.8946,5.8655,5.7598,5.8245,5.8451,5.7962,5.8082,5.8411,5.8949,5.8822,5.8026,2.8343,2.9601,3.1085,3.2883,3.4774,3.6654,3.812,3.9597,4.0798,4.1136,4.1847,4.2726,4.3842,4.4959,4.635,4.8312,5.1465,5.4189,5.5704,5.7246,5.8336,5.8664,5.9383,5.9832,5.9758,6.0493,6.0933,6.0933,6.1704,6.2144,6.2144,6.2585,6.2805,6.2805,6.2805,6.2585,6.2144,6.2398,6.2419,6.2284,6.1427,6.0795,6.0422,5.9603,5.9231,5.9231,0.0,5.8632,5.8632,5.8632,5.8545,5.8332,5.8549,5.8375,5.7969,5.7759,5.7302,5.6683,5.5692,5.5332,5.5266,5.4875,5.4793,5.468,5.4268,5.4886,5.5799,5.6187,5.8092,6.0057,6.0403,6.0918,6.1412,6.1477,6.1562,6.1719,6.2109,6.2148,6.2178,6.2494,6.2454,6.2259,6.2044,6.1851,6.1704,6.1582,6.2173,6.2778,6.3118,6.3941,6.4533,6.4799,6.4166,6.3773,6.3773,6.2727,6.2062,6.1943,6.1067,5.9968,5.858,5.9686,5.9813,5.9034,6.0075,6.0371,5.9692,5.9692,5.9455,5.9099,5.9099,5.8743,2.8173,3.0042,3.2289,3.4068,3.5597,3.6987,3.8399,4.0132,4.1508,4.1677,4.276,4.391,4.4688,4.5602,4.7214,5.0149,5.3085,5.5327,5.6325,5.826,5.9286,5.8482,5.9237,5.9527,5.8713,5.9553,6.0126,6.0126,6.086,6.13,6.13,6.1924,6.2254,6.2254,6.2254,6.1961,6.13,6.1117,6.1043,6.1006,5.9795,5.9098,5.8914,5.829,5.7997,5.7997,5.7997,5.7997,5.7997,5.7997,5.7997,5.7997,5.7997,5.7997,5.7923,5.7299,5.7079,5.6923,5.5944,5.5606,5.555,5.5064,5.4892,5.4785,5.4125,5.4615,5.5428,5.566,5.6889,5.8425,5.9574,6.0441,6.1136,6.1331,6.1417,6.1475,6.1601,6.1562,6.1523,6.1523,6.1442,6.1362,6.1358,6.1196,6.086,6.0281,6.0839,6.14,6.1771,6.2349,6.3151,6.4294,6.3869,6.3499,6.3593,6.2522,6.1767,6.1485,6.1462,6.0696,5.9064,6.0498,6.0868,5.9942,6.1359,6.1758,6.0896,6.1083,6.0701,5.9757,5.9909,5.9895,2.9878,3.1476,3.3274,3.5941,3.7703,3.9158,4.0645,4.1591,4.2422,4.3132,4.391,4.4722,4.5466,4.6786,4.8745,5.1741,5.2462,5.3159,5.4575,5.6168,5.6865,5.6055,5.7275,5.7872,5.7123,5.8385,5.9318,5.9318,6.0052,6.0493,6.0493,6.0529,6.0566,6.0566,6.0566,6.0529,6.0493,5.9758,5.9391,5.9391,5.9281,5.8804,5.807,5.8033,5.7997,5.7997,5.7997,5.7997,5.7997,5.7997,5.7997,5.7997,5.7997,5.7997,5.7997,5.7923,5.7923,5.7684,5.6236,5.5663,5.5555,5.4809,5.4556,5.4508,5.4378,5.4412,5.4428,5.4092,5.4689,5.6101,5.9261,6.0214,6.0496,6.0933,6.1197,6.1344,6.1481,6.1523,6.1523,6.164,6.1562,6.1482,6.1481,6.1378,6.0973,6.0157,6.0681,6.1272,6.1492,6.1582,6.2347,6.4217,6.3653,6.3272,6.36,6.3073,6.236,6.1636,6.1554,6.1375,6.1187,6.2599,6.2411,6.0365,6.1928,6.1995,6.0707,6.1503,6.1727,6.1727,6.2396,6.1995,3.0348,3.2638,3.5136,3.7133,3.9343,4.1068,4.117,4.2489,4.3809,4.4079,4.5128,4.6316,4.7455,4.8567,5.0059,5.2599,5.3422,5.4267,5.583,5.6935,5.7498,5.718,5.7642,5.7904,5.7631,5.8113,5.8437,5.8437,5.9208,5.9648,5.9648,6.0126,6.0419,6.0419,6.0419,6.0162,5.9685,5.9355,5.8951,5.8437,5.8437,5.829,5.7997,5.7997,5.7997,5.7997,5.7997,5.7997,5.7997,5.7997,5.7997,5.7997,5.7997,5.7997,5.795,5.7498,5.7631,5.7784,5.6221,5.6044,5.6196,5.4901,5.4809,5.5036,5.3976,5.3981,5.4369,5.4211,5.4441,5.5201,5.7498,5.857,5.9177,5.9932,6.0176,6.0371,6.0864,6.0934,6.0918,6.078,6.0742,6.0547,6.0156,5.991,5.9714,5.9365,5.9504,5.9847,6.0467,6.0997,6.1787,6.2959,6.2909,6.2924,6.3272,6.3106,6.2954,6.2878,6.2041,6.133,6.0774,6.2638,6.3065,6.1741,6.3679,6.3768,6.1898,6.2281,6.1957,6.1151,6.0674,6.0147,3.099,3.3577,3.629,3.7996,4.018,4.1948,4.1914,4.347,4.4993,4.5229,4.6447,4.7878,4.9056,4.993,5.1083,5.3112,5.3866,5.4783,5.6313,5.7166,5.7546,5.7315,5.7498,5.7546,5.7315,5.7266,5.7364,5.7631,5.819,5.8567,5.8841,5.9355,5.9648,5.9648,5.9648,5.9391,5.8841,5.8841,5.8547,5.7997,5.7997,5.7997,5.7997,5.7997,5.7997,5.7997,5.7997,5.7904,5.7679,5.7904,5.7867,5.7631,5.7364,5.7266,5.7216,5.6721,5.6825,5.708,5.578,5.5724,5.6023,5.4895,5.4889,5.5134,5.3969,5.4158,5.4675,5.4164,5.4062,5.4312,5.5505,5.6668,5.7777,5.8602,5.8812,5.8912,5.9407,5.9518,5.9545,5.9521,5.9524,5.9433,5.9081,5.8925,5.873,5.8456,5.8414,5.8694,5.9473,6.0111,6.0976,6.2228,6.254,6.2756,6.3009,6.2816,6.2786,6.3027,6.216,6.1386,6.0784,6.2479,6.3165,6.2578,6.4286,6.4518,6.3049,6.3283,6.2761,6.154,6.0949,6.0486,3.2173,3.4298,3.6423,3.8606,4.0213,4.161,4.3098,4.4621,4.5906,4.665,4.8003,4.9221,4.9965,5.071,5.1677,5.3237,5.3498,5.4042,5.5504,5.6367,5.6616,5.5836,5.6421,5.6616,5.578,5.5724,5.6004,5.6861,5.6912,5.7252,5.795,5.7997,5.7997,5.7997,5.7997,5.7997,5.7997,5.7997,5.7997,5.7997,5.7997,5.7997,5.7997,5.7997,5.7997,5.7997,5.7997,5.7583,5.6964,5.7679,5.7546,5.6809,5.6004,5.5724,5.5724,5.5724,5.5688,5.561,5.4878,5.4572,5.4606,5.4606,5.4572,5.4556,5.4521,5.5027,5.531,5.3652,5.3219,5.3267,5.3267,5.4773,5.637,5.687,5.7003,5.7016,5.7154,5.7163,5.7377,5.7958,5.8086,5.8187,5.8615,5.8654,5.8382,5.7525,5.7555,5.7925,5.8626,5.8827,5.9832,6.2243,6.2675,6.2805,6.2805,6.2199,6.1805,6.1805,6.1805,6.1773,6.1606,6.2362,6.2713,6.2726,6.3441,6.3791,6.3719,6.4447,6.4339,6.3531,6.4241,6.3936,3.3603,3.6069,3.8454,4.0169,4.1654,4.3031,4.4012,4.4993,4.621,4.797,4.912,5.0017,5.0738,5.1464,5.2289,5.328,5.3914,5.4452,5.4844,5.5552,5.6204,5.651,5.6721,5.6809,5.6563,5.6563,5.6421,5.6059,5.6563,5.7015,5.7216,5.7726,5.7997,5.7997,5.7997,5.7997,5.7997,5.7997,5.7997,5.7997,5.7997,5.7997,5.7997,5.7997,5.7997,5.7997,5.7449,5.7116,5.6861,5.6527,5.6223,5.6004,5.578,5.5724,5.5667,5.5084,5.5262,5.5552,5.4264,5.4171,5.4544,5.3977,5.4171,5.4495,5.3913,5.4253,5.4545,5.2944,5.2517,5.2375,5.1892,5.2207,5.3074,5.4883,5.5686,5.6091,5.6479,5.6556,5.6547,5.6549,5.6556,5.6443,5.6066,5.6263,5.6384,5.6096,5.6388,5.7164,5.8631,5.8775,5.9524,6.1563,6.1783,6.1983,6.2544,6.2324,6.2268,6.247,6.2437,6.2296,6.2086,6.2852,6.3372,6.3526,6.4315,6.467,6.4597,6.4843,6.4498,6.3658,6.2965,6.2192,3.4929,3.7252,3.9343,4.0832,4.2083,4.3335,4.4722,4.5602,4.6684,4.8612,4.9593,5.0357,5.1062,5.2047,5.2906,5.3391,5.3862,5.4136,5.4136,5.4818,5.5437,5.5928,5.5984,5.5984,5.5984,5.5702,5.5472,5.5262,5.5724,5.6095,5.6421,5.6876,5.7266,5.7546,5.7546,5.7726,5.7997,5.7997,5.7997,5.7997,5.7997,5.7997,5.7997,5.7997,5.7997,5.795,5.6876,5.6616,5.6809,5.5414,5.4999,5.5203,5.4939,5.4818,5.4757,5.4328,5.4419,5.473,5.3849,5.3783,5.4106,5.3685,5.3783,5.4068,5.3558,5.3914,5.4221,5.2678,5.2222,5.2032,5.0943,5.0662,5.1123,5.2809,5.3736,5.429,5.4564,5.4851,5.5055,5.5063,5.5081,5.5012,5.4748,5.4943,5.5097,5.5097,5.5508,5.6559,5.8569,5.876,5.9436,6.1289,6.1373,6.15,6.2069,6.1978,6.2007,6.219,6.2042,6.1972,6.1984,6.2519,6.3267,6.4197,6.4709,6.5162,6.5554,6.5554,6.5101,6.4218,6.3477,6.2665,3.604,3.7953,3.9411,4.0764,4.1711,4.2895,4.5263,4.6278,4.7124,4.868,4.9593,5.0338,5.1082,5.2401,5.3416,5.3484,5.3518,5.3518,5.3518,5.4106,5.4544,5.4606,5.4606,5.4606,5.4606,5.3977,5.3815,5.4419,5.4544,5.4878,5.5552,5.5667,5.6004,5.6773,5.6809,5.7116,5.7867,5.7904,5.7904,5.7904,5.7904,5.7904,5.7904,5.7997,5.7914,5.7726,5.6223,5.5984,5.6403,5.4362,5.3881,5.4419,5.3783,5.3518,5.3518,5.3518,5.3518,5.3518,5.3518,5.3518,5.3518,5.3518,5.3518,5.3518,5.3518,5.3946,5.4171,5.2719,5.2269,5.1795,5.0287,4.978,4.985,5.0573,5.1408,5.2018,5.2018,5.2554,5.3115,5.353,5.3645,5.3795,5.4288,5.4387,5.4452,5.4484,5.4905,5.606,5.8319,5.8635,5.9358,6.1274,6.1363,6.1366,6.1484,6.1368,6.1317,6.1327,6.1125,6.1158,6.1458,6.1635,6.2634,6.4637,6.4748,6.5324,6.6438,6.6569,6.6089,6.5131,6.5131,6.47,3.604,3.8321,3.9918,4.0257,4.1305,4.3031,4.5906,4.6244,4.6515,4.8578,4.9593,5.0338,5.1082,5.1961,5.2773,5.3416,5.3518,5.3518,5.3518,5.3618,5.3946,5.4544,5.4606,5.4606,5.4606,5.4419,5.42,5.3783,5.4264,5.4634,5.4818,5.5379,5.578,5.5948,5.5948,5.6367,5.7116,5.7116,5.7116,5.7116,5.7116,5.7116,5.7202,5.7726,5.7364,5.6169,5.5203,5.4606,5.4171,5.3685,5.3618,5.3717,5.3551,5.3518,5.3518,5.3518,5.3518,5.3518,5.3518,5.3518,5.3518,5.3518,5.3518,5.3518,5.3518,5.3618,5.3513,5.2561,5.136,5.0126,4.9259,4.8001,4.7208,4.8155,4.9837,5.1292,5.1292,5.1444,5.1741,5.2354,5.2445,5.2704,5.3363,5.372,5.4083,5.442,5.4602,5.5521,5.7774,5.806,5.8915,6.1098,6.1318,6.1368,6.1484,6.1363,6.1349,6.1442,6.1323,6.1264,6.1328,6.1402,6.2353,6.4364,6.5041,6.5908,6.7025,6.7704,6.7376,6.6125,6.6125,6.5617,3.6554,3.8421,3.9986,4.1779,4.2523,4.3606,4.665,4.6752,4.6752,4.8612,4.9323,4.9796,5.0541,5.1555,5.2435,5.2875,5.3247,5.3518,5.3518,5.3518,5.3685,5.4042,5.4042,5.4042,5.4042,5.4042,5.3881,5.3484,5.3815,5.4042,5.4042,5.4454,5.4818,5.5144,5.5144,5.5552,5.6313,5.6313,5.6313,5.6313,5.6313,5.6313,5.6367,5.7116,5.6825,5.5667,5.4939,5.4391,5.4011,5.3685,5.3518,5.3518,5.3518,5.3518,5.3518,5.3518,5.3518,5.3518,5.3518,5.3518,5.3518,5.3518,5.3518,5.3518,5.3518,5.311,5.2564,5.1796,5.0377,4.892,4.8167,4.7071,4.6314,4.6799,4.8433,5.0063,5.05,5.0876,5.1189,5.1544,5.1593,5.1741,5.2149,5.2623,5.3138,5.3609,5.4275,5.54,5.7187,5.7739,5.8716,6.0642,6.0809,6.098,6.1379,6.1339,6.1377,6.1484,6.1381,6.134,6.1366,6.1318,6.2194,6.4114,6.4913,6.6069,6.761,6.8203,6.8136,6.7413,6.7157,6.6582,3.6956,3.843,4.002,4.3504,4.4012,4.435,4.709,4.7327,4.7361,4.8714,4.9018,4.9221,4.9965,5.1082,5.1961,5.2097,5.2773,5.3281,5.3281,5.3416,5.3518,5.3518,5.3518,5.3518,5.3518,5.3518,5.3518,5.3518,5.3518,5.3518,5.3518,5.3518,5.3783,5.4356,5.4419,5.4757,5.5495,5.5495,5.5495,5.5495,5.5495,5.5437,5.532,5.615,5.615,5.5495,5.4695,5.4419,5.4391,5.3783,5.3518,5.3518,5.3518,5.3518,5.3518,5.3518,5.3518,5.3518,5.3518,5.3348,5.3179,5.3179,5.311,5.2972,5.2972,5.2345,5.1499,5.0877,4.9539,4.802,4.732,4.6548,4.5905,4.5921,4.6941,4.8212,4.9112,4.9929,5.0573,5.0646,5.0894,5.1086,5.1086,5.1544,5.204,5.2477,5.3764,5.5172,5.6439,5.7444,5.8538,5.9996,6.015,6.043,6.105,6.1113,6.1234,6.1451,6.1355,6.1373,6.1466,6.1499,6.2313,6.4008,6.4642,6.596,6.7921,6.834,6.8601,6.8614,6.8097,6.7469,3.6498,3.843,4.0561,4.2963,4.4012,4.4857,4.6549,4.7361,4.8003,4.8849,4.9018,4.9221,4.9965,5.0236,5.0608,5.1251,5.1995,5.2469,5.2469,5.3078,5.3518,5.3518,5.3518,5.3518,5.3518,5.3518,5.3518,5.3518,5.3518,5.3518,5.3518,5.3518,5.3551,5.3685,5.3685,5.4011,5.4757,5.4757,5.4757,5.4757,5.4757,5.4419,5.3849,5.4544,5.4818,5.4695,5.3946,5.3685,5.3685,5.3551,5.3518,5.3518,5.3518,5.3518,5.3518,5.3518,5.3518,5.3518,5.3518,5.287,5.2065,5.2065,5.1557,5.0779,5.0779,5.0703,5.0595,5.053,4.9219,4.7746,4.706,4.5708,4.4625,4.4936,4.5122,4.553,4.6491,4.744,4.8283,4.8829,5.0084,5.1086,5.1086,5.1189,5.1241,5.1307,5.2582,5.4,5.5275,5.6692,5.8091,5.9375,5.9521,5.9764,6.0388,6.0426,6.0706,6.1291,6.1303,6.1381,6.1472,6.2102,6.296,6.4046,6.4564,6.5771,6.7669,6.8399,6.8906,6.919,6.866,6.832,3.6287,3.8396,4.0527,4.232,4.3369,4.4553,4.6887,4.7361,4.7631,4.8748,4.9018,4.9086,4.9424,4.983,5.0202,5.0541,5.1217,5.1691,5.1691,5.2334,5.2841,5.2841,5.3247,5.3518,5.3518,5.3518,5.3518,5.3518,5.3518,5.3518,5.3518,5.3518,5.3518,5.3518,5.3518,5.3685,5.4011,5.4388,5.4832,5.5243,5.4388,5.4054,5.4093,5.402,5.3977,5.3946,5.3685,5.3518,5.3518,5.3518,5.3518,5.3518,5.3518,5.3518,5.3518,5.3518,5.3518,5.3416,5.28,5.2312,5.1849,5.1229,5.0779,5.0397,5.0397,5.0009,4.9536,4.9536,4.8264,4.6924,4.665,4.5475,4.4308,4.4486,4.42,4.4051,4.4479,4.5746,4.7071,4.7865,4.8624,4.9325,4.9804,5.0258,5.0675,5.1129,5.2396,5.3719,5.4655,5.62,5.7508,5.8289,5.876,5.9246,5.9756,6.0026,6.0355,6.0742,6.0982,6.1203,6.1383,6.2228,6.3103,6.3904,6.5586,6.6987,6.8177,6.9183,6.9693,6.9738,6.919,6.8935,3.596,3.799,3.9884,4.1373,4.2591,4.4045,4.6515,4.6921,4.7158,4.8443,4.8714,4.8781,4.8984,4.9458,4.983,4.983,5.0439,5.0913,5.0913,5.1725,5.23,5.23,5.301,5.3518,5.3518,5.3518,5.3518,5.3518,5.3518,5.3518,5.3518,5.3518,5.3518,5.3518,5.3518,5.3585,5.3788,5.4329,5.4769,5.5141,5.4025,5.389,5.4566,5.3822,5.3619,5.3788,5.3585,5.3518,5.3518,5.3518,5.3518,5.3518,5.3518,5.3518,5.345,5.3179,5.311,5.2939,5.1849,5.1377,5.1005,5.0242,4.9852,4.9647,4.9647,4.9085,4.846,4.846,4.757,4.6531,4.6381,4.5454,4.4526,4.4347,4.3808,4.3409,4.3645,4.4856,4.6103,4.7104,4.7239,4.744,4.8161,4.8861,4.9562,5.042,5.1963,5.3344,5.4147,5.5596,5.6753,5.711,5.7794,5.8433,5.8915,5.942,5.987,6.0085,6.0495,6.094,6.1358,6.2406,6.3355,6.4128,6.6719,6.8162,6.8359,6.9477,6.9913,6.9725,6.9617,6.9437,3.5453,3.6806,3.8362,3.9851,4.1813,4.3639,4.4553,4.5805,4.7022,4.78,4.797,4.8173,4.8883,4.9052,4.9052,4.9052,4.9661,5.0135,5.0135,5.1386,5.23,5.23,5.301,5.3518,0.0,0.0,0.0,0.0,5.3518,5.3518,5.3518,5.3518,5.3518,5.3518,5.3518,5.3822,5.4532,5.4566,5.4262,5.3619,5.3551,5.389,5.4566,5.3822,5.389,5.4499,5.3788,5.3518,5.3518,5.3518,5.3518,5.3518,5.3518,5.3518,5.3348,5.2383,5.1993,5.1849,5.0855,4.9852,4.8973,4.8891,4.821,4.7452,4.7452,4.7452,4.7396,4.7396,4.7279,4.71,4.6501,4.5783,4.5095,4.4466,4.3808,4.3536,4.451,4.4812,4.5153,4.6103,4.6244,4.6314,4.6314,4.6892,4.7696,4.866,5.0658,5.2379,5.3428,5.4863,5.578,5.5801,5.6527,5.7157,5.7675,5.8354,5.899,5.9424,5.9885,6.0606,6.1565,6.2852,6.4039,6.4998,6.7718,6.863,6.7658,6.8558,6.8898,6.869,6.9844,6.9796,3.4675,3.5656,3.6806,3.8294,4.002,4.1745,4.3436,4.4621,4.5703,4.6955,4.7597,4.8003,4.8274,4.868,4.9018,4.9018,4.9221,4.939,4.939,5.027,5.1048,0.0,0.0,0.0,0.0,0.0,0.0,0.0,0.0,5.3518,5.3518,5.3518,5.3518,5.3518,5.3518,5.4093,5.531,5.4837,5.5175,5.6292,5.4397,5.4126,5.5277,5.4532,5.4329,5.4566,5.4329,5.4194,5.416,5.3687,5.3788,5.416,5.3687,5.3518,5.3348,5.2312,5.1921,5.1704,4.9977,4.9135,4.8677,4.8072,4.7624,4.7309,4.7309,4.7309,4.7309,4.7309,4.6726,4.6018,4.5785,4.4383,4.2881,4.2611,4.1843,4.142,4.2489,4.3319,4.4128,4.5153,4.53,4.5488,4.6103,4.6781,4.7493,4.8304,5.0039,5.1527,5.2335,5.3989,5.4964,5.4964,5.5667,5.6385,5.7107,5.7657,5.8275,5.8913,5.9389,6.0197,6.1409,6.2542,6.3685,6.4868,6.717,6.8388,6.8435,6.9943,7.0551,7.0268,7.0709,7.0651,3.3931,3.4675,3.5622,3.7144,3.8633,4.0189,4.1914,4.3098,4.4248,4.5737,4.6447,4.6955,4.7462,4.7936,4.8409,4.8917,4.9018,4.9018,0.0,0.0,0.0,0.0,0.0,0.0,0.0,0.0,0.0,0.0,0.0,0.0,5.3518,5.3518,5.3619,5.3856,5.4126,5.4735,5.5716,5.5446,5.5953,5.7137,5.5175,5.4905,5.6055,5.531,5.5108,5.531,5.5074,5.4972,5.4905,5.416,5.4296,5.4905,5.416,5.3617,5.3205,5.1875,5.1155,5.0595,4.8922,4.8293,4.821,4.7538,4.7309,4.7309,4.7309,4.7019,4.6726,4.7193,4.6077,4.484,4.5298,4.3539,4.1612,4.1368,4.0544,4.0059,4.0831,4.1616,4.2438,4.3524,4.3758,4.4128,4.5329,4.6103,4.6868,4.794,4.9288,5.0455,5.1312,5.2771,5.371,5.371,5.4687,5.5552,5.6095,5.6884,5.7564,5.8047,5.902,6.0075,6.1292,6.2399,6.3695,6.5317,6.7025,6.8316,6.9255,7.066,7.109,7.0539,7.112,7.1156,0.0,0.0,0.0,3.6332,3.7821,3.914,3.9918,4.1204,4.2692,4.4215,4.4519,4.4993,4.6447,4.6752,4.7225,4.8714,0.0,0.0,0.0,0.0,0.0,0.0,0.0,0.0,0.0,0.0,0.0,0.0,5.3518,5.3518,5.3518,5.3518,5.3822,5.4566,5.5344,5.5716,5.575,5.6461,5.6461,5.5784,5.575,5.6089,5.6799,5.6089,5.6122,5.6765,5.6055,5.575,5.5716,5.4938,5.5074,5.5683,5.4905,5.3975,5.2836,5.1101,4.9757,4.8708,4.7709,4.7309,4.7309,4.7309,4.7309,4.7309,4.7309,4.6344,4.5689,4.6844,4.5389,4.3693,4.4904,4.3448,4.1479,4.0818,4.0239,3.9826,3.9826,3.9826,4.0145,4.1337,4.1587,4.215,4.3924,4.4773,4.5815,4.7484,4.8376,4.9135,5.0242,5.1229,5.1849,5.1921,5.3447,5.451,5.4606,5.5984,5.6861,5.6861,5.8731,6.0236,6.1135,6.2407,6.41,6.6325,6.7362,6.8544,6.9882,7.0453,7.0238,6.9309,7.0914,7.1222,3.2374,0.0,0.0,0.0,0.0,0.0,3.9005,4.046,4.1779,4.2726,4.3369,4.4045,4.5026,4.5635,0.0,0.0,0.0,0.0,0.0,0.0,0.0,0.0,0.0,0.0,0.0,0.0,0.0,0.0,5.3518,5.3518,5.3518,5.3518,5.3822,5.4566,5.5344,5.5987,5.6494,5.6697,5.6968,5.7273,5.6224,5.6089,5.6799,5.6596,5.6596,5.6799,5.6596,5.6799,5.7171,5.5919,5.5852,5.6356,5.4762,5.3989,5.3475,5.1403,5.0237,4.9418,4.8404,4.7698,4.7309,4.7309,4.7309,4.7106,4.6255,4.5689,4.5298,4.472,4.3409,4.1879,4.0992,4.0187,3.9596,3.9495,3.8687,3.8106,3.8459,3.7952,3.7952,3.9972,4.0404,4.0943,4.2789,4.3627,4.4696,4.6425,4.7947,4.8891,4.9215,5.0165,5.108,5.1849,5.2316,5.318,5.451,5.4999,5.5437,5.6004,5.7665,5.9127,6.0259,6.18,6.3608,6.5803,6.7217,6.8373,6.9331,7.0625,7.1078,7.0623,7.0474,7.0601,3.207,3.2313,3.2577,3.3728,0.0,0.0,3.7889,3.9445,4.0933,0.0,4.2185,4.2828,4.391,0.0,0.0,0.0,0.0,0.0,0.0,0.0,0.0,0.0,0.0,0.0,0.0,5.1657,5.2063,5.2536,5.2841,5.3145,5.3484,5.3788,5.4296,5.504,5.5784,5.6528,5.7239,5.7273,5.7476,5.7881,5.7036,5.6833,5.7273,5.7273,5.7273,5.7273,5.7273,5.7223,5.7122,5.6244,5.6144,5.6337,5.4481,5.3563,5.2941,5.1371,5.0297,4.9443,4.8621,4.8027,4.7668,4.7399,4.7309,4.7019,4.5779,4.5024,4.4442,4.3693,4.2544,4.1241,3.9677,3.9044,3.8818,3.8563,3.7383,3.6574,3.7253,3.6402,3.6307,3.8649,3.9284,4.0083,4.1931,4.3197,4.4414,4.5698,4.7207,4.8126,4.8126,4.9085,4.9931,5.0518,5.1377,5.2316,5.3381,5.4195,5.4896,5.5659,5.7192,5.8718,6.0136,6.1691,6.3567,6.5782,6.7013,6.8164,6.9202,7.0729,7.1454,7.1326,7.0718,7.0699,3.2036,3.2212,3.2341,3.3085,3.4844,0.0,3.6738,3.8362,4.0087,0.0,0.0,4.1508,0.0,0.0,0.0,0.0,0.0,0.0,0.0,0.0,0.0,0.0,0.0,0.0,5.0067,5.071,5.1116,5.1217,5.1826,5.257,5.345,5.4126,5.4837,5.5683,5.6427,5.7137,5.7881,5.7881,5.7881,5.7881,5.7881,5.7881,5.7881,5.7881,5.7881,5.7881,5.7808,5.7114,5.6204,5.5936,5.5889,5.5824,5.4131,5.2828,5.194,5.1148,5.0235,4.9284,4.8716,4.8328,4.8,4.7404,4.7078,4.6638,4.5389,4.4163,4.3218,4.3122,4.2155,4.0893,3.975,3.9116,3.8591,3.7742,3.6378,3.5449,3.5886,3.4969,3.4848,3.7335,3.824,3.9349,4.1233,4.2845,4.431,4.5302,4.6344,4.7106,4.7309,4.8072,4.8677,4.8841,5.0442,5.1671,5.1921,5.3381,5.4667,5.5524,5.707,5.8721,6.0356,6.1945,6.3819,6.611,6.7021,6.8047,6.9313,7.0528,7.1199,7.1332,7.1093,7.1065,3.1833,3.1393,3.1596,3.2307,3.3288,0.0,3.6366,3.7584,3.87,0.0,4.029,4.0561,0.0,0.0,0.0,0.0,0.0,0.0,0.0,0.0,0.0,0.0,0.0,0.0,4.9965,5.0236,5.0574,5.1183,5.1352,5.2029,5.345,5.3653,5.4329,5.5683,5.6427,5.7137,5.7881,5.7881,5.7881,5.7881,5.7881,5.7881,5.7881,5.7881,5.7881,5.7881,5.6963,5.636,5.6047,5.4305,5.4052,5.4806,5.3498,5.289,5.2595,5.1547,5.0665,5.0032,4.9883,4.847,4.6708,4.6592,4.5516,4.3975,4.2738,4.2181,4.1789,4.0743,3.9365,3.8194,3.8007,3.7829,3.7202,3.5086,3.5198,3.5378,3.3538,3.2932,3.3346,3.5355,3.6746,3.8082,3.9932,4.0992,4.2438,4.5029,4.5598,4.6166,4.7193,4.7452,4.7904,4.8759,4.9135,5.0055,5.1776,5.2246,5.3071,5.4703,5.6284,5.8149,6.0391,6.1968,6.3966,6.639,6.764,6.8646,6.9313,6.8944,6.9315,7.0375,6.9771,7.0127,3.2713,3.2036,3.1732,3.1732,3.2577,0.0,0.0,3.6265,3.7652,3.8768,3.9276,3.9884,4.1001,0.0,0.0,0.0,0.0,0.0,0.0,0.0,0.0,0.0,0.0,0.0,4.9424,4.956,4.9999,5.115,5.1555,5.2266,5.345,5.4194,5.4938,5.5683,5.6765,5.7509,5.7881,5.7881,5.7881,5.7881,5.7881,5.7881,5.7881,5.7297,5.7039,5.6963,5.5889,5.5052,5.4473,5.3396,5.29,5.2812,5.2305,5.2063,5.1972,5.1386,5.102,5.069,5.0361,4.8791,4.6835,4.6547,4.5044,4.3218,4.1985,4.1119,4.0338,3.9,3.8031,3.7346,3.6595,3.6379,3.5956,3.4454,3.3989,3.3713,3.2869,3.19,3.1878,3.3696,3.5437,3.7221,3.9056,4.0409,4.1736,4.3258,4.4535,4.5598,4.6255,4.6931,4.7452,4.7988,4.8512,4.9215,5.0288,5.1177,5.245,5.4228,5.5703,5.7671,6.0294,6.2284,6.4351,6.6442,6.626,6.6755,6.7839,6.6988,6.7651,6.9663,6.9348,6.9565,3.3728,3.2848,3.2178,0.0,0.0,3.3254,0.0,0.0,0.0,0.0,0.0,0.0,0.0,0.0,0.0,0.0,0.0,0.0,0.0,0.0,0.0,0.0,0.0,0.0,0.0,4.9052,4.9763,5.1116,5.1758,5.2503,5.345,5.4769,5.5581,5.5716,5.7137,5.7881,5.7881,5.7881,5.7881,5.7881,5.7701,5.7554,5.7554,5.6393,5.5889,5.5777,5.4723,5.3742,5.29,5.2634,5.2063,5.1229,5.1229,5.1229,5.1229,5.1229,5.1229,5.1046,5.0292,4.8711,4.689,4.6092,4.4467,4.2544,4.1492,4.0567,3.9362,3.7902,3.724,3.6703,3.5288,3.4847,3.4604,3.3792,3.2662,3.189,3.2141,3.0957,3.0475,3.2389,3.4061,3.5868,3.8111,3.9955,4.1319,4.1591,4.3313,4.4748,4.5024,4.6166,4.6931,4.6931,4.7873,4.8594,4.8728,5.0532,5.2404,5.4227,5.5875,5.795,6.0636,6.2877,6.4721,6.6089,6.4757,6.4721,6.6125,6.5406,6.6499,6.9148,6.9148,6.919,3.4167,0.0,0.0,0.0,3.2273,0.0,0.0,0.0,3.6163,3.7618,0.0,0.0,0.0,0.0,0.0,0.0,0.0,0.0,0.0,0.0,0.0,0.0,0.0,0.0,0.0,4.9221,5.0304,5.115,5.1285,5.1961,5.3416,5.4262,5.5006,5.5683,5.7137,5.7881,5.7881,5.7881,5.7881,5.7881,5.6887,5.636,5.636,5.5296,5.4755,5.4755,5.3569,5.2989,5.2812,5.1819,5.1293,5.1229,5.1229,5.1229,5.1229,5.1229,5.1229,5.1011,4.9785,4.7755,4.5496,4.4145,4.2108,4.0083,3.9981,3.98,3.9362,3.7902,3.6595,3.5178,3.3733,3.3304,3.2839,3.1071,3.1277,3.1371,2.9748,2.8897,2.914,3.1461,3.2083,3.3222,3.6388,3.8654,4.0262,4.1419,4.1887,4.2447,4.3598,4.484,4.5598,4.5598,4.6697,4.7849,4.8759,5.1055,5.3226,5.5018,5.739,5.9808,6.2264,6.3966,6.4959,6.5131,6.4959,6.4959,6.5131,6.5024,6.6257,6.8567,6.8567,6.8884,0.0,0.0,0.0,0.0,0.0,0.0,3.4438,0.0,3.5284,0.0,0.0,0.0,0.0,0.0,0.0,0.0,3.87,0.0,0.0,0.0,0.0,0.0,0.0,0.0,0.0,0.0,0.0,0.0,5.1555,5.2604,5.2807,5.3957,5.4938,5.5683,5.6731,5.7476,5.7881,5.7881,5.7881,5.7881,5.6701,5.6204,5.6126,5.4389,5.3569,5.3569,5.2395,5.188,5.188,5.1386,5.1229,5.1229,5.1229,5.1229,5.1105,5.0287,5.0095,4.9873,4.8439,4.6542,4.4399,4.2346,4.0821,3.9697,3.9697,3.9129,3.8137,3.6595,3.5178,3.3642,3.2207,3.1767,3.1612,3.076,3.069,3.0569,2.9486,2.8965,2.9046,3.0299,3.1168,3.2359,3.4295,3.6778,3.8871,4.0236,4.1119,4.1789,4.235,4.3504,4.4535,4.5298,4.5869,4.6697,4.7819,4.9972,5.1826,5.3286,5.7051,6.0468,6.3127,6.3401,6.3684,6.4218,6.3757,6.3757,6.4218,6.4218,6.4994,6.6446,6.6446,6.6583,3.8599,0.0,0.0,0.0,0.0,0.0,0.0,0.0,0.0,0.0,0.0,0.0,0.0,0.0,0.0,0.0,0.0,3.7956,0.0,0.0,0.0,0.0,0.0,0.0,0.0,0.0,0.0,0.0,0.0,5.2706,5.2334,5.3551,5.4634,5.5378,5.6325,5.707,5.7577,5.7453,5.7446,5.7372,5.5968,5.5296,5.5215,5.3309,5.2395,5.2395,5.1542,5.1229,5.1229,5.1229,5.1229,5.1229,5.1229,5.1011,5.0508,4.9582,4.9161,4.8964,4.7094,4.5179,4.3073,4.1119,3.9915,3.9129,3.9129,3.8031,3.6595,3.5068,3.3957,3.2758,3.1325,3.0898,3.0898,3.0898,3.0527,3.0078,2.9668,2.9219,2.9043,2.9492,3.0419,3.1567,3.291,3.5595,3.7902,3.8921,4.0236,4.1119,4.1119,4.2315,4.3601,4.4748,4.5522,4.6392,4.776,4.9975,5.2001,5.3684,5.7238,6.0373,6.2761,6.2279,6.2201,6.2871,6.2201,6.2088,6.2343,6.2343,6.2809,6.3832,6.4629,6.4999,0.0,0.0,0.0,3.6941,0.0,0.0,0.0,0.0,3.6705,0.0,0.0,0.0,0.0,0.0,0.0,0.0,0.0,0.0,0.0,0.0,0.0,0.0,0.0,0.0,0.0,0.0,0.0,0.0,5.0405,0.0,5.2266,5.3078,5.3856,5.46,5.6055,5.6799,5.6833,5.6445,5.6282,5.6204,5.4052,5.2989,5.2989,5.1819,5.1199,5.1199,5.1229,5.1229,5.1229,5.1229,5.1229,5.1229,5.1229,5.0383,4.9259,4.9259,4.9161,4.8837,4.6083,4.3484,4.1279,4.0701,3.9128,3.7583,3.7583,3.6487,3.5068,3.3642,3.3191,3.2758,3.1325,3.0898,3.0898,3.0898,3.0527,3.0078,2.9668,2.9219,2.9043,2.9492,2.9682,3.0386,3.2684,3.5595,3.7477,3.7583,3.8792,3.98,3.98,4.131,4.2698,4.3464,4.5704,4.7701,4.9104,5.2091,5.5211,5.8435,5.8716,5.9402,6.067,6.067,6.067,6.067,6.067,6.0075,5.8992,5.8992,5.9577,6.0804,6.369,6.4999,0.0,0.0,4.1271,4.002,0.0,0.0,0.0,0.0,0.0,0.0,0.0,0.0,0.0,0.0,0.0,0.0,0.0,0.0,0.0,0.0,0.0,0.0,0.0,4.2049,0.0,0.0,0.0,0.0,4.9086,0.0,5.0811,5.2029,5.3078,5.3856,5.4837,5.5581,5.6089,5.5638,5.5512,5.5435,5.3745,5.29,5.29,5.1727,5.1229,5.1229,5.1229,5.1229,5.1229,5.1229,5.0698,4.9873,4.9873,4.9063,4.7808,4.7808,4.7197,4.6188,4.4318,4.2671,4.1304,4.1128,3.9423,3.7477,3.7477,3.5813,3.3733,3.3304,3.2416,3.1556,3.0995,3.0898,3.0898,3.0898,3.0762,3.0449,2.9726,2.9453,2.9394,2.9551,2.957,3.0069,3.1397,3.3304,3.5266,3.724,3.7902,3.8582,3.9569,4.0565,4.1518,4.2671,4.3841,4.5663,4.837,5.1618,5.4663,5.7433,5.7621,5.8177,5.9346,5.9434,5.9434,5.9434,5.9434,5.917,5.8812,5.8812,5.8992,5.9434,6.0472,6.1341,4.3369,4.347,0.0,4.1982,4.1948,0.0,4.1068,0.0,3.9783,0.0,0.0,0.0,0.0,0.0,0.0,0.0,0.0,0.0,0.0,3.7043,0.0,0.0,3.9242,4.0629,4.117,4.3436,4.5128,4.5669,4.7936,4.9424,0.0,0.0,5.2266,5.3044,5.3751,5.4246,5.4749,5.4011,5.3631,5.3631,5.2449,5.1968,5.1878,5.1452,5.1229,5.1229,5.1229,5.1229,5.1229,5.1229,5.0383,4.9161,4.9161,4.8038,4.637,4.637,4.5449,4.4209,4.3295,4.2027,4.0794,4.0597,3.8561,3.615,3.5991,3.4292,3.2342,3.2506,3.1772,3.0918,3.1074,3.0996,3.0898,3.0898,3.0898,3.0644,2.9766,2.957,2.9609,2.9766,2.9668,2.9902,3.0937,3.1892,3.3266,3.5617,3.6975,3.8011,3.8816,4.0184,4.1432,4.2312,4.3229,4.5272,4.8936,5.1608,5.4062,5.6189,5.6347,5.6896,5.8085,5.8177,5.8177,5.8177,5.8177,5.7993,5.7559,5.7559,5.7714,5.8177,5.7714,5.8177]},{"header":{"parameterUnit":"m.s-1","parameterCategory":1,"la1":30.6,"la2":29.2853,"lo1":-89.7004,"lo2":-87.6739,"dx":0.0162,"dy":0.0183,"nx":112,"ny":82,"refTime":"2022-12-19T06:00:00:Z","depth":0,"parameterNumber":3,"parameterNumberName":"V-component_of_WINDS"},"data":[0.0,0.0,0.0,0.0,0.0,0.0,0.0,0.0,0.0,0.0,0.0,0.0,0.0,0.0,0.0,0.0,0.0,0.0,0.0,0.0,0.0,0.0,0.0,0.0,0.0,0.0,0.0,0.0,0.0,0.0,0.0,0.0,0.0,0.0,0.0,0.0,0.0,0.0,0.0,0.0,0.0,0.0,0.0,0.0,0.0,0.0,0.0,0.0,0.0,0.0,0.0,0.0,0.0,0.0,0.0,0.0,0.0,0.0,0.0,0.0,0.0,0.0,0.0,0.0,0.0,0.0,0.0,0.0,0.0,0.0,0.0,0.0,0.0,0.0,0.0,0.0,0.0,0.0,0.0,0.0,0.0,0.0,0.0,0.0,0.0,0.0,0.0,0.0,0.0,0.0,0.0,2.3732,2.5301,2.6283,2.6357,2.7079,2.7063,2.6003,0.0,0.0,0.0,0.0,0.0,0.0,0.0,0.0,0.0,0.0,0.0,0.0,0.0,0.0,0.0,0.0,0.0,0.0,0.0,0.0,0.0,0.0,0.0,0.0,0.0,0.0,0.0,0.0,0.0,0.0,0.0,0.0,0.0,0.0,0.0,0.0,0.0,0.0,0.0,0.0,0.0,0.0,0.0,0.0,0.0,0.0,0.0,0.0,0.0,0.0,0.0,0.0,0.0,0.0,0.0,0.0,0.0,0.0,0.0,0.0,0.0,0.0,0.0,0.0,0.0,0.0,0.0,0.0,0.0,0.0,0.0,0.0,0.0,0.0,0.0,0.0,0.0,0.0,0.0,0.0,0.0,0.0,0.0,0.0,0.0,0.0,0.0,0.0,0.0,0.0,0.0,0.0,0.0,0.0,0.0,0.0,0.0,0.0,0.0,0.0,0.0,0.0,0.0,0.0,2.0937,2.3772,2.48,2.5397,2.5683,2.6342,2.6867,2.734,0.0,0.0,0.0,0.0,0.0,0.0,0.0,0.0,0.0,0.0,0.0,0.0,0.0,0.0,0.0,0.0,0.0,0.0,0.0,0.0,0.0,0.0,0.0,0.0,0.0,0.0,0.0,0.0,0.0,0.0,0.0,0.0,0.0,0.0,0.0,0.0,0.0,0.0,0.0,0.0,0.0,0.0,0.0,0.0,0.0,0.0,0.0,0.0,0.0,0.0,0.0,0.0,0.0,0.0,0.0,0.0,0.0,0.0,0.0,0.0,0.0,0.0,0.0,0.0,0.0,0.0,0.0,0.0,0.0,0.0,0.0,0.0,0.0,0.0,0.0,0.0,0.0,0.0,0.0,0.0,0.0,0.0,0.0,0.0,0.0,0.0,0.0,0.0,0.0,0.0,0.0,0.0,0.0,0.0,0.0,0.0,0.0,0.0,0.0,0.0,0.0,0.0,0.0,2.0151,2.1761,2.3949,2.5136,2.5775,2.563,2.6721,2.7303,2.7079,2.73,0.0,0.0,0.0,0.0,0.0,0.0,0.0,0.0,0.0,0.0,0.0,0.0,0.0,0.0,0.0,0.0,0.0,0.0,0.0,0.0,0.0,0.0,0.0,0.0,0.0,0.0,0.0,0.0,0.0,0.0,0.0,0.0,0.0,0.0,0.0,0.0,0.0,0.0,0.0,0.0,0.0,0.0,0.0,0.0,0.0,0.0,0.0,0.0,0.0,0.0,0.0,0.0,0.0,0.0,0.0,0.0,0.0,0.0,0.0,0.0,0.0,0.0,0.0,0.0,0.0,0.0,0.0,0.0,0.0,0.0,0.0,0.0,0.0,0.0,0.0,0.0,0.0,0.0,0.0,0.0,0.0,0.0,0.0,0.0,0.0,0.0,0.0,0.0,0.0,0.0,0.0,0.0,0.0,0.0,0.0,0.0,0.0,0.0,0.0,0.0,0.0,0.0,2.1492,2.2688,2.3886,2.5318,2.6141,2.6009,2.7311,2.7695,2.6716,2.6869,0.0,0.0,0.0,0.0,0.0,0.0,0.0,0.0,0.0,0.0,0.0,0.0,0.0,0.0,0.0,0.0,0.0,0.0,0.0,0.0,0.0,0.0,0.0,0.0,0.0,0.0,0.0,0.0,0.0,0.0,0.0,0.0,0.0,0.0,0.0,0.0,0.0,0.0,0.0,0.0,0.0,0.0,0.0,0.0,0.0,0.0,0.0,0.0,0.0,0.0,0.0,0.0,0.0,0.0,0.0,0.0,0.0,0.0,0.0,0.0,0.0,0.0,0.0,0.0,0.0,0.0,0.0,0.0,0.0,0.0,0.0,0.0,0.0,0.0,0.0,0.0,0.0,0.0,0.0,0.0,0.0,0.0,0.0,0.0,0.0,0.0,0.0,0.0,0.0,0.0,0.0,0.0,0.0,0.0,0.0,0.0,0.0,0.0,0.0,0.0,0.0,0.0,1.9765,2.183,2.3398,2.4491,2.5629,2.7079,2.7754,2.7846,2.7268,2.7511,0.0,0.0,0.0,0.0,0.0,0.0,0.0,0.0,0.0,0.0,0.0,0.0,0.0,0.0,0.0,0.0,0.0,0.0,0.0,0.0,0.0,0.0,0.0,0.0,0.0,0.0,0.0,0.0,0.0,0.0,0.0,0.0,0.0,0.0,0.0,0.0,0.0,0.0,0.0,0.0,0.0,0.0,0.0,0.0,0.0,0.0,0.0,0.0,0.0,0.0,0.0,0.0,0.0,0.0,0.0,0.0,0.0,0.0,0.0,0.0,0.0,0.0,0.0,0.0,0.0,0.0,0.0,0.0,0.0,0.0,0.0,0.0,0.0,0.0,0.0,0.0,0.0,0.0,0.0,0.0,0.0,0.0,0.0,0.0,0.0,0.0,0.0,0.0,0.0,0.0,0.0,0.0,0.0,0.0,0.0,0.0,0.0,0.0,0.0,0.0,0.0,0.0,1.9721,2.2089,0.0,2.552,2.7191,2.7775,2.8614,2.8775,2.7846,0.0,0.0,0.0,0.0,0.0,0.0,0.0,0.0,0.0,0.0,0.0,0.0,0.0,0.0,0.0,0.0,0.0,0.0,0.0,0.0,0.0,0.0,0.0,0.0,0.0,0.0,0.0,0.0,0.0,0.0,0.0,0.0,0.0,0.0,0.0,0.0,0.0,0.0,0.0,0.0,0.0,0.0,0.0,0.0,0.0,0.0,0.0,0.0,0.0,0.0,0.0,0.0,0.0,0.0,0.0,0.0,0.0,0.0,0.0,0.0,0.0,0.0,0.0,0.0,0.0,0.0,0.0,0.0,0.0,0.0,0.0,0.0,0.0,0.0,0.0,0.0,0.0,0.0,0.0,0.0,0.0,0.0,0.0,0.0,0.0,0.0,0.0,0.0,0.0,0.0,0.0,0.0,0.0,0.0,0.0,0.0,0.0,0.0,0.0,0.0,0.0,0.0,1.7116,2.0098,2.2569,0.0,2.6363,2.8058,2.8715,2.9573,2.9654,2.8699,0.0,0.0,0.0,0.0,0.0,0.0,0.0,0.0,0.0,0.0,0.0,0.0,0.0,0.0,0.0,0.0,0.0,0.0,0.0,0.0,0.0,0.0,0.0,0.0,0.0,0.0,0.0,0.0,0.0,0.0,0.0,0.0,0.0,0.0,0.0,0.0,0.0,0.0,0.0,0.0,0.0,0.0,0.0,0.0,0.0,0.0,0.0,0.0,0.0,0.0,0.0,0.0,0.0,0.0,0.0,0.0,0.0,0.0,0.0,0.0,0.0,0.0,0.0,0.0,0.0,0.0,0.0,0.0,0.0,0.0,0.0,0.0,0.0,0.0,0.0,0.0,0.0,0.0,0.0,0.0,0.0,0.0,0.0,0.0,0.0,0.0,0.0,0.0,0.0,0.0,0.0,0.0,0.0,0.0,0.0,0.0,0.0,0.0,0.0,0.0,0.0,0.0,1.7963,2.0679,2.3262,2.5242,2.654,2.814,3.0083,3.0474,3.0382,0.0,0.0,0.0,0.0,0.0,0.0,0.0,0.0,0.0,0.0,0.0,0.0,0.0,0.0,0.0,0.0,0.0,0.0,0.0,0.0,0.0,0.0,0.0,0.0,0.0,0.0,0.0,0.0,0.0,0.0,0.0,0.0,0.0,0.0,0.0,0.0,0.0,0.0,0.0,0.0,0.0,0.0,0.0,0.0,0.0,0.0,0.0,0.0,0.0,0.0,0.0,0.0,0.0,0.0,0.0,0.0,0.0,0.0,0.0,0.0,0.0,0.0,0.0,0.0,0.0,0.0,0.0,0.0,0.0,0.0,0.0,0.0,0.0,0.0,0.0,0.0,0.0,0.0,0.0,0.0,0.0,0.0,0.0,0.0,0.0,0.0,0.0,0.0,0.0,0.0,0.0,0.0,0.0,0.0,0.0,0.0,0.0,0.0,0.0,0.0,0.0,0.0,0.0,1.8329,2.1731,2.4955,2.7107,2.7766,2.9206,3.2031,3.1077,3.0299,3.0353,0.0,0.0,0.0,0.0,0.0,0.0,0.0,0.0,0.0,0.0,0.0,0.0,0.0,0.0,0.0,0.0,0.0,0.0,0.0,0.0,0.0,0.0,0.0,0.0,0.0,0.0,0.0,0.0,0.0,0.0,0.0,0.0,0.0,0.0,0.0,0.0,0.0,0.0,0.0,0.0,0.0,0.0,0.0,0.0,0.0,0.0,0.0,0.0,0.0,0.0,0.0,0.0,0.0,0.0,0.0,0.0,0.0,0.0,0.0,0.0,0.0,0.0,0.0,0.0,0.0,0.0,0.0,0.0,0.0,0.0,0.0,0.0,0.0,0.0,0.0,0.0,0.0,0.0,0.0,0.0,0.0,0.0,0.0,0.0,0.0,0.0,0.0,0.0,0.0,0.0,0.0,0.0,0.0,0.0,0.0,0.0,0.0,0.0,0.0,0.0,0.0,0.0,1.8816,2.2233,2.5331,2.7183,2.8444,2.9988,3.2285,3.1761,3.1479,3.1555,0.0,0.0,0.0,0.0,0.0,0.0,0.0,0.0,0.0,0.0,0.0,0.0,0.0,0.0,0.0,0.0,0.0,0.0,0.0,0.0,0.0,0.0,0.0,0.0,0.0,0.0,0.0,0.0,0.0,0.0,0.0,0.0,0.0,0.0,0.0,0.0,0.0,0.0,0.0,0.0,0.0,0.0,0.0,0.0,0.0,0.0,0.0,0.0,0.0,0.0,0.0,0.0,0.0,0.0,0.0,0.0,0.0,0.0,0.0,0.0,0.0,0.0,0.0,0.0,0.0,0.0,0.0,0.0,0.0,0.0,0.0,0.0,0.0,0.0,0.0,0.0,0.0,0.0,0.0,0.0,0.0,0.0,0.0,0.0,0.0,0.0,0.0,0.0,0.0,0.0,0.0,0.0,0.0,0.0,0.0,0.0,0.0,0.0,0.0,0.0,0.0,0.0,1.9601,2.2464,2.5153,2.6804,2.8903,3.065,3.1886,3.2683,3.3158,3.3093,0.0,0.0,0.0,0.0,0.0,0.0,0.0,0.0,0.0,0.0,0.0,0.0,0.0,0.0,0.0,0.0,0.0,0.0,0.0,0.0,0.0,0.0,0.0,0.0,0.0,0.0,0.0,0.0,0.0,0.0,0.0,0.0,0.0,0.0,0.0,0.0,0.0,0.0,0.0,0.0,0.0,0.0,0.0,0.0,0.0,0.0,0.0,0.0,0.0,0.0,0.0,0.0,0.0,0.0,0.0,0.0,0.0,0.0,0.0,0.0,-0.7629,0.0,0.0,0.0,0.0,0.0,0.0,0.0,0.0,0.0,0.0,0.0,0.0,0.0,0.0,0.0,0.0,0.0,0.0,0.0,0.0,0.0,0.0,0.0,0.0,0.0,0.0,0.0,0.0,0.0,0.0,0.0,0.0,0.0,0.0,0.0,0.0,0.0,0.0,0.0,0.0,0.0,2.1856,2.407,2.6915,3.0765,3.0335,3.135,3.5015,3.4193,3.3314,3.3057,3.2641,0.0,0.0,0.0,0.0,0.0,0.0,0.0,0.0,0.0,0.0,0.0,0.0,0.0,0.0,0.0,0.0,0.0,0.0,0.0,0.0,0.0,0.0,0.0,0.0,0.0,0.0,0.0,0.0,0.0,0.0,0.0,0.0,0.0,0.0,0.0,0.0,0.0,0.0,0.0,0.0,0.0,0.0,0.0,0.0,0.0,0.0,0.0,0.0,0.0,0.0,0.0,0.0,0.0,0.0,0.0,0.0,0.0,0.0,0.0,0.0,-0.7293,0.0,0.0,0.0,0.0,0.0,0.0,0.0,0.0,0.0,0.0,0.0,0.0,0.0,0.0,0.0,0.0,0.0,0.0,0.0,0.0,0.0,0.0,0.0,0.0,0.0,0.0,0.0,0.0,0.0,0.0,0.0,0.0,0.0,0.0,0.0,0.0,0.0,0.0,0.0,0.0,2.2862,2.4811,2.7481,3.1142,3.1418,3.2622,3.56,3.5233,3.4662,3.4234,3.352,0.0,0.0,0.0,0.0,0.0,0.0,0.0,0.0,0.0,0.0,0.0,0.0,0.0,0.0,0.0,0.0,0.0,0.0,0.0,0.0,0.0,0.0,0.0,0.0,0.0,0.0,0.0,0.0,0.0,0.0,0.0,0.0,0.0,0.0,0.0,0.0,0.0,0.0,0.0,0.0,0.0,0.0,0.0,0.0,0.0,0.0,0.0,0.0,0.0,0.0,0.0,0.0,0.0,-0.987,-0.9748,-0.9696,-0.905,-0.8543,-0.8217,-0.7053,-0.6762,-0.7121,-0.6543,0.0,0.0,0.0,0.0,0.0,0.0,0.0,0.0,0.0,0.0,0.0,0.0,0.0,0.0,0.0,0.0,0.0,0.0,0.0,0.0,0.0,0.0,0.0,0.0,1.452,1.5484,1.5003,0.0,0.0,0.0,0.0,0.0,0.0,0.0,0.0,0.0,0.0,0.0,2.368,2.5618,2.7782,3.0433,3.2257,3.3868,3.5384,3.6234,3.6383,3.573,3.4399,3.352,0.0,0.0,0.0,0.0,0.0,0.0,0.0,0.0,0.0,0.0,0.0,0.0,0.0,0.0,0.0,0.0,0.0,0.0,0.0,0.0,0.0,0.0,0.0,0.0,0.0,0.0,0.0,0.0,0.0,0.0,0.0,0.0,-1.6251,-1.6515,0.0,0.0,0.0,0.0,0.0,0.0,0.0,0.0,0.0,0.0,0.0,0.0,0.0,-1.0238,-1.0096,-0.9438,-0.9016,-0.9041,-0.8434,-0.8083,-0.8041,-0.8079,-0.6879,-0.4686,-0.4468,0.0,-0.7387,-0.5036,0.0,0.0,0.0,0.0,0.0,0.0,0.0,0.0,0.0,0.0,0.0,0.0,0.0,0.0,0.0,0.0,0.0,0.0,0.0,0.0,0.0,0.0,1.1953,1.3339,1.5143,1.6513,0.0,1.5949,1.551,1.5564,1.5658,0.0,0.0,0.0,0.0,0.0,0.0,0.0,2.5637,2.7182,2.9,3.1419,3.2831,3.453,3.6327,3.7267,3.7362,3.6332,3.6081,3.5303,3.3847,3.4004,0.0,0.0,0.0,0.0,0.0,0.0,0.0,0.0,0.0,0.0,0.0,0.0,0.0,0.0,0.0,0.0,0.0,0.0,0.0,0.0,0.0,0.0,0.0,0.0,0.0,0.0,0.0,0.0,0.0,-1.6618,-1.6333,-1.6812,-1.6071,-1.6133,0.0,0.0,0.0,0.0,0.0,0.0,0.0,0.0,0.0,-0.9437,-0.9544,-0.9383,-0.8949,-0.8653,-0.8593,-0.8682,-0.8327,-0.8173,-0.802,-0.6479,-0.5924,-0.6151,-0.4604,-0.5452,-0.7693,-0.6597,-0.4193,-0.1433,0.0,0.0,0.0,0.0,-0.6276,-0.5106,-0.3392,-0.2759,0.0,0.5359,0.0,0.0,0.0,0.0,0.0,0.0,0.0,0.0,0.0,0.0,1.3121,1.5405,1.6964,1.7956,1.7956,1.7876,1.7622,0.0,1.7272,1.8036,1.9184,0.0,0.0,0.0,0.0,2.4332,2.7117,2.7949,2.9339,3.1856,3.3355,3.4941,3.6564,3.7759,3.814,3.7337,3.6709,3.6056,3.5353,3.4372,3.3199,0.0,0.0,0.0,0.0,0.0,0.0,0.0,0.0,0.0,0.0,0.0,0.0,0.0,0.0,0.0,0.0,0.0,0.0,0.0,0.0,0.0,0.0,0.0,0.0,0.0,0.0,0.0,0.0,-1.6492,-1.6478,-1.7068,-1.6207,-1.6092,0.0,0.0,0.0,0.0,0.0,0.0,-1.1914,-1.1596,-1.06,-0.88,-0.8878,-0.8706,-0.8153,-0.8303,-0.8438,-0.854,-0.8615,-0.8615,-0.8304,-0.5435,-0.5497,-0.7772,-0.4438,-0.407,-0.5926,-0.5906,-0.3641,0.0,0.0,-0.11,-0.289,-0.4671,-0.5257,-0.4814,-0.1256,0.0971,0.2948,0.6887,0.8132,0.8083,0.798,0.0,0.0,0.0,0.0,0.8707,1.1485,1.29,1.4234,1.685,1.8374,1.9145,1.9145,1.9386,1.9265,0.0,1.8576,1.9464,2.0378,0.0,0.0,0.0,0.0,2.5953,2.8213,2.8652,2.962,3.1778,3.3437,3.4907,3.633,3.7855,3.8537,3.8266,3.7462,3.6935,3.6835,3.5198,3.4259,3.4193,0.0,0.0,0.0,0.0,0.0,0.0,0.0,0.0,0.0,0.0,0.0,0.0,0.0,0.0,0.0,0.0,0.0,0.0,0.0,0.0,0.0,0.0,0.0,0.0,0.0,0.0,0.0,0.0,0.0,-1.7009,-1.5418,0.0,0.0,0.0,0.0,-1.5462,-1.3824,-1.2326,-1.1232,-1.0218,-0.9343,-0.8323,-0.8467,-0.8549,-0.8459,-0.8615,-0.8689,-0.8703,-0.8988,-0.8911,-0.8382,-0.5689,-0.5752,-0.769,-0.2471,-0.0235,-0.0351,-0.0446,-0.0216,0.0,0.0,-0.0106,-0.0212,-0.0318,-0.0318,-0.0318,-0.0106,0.3719,0.8547,0.8806,0.8621,0.8258,0.8031,0.8126,0.0,0.0,0.8452,0.9162,1.1228,1.2917,1.4551,1.6774,1.8555,1.976,1.976,1.9987,1.992,0.0,1.8838,1.9291,2.0317,0.0,2.2323,2.4969,2.6173,2.7234,2.8649,2.959,3.0293,3.0917,3.2649,3.4354,3.5826,3.7269,3.8379,3.8792,3.8768,3.8492,3.7939,3.78,3.7532,3.7131,3.6361,0.0,0.0,0.0,0.0,0.0,0.0,0.0,0.0,0.0,0.0,0.0,0.0,0.0,0.0,0.0,0.0,0.0,0.0,0.0,0.0,0.0,0.0,0.0,0.0,0.0,0.0,0.0,0.0,-1.725,-1.5806,0.0,-1.7052,-1.503,-1.3872,-1.4583,-1.3171,-1.1785,-1.0735,-1.0272,-0.9626,-0.8547,-0.8696,-0.8818,-0.8913,-0.9062,-0.9144,-0.9144,-0.9252,-0.9258,-0.8915,-0.5889,-0.3897,-0.2716,-0.0872,0.0,0.0,0.0,0.0,0.0,0.0,0.0,0.0,0.0,0.0,0.0551,0.4863,0.7651,0.9435,0.9219,0.9033,0.8862,0.8621,0.8655,0.8743,0.8933,0.9831,1.1222,1.3096,1.5098,1.7124,1.8766,1.9916,2.0641,2.0641,2.0722,2.0655,2.0147,2.0427,2.1032,2.2022,2.3536,2.5164,2.6685,2.794,2.8971,3.0003,3.0449,3.0918,3.1641,3.3207,3.4773,3.6248,3.7715,3.8996,3.9869,3.9597,3.9145,3.8592,3.7851,3.7619,3.7817,3.7912,3.8084,0.0,0.0,0.0,0.0,0.0,0.0,0.0,0.0,0.0,0.0,0.0,0.0,0.0,0.0,0.0,0.0,0.0,0.0,0.0,0.0,0.0,0.0,0.0,0.0,0.0,0.0,-1.6244,-1.718,-1.612,-1.5483,-1.6115,-1.4638,-1.3636,-1.3568,-1.2312,-1.1218,-1.0615,-1.0214,-0.9689,-0.8933,-0.9035,-0.9137,-0.9225,-0.9381,-0.9483,-0.953,-0.9591,-0.9593,-0.9406,-0.7266,-0.3928,0.0,0.0,0.0,0.0,0.0,0.0,0.0,0.0,0.0,0.0,0.0,0.0,0.057,0.5032,0.7914,0.9752,0.9483,0.9342,0.9216,0.9089,0.9089,0.9144,0.9388,1.0763,1.2516,1.4471,1.663,1.8653,2.027,2.1056,2.1403,2.1403,2.1403,2.1349,2.1162,2.1271,2.1814,2.2736,2.4842,2.6725,2.7957,2.96,3.0879,3.1465,3.166,3.2012,3.2734,3.3739,3.5134,3.725,3.8297,3.9593,4.1272,4.1003,4.0761,4.0671,3.9373,3.9056,4.0121,4.0101,4.029,4.0695,0.0,0.0,0.0,0.0,0.0,0.0,0.0,0.0,0.0,0.0,0.0,0.0,0.0,0.0,0.0,0.0,0.0,0.0,0.0,0.0,0.0,0.0,0.0,-1.7883,-1.7195,-1.6566,-1.6723,-1.622,-1.5493,-1.4523,-1.4468,-1.3857,-1.2442,-1.1442,-1.0899,-1.0899,-0.9894,-0.9388,-0.9395,-0.9395,-0.9401,-0.9408,-0.9557,-0.9707,-0.9842,-0.9771,-0.981,-0.9845,-0.9745,-0.6209,0.0,0.0,0.0,0.0,0.0,0.0,0.0,0.0,0.0,0.0,0.0,0.0,0.0,0.0118,0.4369,0.9717,0.9842,0.9683,0.9408,0.9415,0.9415,0.9449,0.9605,1.1056,1.2933,1.5062,1.7141,1.9237,2.1096,2.1777,2.1991,2.1991,2.1991,2.1991,2.1991,2.1296,2.1231,2.2587,2.4731,2.6745,2.8444,3.0963,0.0,3.2812,3.3164,3.3594,3.4043,3.4211,3.5448,3.862,3.8985,4.0101,4.2812,4.3011,4.3373,4.423,4.2358,4.2398,4.4346,4.3121,4.2524,4.2521,0.0,0.0,0.0,0.0,0.0,0.0,0.0,0.0,0.0,0.0,0.0,0.0,0.0,0.0,0.0,0.0,0.0,0.0,0.0,0.0,0.0,-1.7851,-1.7086,-1.7621,-1.669,-1.5846,-1.5256,-1.5901,-1.567,-1.3572,-1.3402,-1.2999,-1.1886,-1.0552,-0.9817,-0.9817,-0.9564,-0.9483,-0.9693,-0.97,-0.9808,-1.0032,-1.0175,-1.0149,-1.0082,-1.0227,-1.0077,-0.9763,-0.9771,-0.6258,0.0,0.0,0.0,0.0,0.0,0.0,0.0,0.0,0.0,0.0,0.0,0.0,0.0383,0.3062,0.5066,0.7031,0.9424,1.017,1.0053,1.0154,1.0188,1.0243,1.0507,1.28,1.5475,1.6146,1.8696,2.1228,2.1713,2.1924,2.1991,2.1991,2.1991,2.1991,2.1991,2.2804,2.3603,2.4022,2.5659,2.7402,2.9151,3.1077,0.0,3.3164,3.334,3.3711,3.4453,3.5638,3.7255,3.9254,4.06,4.1994,4.3501,4.3589,4.3959,4.4944,4.4439,4.4904,4.6557,4.6663,4.6426,0.0,0.0,0.0,0.0,0.0,0.0,0.0,0.0,0.0,0.0,0.0,0.0,0.0,0.0,0.0,0.0,0.0,0.0,0.0,0.0,0.0,0.0,-1.7702,-1.6971,-1.7272,-1.6648,-1.5815,-1.4918,-1.5609,-1.5071,-1.2616,-1.233,-1.1871,-1.0732,-0.9959,-0.9564,-0.9564,-0.9686,-0.9863,-1.0093,-1.01,-1.0215,-1.046,-1.0548,-1.0498,-1.0319,-0.8767,-0.885,-1.006,-0.71,-0.3636,0.0,0.0,0.0,0.0,0.0,0.0,0.0,0.0,0.0,0.0,0.0,0.2008,0.5189,0.7318,0.7923,0.8117,0.9954,1.0603,1.048,1.0561,1.0588,1.0636,1.088,1.3604,1.643,1.653,1.9358,2.2164,2.2164,2.2258,2.2352,2.2352,2.2352,2.2352,2.2352,2.3776,0.0,2.5981,2.7404,2.9098,3.0742,3.2229,3.3398,3.3887,3.4277,3.4707,3.5195,3.6759,3.8552,4.0204,4.1947,0.0,0.0,0.0,4.6204,4.7083,4.7452,0.0,0.0,0.0,0.0,0.0,0.0,0.0,0.0,4.4322,4.4213,0.0,0.0,0.0,0.0,0.0,0.0,0.0,0.0,0.0,0.0,0.0,0.0,0.0,0.0,0.0,0.0,-1.7384,-1.6259,-1.7088,-1.7007,-1.642,-1.5411,-1.5493,-1.4494,-1.1765,-1.1684,-1.1125,-0.9545,-0.9707,-0.9869,-0.9869,0.0,0.0,0.0,0.0,-1.0616,-1.0765,-1.0785,-1.0739,-1.0756,-0.6889,-0.6537,-0.9344,-0.2852,0.0,0.0,0.0,0.0,0.0,0.0,0.0,0.0,0.0,0.0,0.0,0.0,0.4891,1.1617,1.161,0.0,0.0,1.108,1.0925,1.0772,1.0792,1.0799,1.0826,1.0982,1.3427,1.6275,1.6611,1.9399,2.2189,2.2472,2.2672,2.2859,2.2859,2.2859,2.2859,2.2859,2.4317,2.6039,2.79,2.9456,3.1043,3.2661,3.3906,3.4668,3.4766,3.5469,3.5976,3.6268,0.0,0.0,4.1309,4.3083,4.462,4.618,4.786,4.918,5.0265,5.1052,5.1222,5.0672,5.0006,4.9911,5.0571,5.0002,4.9794,4.9915,4.8528,4.7563,0.0,0.0,0.0,0.0,0.0,0.0,0.0,0.0,0.0,0.0,0.0,0.0,0.0,0.0,0.0,-1.9298,-1.7955,-1.7034,-1.7435,-1.7662,-1.7274,-1.5946,-1.7039,-1.6287,-1.232,-1.3036,-1.2633,-0.9961,-1.0019,-1.0195,-1.0195,-1.0473,-1.0704,-1.0853,-1.086,-1.0928,-1.1077,-1.1199,-1.1161,-1.1094,0.0,0.0,-0.2028,-0.0581,0.0,0.0,0.0,0.0,0.0,0.0,0.0,0.0,0.0,0.0,0.0,0.0,0.4855,1.1671,1.165,1.1399,1.1262,1.1234,1.1084,1.1097,1.1226,1.126,0.0,1.145,1.302,1.5113,1.6688,1.8827,2.0958,2.2493,2.2819,2.2859,2.2859,2.2859,2.2859,2.2859,2.4317,2.6039,2.79,2.9535,3.1433,3.3495,3.4043,3.4453,3.5176,3.541,3.6162,3.7914,3.9627,4.1437,4.3083,4.4767,4.5914,4.6301,4.8851,5.0878,5.2337,5.3143,5.3525,5.3407,5.2723,5.2532,5.2606,5.2486,5.2967,5.3836,5.2282,5.1257,0.0,0.0,0.0,0.0,0.0,0.0,0.0,0.0,0.0,0.0,0.0,-2.3597,-2.3264,0.0,-1.9997,-2.0178,-1.8555,-1.7475,-1.7769,-1.8196,-1.7909,-1.6422,-1.6304,-1.5221,-1.2403,-1.2242,-1.167,-1.017,-1.0399,-1.0616,-1.0616,-1.0826,-1.1009,-1.1165,-1.1172,-1.124,-1.1389,-1.1463,-1.1525,-1.1422,-0.7535,-0.3778,0.0,0.0,0.0,0.0,0.0,0.0,0.0,0.0,0.0,0.0,0.0,0.0,0.0,0.0,0.2468,0.635,1.0275,1.1525,1.143,1.1402,1.1389,1.1402,1.1484,1.1504,1.1518,1.1599,1.2888,1.4858,1.6685,1.8648,2.0617,2.2435,2.2859,2.2859,2.2859,2.2859,2.2859,2.2859,2.4317,2.6039,2.79,2.9605,3.158,3.3747,3.4258,3.4629,3.5312,3.5586,3.6166,3.7153,3.9627,4.1565,4.2328,4.4767,4.6968,4.839,4.9932,5.1699,5.3964,5.4119,5.4221,5.4221,5.3533,5.3174,5.3174,5.3819,5.4357,5.4946,5.5229,5.4888,0.0,0.0,0.0,0.0,0.0,0.0,0.0,-2.4957,-2.5496,-2.3675,-2.3865,-2.4222,-2.3555,-2.2204,-2.1176,-2.1065,-1.945,-1.817,-1.817,-1.8624,-1.849,-1.7304,-1.602,-1.4585,-1.2906,-1.1892,-1.1089,-1.0365,-1.0751,-1.0989,-1.0989,-1.1158,-1.1307,-1.143,-1.1436,-1.1497,-1.1619,-1.1619,-1.1633,-1.1509,-0.8435,-0.4504,0.0,0.0,0.0,0.0,0.0,0.0,0.0,0.0,0.0,0.0,0.0,0.0,0.0,0.0,0.0,0.1017,0.8015,1.0945,1.1653,1.1626,1.1619,1.1619,1.1619,1.1619,1.1619,1.1619,1.2745,1.4432,1.6685,1.8369,2.0051,2.2297,2.2859,2.2859,2.2859,2.2859,2.2859,2.2859,2.406,2.5517,2.737,2.9083,3.1174,3.3747,3.4355,3.4766,3.5332,3.5684,3.6189,3.6924,3.9497,4.1437,4.2074,4.4767,4.7365,4.9993,5.0298,5.1689,5.4256,5.4182,5.4012,5.4012,5.3473,5.3174,5.3174,5.4357,5.4977,5.5312,5.7352,5.756,-2.6367,-2.6015,-2.5222,-2.4326,-2.4534,-2.4425,0.0,-2.3268,-2.4096,-2.3342,-2.3555,-2.4008,-2.4199,-2.3802,-2.2962,-2.1677,-2.0814,-1.9975,-1.9009,-1.8878,-1.9004,-1.9391,-1.922,-1.7985,-1.5032,-1.478,-1.3722,-1.092,-1.0962,-1.1138,-1.1138,-1.1409,-1.1572,-1.1592,-1.1592,-1.1599,-1.1619,-1.1619,-1.1633,-1.1653,-1.1096,-0.7131,0.0,0.0,0.0,0.0,0.0,0.0,0.0,0.0,0.0,0.0,0.0,0.0,0.0,0.0,0.0,0.0581,0.4939,0.8724,1.1653,1.1626,1.1619,1.1619,1.1619,1.1619,1.1619,1.1619,1.1763,1.2745,1.6272,1.7398,1.8369,2.2022,2.2859,2.2859,2.2859,2.2859,2.2859,2.2859,2.2996,2.3788,2.5517,2.7238,2.9743,3.3469,3.4121,3.4453,3.5293,3.543,3.6749,4.0234,4.0924,4.2454,4.5403,4.6059,4.6764,4.7906,4.9144,5.0309,5.1497,5.2704,5.3294,5.3294,5.3204,5.3174,5.3174,5.4357,5.5493,5.6527,5.772,5.815,-2.5159,-2.5233,-2.4912,-2.3566,-2.4048,-2.4449,-2.3256,-2.4176,-2.4959,-2.4117,-2.3575,-2.3504,-2.3818,-2.2633,-2.1418,-2.0997,-2.0164,-1.9431,-1.9018,-1.9225,-1.9533,-1.9773,-2.0254,-1.9658,-1.7202,-1.5495,-1.4095,-1.2712,-1.1949,-1.143,-1.143,-1.1552,-1.1619,-1.1619,-1.1619,-1.1619,-1.1619,-1.1619,-1.1626,-1.1633,-1.1623,-0.8664,-0.3341,-0.1036,0.0,0.0,0.0,0.0,0.0,0.0,0.0,0.0,0.0,0.0,0.0,0.0,0.0,0.0291,0.1889,0.6395,1.1536,1.1647,1.1626,1.1619,1.1619,1.1619,1.1619,1.1619,1.1619,1.218,1.4858,1.6404,1.7949,2.0617,2.216,2.2859,2.2859,2.2859,2.2859,2.2859,2.2859,2.3393,2.5248,2.6972,2.9134,3.1801,3.3244,3.4394,3.5273,3.5391,3.6841,4.0751,4.1181,4.258,4.6059,4.6024,4.6707,4.8757,4.9036,5.0122,5.2229,5.2494,5.2606,5.2606,5.2247,5.2037,5.2037,5.3858,5.4624,5.4536,5.6286,5.7094,-2.5113,-2.5092,-2.4996,-2.3426,-2.3912,-2.4574,-2.4067,-2.4917,-2.5584,-2.4775,-2.424,-2.3914,-2.3691,-2.2498,-2.1308,-2.0704,-2.0046,-1.9508,-1.9145,-1.9533,-1.9893,-2.0134,-2.0788,-2.0808,-1.9584,-1.6655,-1.4525,-1.4164,-1.2611,-1.1619,-1.1619,-1.1619,-1.1619,-1.1619,-1.1619,-1.1619,-1.1619,-1.166,-1.1681,-1.1681,-1.159,-0.9497,-0.5696,-0.1784,0.0,0.0,0.0,0.0,0.0,0.0,0.0,0.0,0.0,0.0,0.0,0.0,0.0,0.0,0.0,0.3633,0.8744,1.0925,1.164,1.1626,1.1619,1.1619,1.1619,1.1619,1.1619,1.2043,1.3872,1.5416,1.7107,1.9495,2.117,2.2297,2.2722,2.2859,2.2859,2.2859,2.2859,2.3393,2.5248,2.6972,2.8821,3.0513,3.2611,3.4219,3.5078,3.6302,3.8109,4.0879,4.2074,4.3559,4.5835,4.5723,4.6437,4.849,4.8676,4.9634,5.1994,5.1965,5.1917,5.1917,5.1468,5.1229,5.1229,5.3483,5.3999,5.2989,5.5458,5.6547,-2.6689,-2.6335,-2.6003,-2.4787,-2.4444,-2.4375,-2.4394,-2.4727,-2.5134,-2.5039,-2.5742,-2.5829,-2.4361,-2.4682,-2.4326,-2.1395,-2.1234,-2.1118,-1.9969,-1.9786,-2.012,-2.0962,-2.1349,-2.175,-2.2178,-1.8936,-1.6015,-1.454,-1.2602,-1.1619,-1.1619,-1.1619,-1.1619,-1.1619,-1.1619,-1.1619,-1.1619,-1.1755,-1.1823,-1.183,-1.1735,-0.9612,-0.5612,-0.1759,0.0,0.0,0.0,0.0,0.0,0.0,0.0,0.0,0.0,0.0,0.0,0.0,0.0,0.0,0.0,0.0145,0.1597,0.9157,1.1653,1.1647,1.1626,1.1619,1.1619,1.1619,1.1619,1.2043,1.3872,1.4432,1.5416,1.9217,2.0201,2.0617,2.2572,2.2859,2.2859,2.2859,2.2859,2.3393,2.5248,2.6972,2.8821,3.0513,3.2237,3.375,3.4609,3.8399,4.103,4.1181,4.4127,4.598,4.5547,4.5497,4.5693,4.5967,4.7215,4.8378,4.9248,5.0537,5.1259,5.1259,5.1229,5.1229,5.1229,5.3483,5.3999,5.2989,5.6315,5.7297,-2.7174,-2.6873,-2.6516,-2.5239,-2.4908,-2.4922,-2.5215,-2.541,-2.5508,-2.5508,-2.5039,-2.4564,-2.4566,-2.3279,-2.1994,-2.1459,-2.063,-2.0034,-1.9878,-1.996,-2.0334,-2.1029,-2.1537,-2.1991,-2.2378,-1.9118,-1.6887,-1.6263,-1.3309,-1.1619,-1.1619,-1.1619,-1.1619,-1.1619,-1.1619,-1.1667,-1.1755,-1.1809,-1.183,-1.183,-0.8998,-0.5776,-0.1946,-0.0589,0.0,0.0,0.0,0.0,0.0,0.0,0.0,0.0,0.0,0.0,0.0,0.0,0.0,0.0,0.0,0.0,0.0436,0.3047,0.7404,1.1653,1.1647,1.1633,1.1619,1.1619,1.1619,1.1763,1.2323,1.3452,1.4707,1.5981,1.8229,2.034,2.0894,2.2022,2.2859,2.2859,2.3788,2.4858,2.5383,2.8015,3.0602,3.2725,3.3695,3.4375,3.4668,3.7508,3.9888,4.1052,4.3232,4.4793,4.5404,4.5121,4.5577,4.7135,4.7306,4.8336,5.0412,5.0917,5.1229,5.1229,5.1229,5.1229,5.1229,5.2723,5.29,5.1819,5.3742,5.4806,-2.744,-2.7017,-2.6644,-2.5371,-2.5195,-2.5371,-2.5664,-2.5742,-2.5742,-2.5742,-2.5134,-2.472,-2.4747,-2.2955,-2.1759,-2.2554,-2.0959,-2.001,-2.0893,-2.0713,-2.0762,-2.1349,-2.175,-2.2138,-2.2539,-1.9957,-1.7949,-1.7258,-1.4298,-1.2323,-1.1619,-1.1619,-1.1619,-1.1619,-1.1619,-1.1687,-1.183,-1.1884,-1.1945,-1.1851,-0.9302,-0.5176,0.0,0.0,0.0,0.0,0.0,0.0,0.0,0.0,0.0,0.0,0.0,0.0,0.0,0.0,0.0,0.0,0.0,0.0,0.0,0.0,0.3437,0.8026,1.0624,1.1525,1.1552,1.1538,1.1579,1.1619,1.1619,1.2466,1.3587,1.429,1.6826,1.9217,1.9912,2.1596,2.2859,2.2859,2.4317,2.5651,2.6306,2.9327,3.2241,3.3875,3.4434,3.4766,3.4922,3.7612,4.0018,4.1052,4.3067,4.4499,4.5103,4.4669,4.5037,4.6783,4.7005,4.8139,5.0383,5.0917,5.1229,5.1229,5.1229,5.1229,5.1229,5.2305,5.2305,5.1229,5.2812,5.404,-2.7499,-2.6907,-2.6424,-2.5362,-2.543,-2.5742,-2.5742,-2.5742,-2.5742,-2.5742,-2.6074,-2.6064,-2.5112,-2.3995,-2.3508,-2.4331,-2.2098,-2.078,-2.2642,-2.188,-2.1309,-2.1911,-2.1991,-2.2218,-2.2806,-2.1321,-1.9356,-1.7388,0.0,-1.3587,-1.1763,-1.1619,-1.1619,-1.1619,-1.1626,-1.1701,-1.1843,-1.1993,-1.2005,-1.1854,-1.2047,-0.7914,-0.0301,-0.0147,0.0,0.0,0.0,0.0,0.0,0.0,0.0,0.0,0.0,0.0,0.0,0.0,0.0,0.0,0.0,0.0,0.0,0.0,0.0,0.1398,0.8531,1.1174,1.1564,1.1402,1.1504,1.1619,1.1619,1.1619,1.2043,1.3872,1.5698,1.7669,1.9495,2.1459,2.2859,2.2859,2.4317,2.6172,2.8032,3.1194,3.3594,3.4004,3.4453,3.4902,3.5332,3.8848,4.1181,4.1136,4.377,4.5246,4.4644,4.4091,4.4189,4.4967,4.6265,4.7707,4.9161,5.0508,5.1229,5.1229,5.1229,5.1229,5.1229,5.2336,5.2245,5.1259,5.3459,5.4952,-2.8358,-2.7493,-2.6506,-2.5757,-2.5644,-2.5742,-2.5742,-2.5742,-2.5742,-2.5742,-2.582,-2.6034,-2.6346,-2.4421,-2.302,-2.3838,-2.1656,-2.0133,-2.0901,-2.0835,-2.1082,-2.1884,-2.1991,-2.2218,-2.2806,-2.2435,-2.0756,-1.7388,-1.5416,-1.3587,-1.1763,-1.1619,-1.1619,-1.1619,-1.1721,-1.185,-1.1999,-1.2155,-1.2257,-1.2139,-1.1871,-0.906,-0.4159,-0.1318,0.0,0.0,0.0,0.0,0.0,0.0,0.0,0.0,0.0,0.0,0.0,0.0,0.0,0.0,0.0,0.0,0.0,0.0,0.0,0.0419,0.2234,0.6906,1.1423,1.1564,1.1518,1.1619,1.1619,1.1619,1.1763,1.218,1.4858,1.7388,1.7809,2.0617,2.2859,2.2859,2.5383,2.8032,2.9865,3.2225,3.3945,3.4062,3.4726,3.5254,3.5371,3.8848,4.1046,4.0516,4.3529,4.5095,4.4091,4.389,4.4189,4.4967,4.6265,4.7707,4.9161,5.0508,5.1229,5.1229,5.1229,5.1229,5.1229,5.1479,5.172,5.1947,5.2546,5.3622,-2.9404,-2.8294,-2.6983,-2.6587,-2.611,-2.5781,-2.5977,-2.5879,-2.5801,-2.5977,-2.5879,-2.5996,-2.6855,-2.456,-2.3029,-2.4812,-2.2195,-2.0321,-2.1334,-2.1272,-2.1296,-2.1911,-2.2098,-2.2352,-2.2819,-2.2859,-2.1308,-1.7529,-1.6263,-1.4441,-1.1763,-1.1619,-1.1647,-1.1708,-1.1789,-1.1938,-1.2162,-1.225,-1.2291,-1.2284,-1.2026,-1.0546,-0.815,-0.2485,0.0,-0.0146,0.0,-0.5107,-0.4816,-0.1457,0.0,0.0,0.0,-0.1853,-0.4246,-0.1108,0.0,0.0,0.0,0.0,0.0,0.0,0.0,0.0,0.0,0.4013,0.9115,1.0888,1.1423,1.1538,1.1599,1.1619,1.1619,1.1619,1.388,1.6263,1.6967,1.9495,2.2147,2.3788,2.6321,2.874,3.0745,3.2709,3.4199,3.459,3.5078,3.5391,3.5391,3.8527,4.0733,4.0315,4.3024,4.4493,4.384,4.3589,4.3624,4.4126,4.5978,4.7402,4.8239,5.0191,5.1229,5.1229,5.1229,5.1349,5.1648,5.1648,5.1977,5.2636,5.2636,5.3607,-3.0533,-2.9173,-2.7767,-2.7673,-2.6764,-2.6015,-2.6211,-2.5957,-2.5762,-2.6133,-2.5918,-2.5898,-2.6699,-2.4557,-2.3443,-2.5874,-2.2929,-2.0939,-2.2476,-2.1978,-2.1617,-2.1951,-2.2245,-2.2539,-2.2832,-2.2859,-2.1459,-1.7809,-1.7388,-1.5566,-1.1763,-1.1619,-1.1694,-1.1857,-1.1864,-1.2006,-1.2318,-1.2318,-1.2311,-1.2284,-1.2203,-1.1777,-1.0853,-0.4099,-0.0875,-0.1166,-0.7888,-1.1141,-1.1134,-0.4356,-0.1159,-0.0724,-0.0715,-0.4523,-0.9254,-0.3581,-0.1086,-0.0671,-0.0134,0.0,0.0,0.0,0.0,0.0,0.0,0.2165,0.5621,1.0022,1.1287,1.143,1.1558,1.1606,1.1619,1.1619,1.3024,1.4849,1.6826,1.8938,2.1433,2.4573,2.662,2.861,3.0654,3.2674,3.4231,3.5273,3.5391,3.5391,3.5391,3.8034,3.9996,4.0114,4.2162,4.3537,4.3689,4.3263,4.2986,4.2986,4.5555,4.7094,4.7094,4.9863,5.1349,5.1349,5.1439,5.1768,5.2336,5.2336,5.2665,5.3324,5.3324,5.4207,-3.0961,-3.0078,-2.8866,-2.7861,-2.741,-2.7051,-2.6015,-2.5508,-2.5195,-2.5273,-2.5234,-2.5352,-2.5859,-2.4775,-2.3826,-2.3796,-2.2332,-2.1059,-2.0698,-2.094,-2.139,-2.1924,-2.2245,-2.2539,-2.2832,-2.2859,-2.2022,-1.9773,-1.8089,-1.5566,-1.1763,-1.1619,-1.1742,-1.2013,-1.202,-1.2162,-1.2461,-1.2467,-1.2406,-1.2291,-1.2121,-1.0915,-0.8578,-0.6998,-0.5805,-0.4939,-0.6253,0.0,-1.1411,-0.9959,-0.7304,-0.4416,-0.4455,-0.5237,-0.6457,-0.8288,-0.7004,-0.4021,-0.1073,0.0,0.0,0.0,0.0,0.0,0.0,0.0407,0.2328,0.8949,1.1226,1.1564,1.143,1.1525,1.1619,1.1619,1.3024,1.4849,1.6826,1.9912,2.2572,2.3256,2.494,2.7025,2.896,3.1237,3.3378,3.5084,3.5391,3.5391,3.5391,3.7164,3.8487,3.9054,4.0761,4.2166,4.305,4.3037,4.2986,4.2986,4.5555,4.7094,4.7094,5.0271,5.2037,5.2037,5.2576,5.2905,5.3025,5.3025,5.3354,5.4042,5.4042,5.447,-3.1223,-3.0168,-2.8834,-2.8217,-2.7411,-2.6476,-2.582,-2.5391,-2.5059,-2.5059,-2.4883,-2.4941,-2.5605,-2.4659,-2.3941,-2.459,-2.2672,-2.1233,-2.164,-2.1327,-2.1323,-2.1911,-2.2378,-2.2712,-2.2846,-2.2859,-2.216,-2.0201,-1.8239,-1.599,-1.3167,-1.2258,-1.1796,-1.1938,-1.202,-1.2128,-1.2271,-1.2271,-1.2237,-1.2169,-1.2033,-1.1328,-1.0069,-0.9809,-0.9463,-0.8889,-0.8874,-0.9896,-1.1523,-1.1368,-1.0137,-0.8242,-0.8183,-0.8098,-0.8345,-1.0028,-0.9564,-0.7917,-0.6176,-0.4294,-0.2548,-0.0672,0.0,0.0,0.0,0.0,0.1085,0.6425,0.9601,1.1328,1.1375,1.1504,1.1619,1.1619,1.3024,1.4849,1.6826,1.9495,2.1734,2.2722,2.4445,2.6344,2.8407,3.049,3.2661,3.5045,3.5391,3.5312,3.5059,3.579,3.6912,3.8687,4.0174,4.1571,4.2874,4.2986,4.2986,4.2986,4.523,4.6859,4.7564,5.0155,5.1984,5.2725,5.3025,5.3354,5.3713,5.3713,5.4072,5.473,5.473,5.488,-3.1116,-2.9962,-2.8722,-2.8388,-2.6982,-2.5757,-2.5566,-2.5176,-2.4785,-2.4785,-2.4531,-2.4492,-2.5195,-2.4463,-2.4208,-2.5324,-2.3201,-2.1737,-2.2692,-2.1866,-2.1403,-2.1924,-2.2498,-2.2859,-2.2859,-2.2859,-2.2297,-2.0756,-1.8508,-1.6272,-1.3872,-1.2431,-1.1796,-1.183,-1.1945,-1.2026,-1.206,-1.206,-1.2047,-1.2013,-1.1918,-1.1857,-1.1823,-1.1728,-1.1543,-1.1543,-1.166,-1.1626,-1.1586,-1.1288,-1.1208,-1.1014,-1.0783,-1.0677,-1.0637,-1.0685,-1.0638,-1.0751,-1.0652,-0.8879,-0.6034,-0.322,-0.1209,0.0,0.0,0.0,0.0941,0.5301,0.8686,1.1047,1.128,1.1436,1.1579,1.1613,1.3309,1.5416,1.6826,1.9077,2.117,2.2585,2.4116,2.5711,2.7852,2.9713,3.1727,3.4318,3.489,3.5019,3.4726,3.4609,3.5557,3.8152,3.935,4.0707,4.2375,4.2849,4.3037,4.3137,4.4856,4.6624,4.8199,5.02,5.1932,5.3414,5.3533,5.3892,5.4431,5.4431,5.47,5.5179,5.5179,5.5179,-3.0084,-2.9809,-2.9246,-2.7489,-2.6683,-2.6061,-2.5303,-2.4492,-2.3906,-2.3906,-2.3887,-2.3867,-2.3965,-2.4516,-2.4717,-2.3827,-2.3195,-2.2577,-2.1948,-2.1658,-2.163,-2.1951,-2.2498,-2.2859,-2.2859,-2.2859,-2.2859,-2.2722,-1.9217,-1.5707,-1.2043,-1.177,-1.1701,-1.183,-1.1843,-1.1918,-1.206,-1.206,-1.1993,-1.185,-1.1843,-1.1769,-1.1647,-1.1633,-1.1626,-1.1626,-1.1626,-1.1545,0.0,-1.1253,-1.1111,-1.0839,-1.0812,-1.0744,-1.0744,-1.0731,-1.0724,-1.0724,-1.0751,-1.0485,-1.0219,-0.9862,-0.5248,0.0,0.0,0.0,0.148,0.8246,1.0528,1.0756,1.1023,1.1219,1.145,1.1586,1.4298,1.6967,1.7107,2.0051,2.2722,2.2859,2.3225,2.4095,2.6147,2.8157,3.0038,3.2034,3.35,3.4316,3.4648,3.4375,3.4852,3.654,3.767,3.9053,4.0707,4.215,4.3187,4.3689,4.5063,4.6812,4.8807,5.0824,5.2603,5.4102,5.47,5.5029,5.5089,5.5089,5.5119,5.5179,5.5179,5.5179,-2.8522,-2.821,-2.7707,-2.636,-2.5797,-2.5338,-2.4559,-2.4043,-2.3711,-2.3457,-2.3398,-2.3477,-2.375,-2.4277,-2.4791,-2.5149,-2.4553,-2.3905,-2.3594,-2.3048,-2.2454,-2.2055,-2.2498,-2.2859,-2.2859,-2.2859,-2.2435,-2.1321,-1.9773,-1.7809,-1.5141,-1.2888,-1.1647,-1.1701,-1.1701,-1.1735,-1.1796,-1.1796,-1.1762,-1.1701,-1.1701,-1.1674,-1.1619,-1.1619,-1.1619,-1.1613,-1.1525,0.0,0.0,-1.1131,-1.1002,-1.0934,-1.0778,-1.0717,-1.0717,-1.0717,-1.0717,-1.0724,-1.0731,-1.0731,-1.0738,-1.0645,-0.7388,-0.2816,-0.0672,0.0,0.0538,0.3495,0.7346,1.0756,1.0853,1.1047,1.143,1.1586,1.3595,1.5839,1.6967,1.9356,2.1596,2.2722,2.2966,2.3584,2.544,2.6479,2.8186,3.164,3.2537,3.3407,3.4926,3.498,3.5008,3.536,3.7627,3.959,4.0974,4.2799,4.4066,4.4292,4.517,4.643,4.8047,4.9307,5.0601,5.2003,5.3268,5.386,5.386,5.4743,5.5179,5.5179,5.5179,5.5179,-2.7555,-2.6944,-2.6378,-2.5443,-2.4735,-2.4219,-2.3867,-2.3691,-2.3516,-2.3203,-2.3144,-2.3242,-2.3535,-2.4043,-2.4727,-2.5644,-2.5312,-2.488,-2.4851,-2.3987,-2.3257,-2.2572,-2.2714,-2.2859,-2.2859,-2.2859,-2.2297,-2.1032,-2.0479,-1.9495,-1.8089,-1.5008,-1.3031,-1.2466,-1.19,-1.1619,-1.1619,-1.1619,-1.1619,-1.1619,-1.1619,-1.1619,-1.1619,-1.1619,-1.1619,-1.1613,-1.1457,-1.1362,0.0,-1.105,-1.0921,-1.0867,-1.0765,-1.0717,-1.0717,-1.067,-1.0656,-1.0649,-1.0602,-1.0616,-1.0649,-1.0629,-0.8938,-0.6297,-0.2672,-0.0804,0.0,0.0,0.3654,0.8078,1.0147,1.102,1.1375,1.1518,1.2993,1.4849,1.6826,1.8798,2.0617,2.2585,2.2859,2.3256,2.4452,2.5187,2.6884,3.0641,3.164,3.2832,3.5065,3.5391,3.5273,3.4941,3.7548,3.969,4.0595,4.2442,4.3954,4.4618,4.5171,4.6229,4.7925,4.832,4.9167,5.0713,5.1727,5.2509,5.2963,5.4068,5.4743,5.5179,5.5179,5.5179,-2.7555,-2.6618,-2.5613,-2.4788,-2.3584,-2.2754,-2.3594,-2.3457,-2.3144,-2.3144,-2.3144,-2.3144,-2.3144,-2.3848,-2.4414,-2.4434,-2.4876,-2.5237,-2.5237,-2.4332,-2.3813,-2.3813,-2.3245,-2.2859,-2.2859,-2.2859,-2.2859,-2.2859,-2.1183,0.0,-2.0063,-1.8229,-1.6263,-1.4432,-1.2602,-1.1619,-1.1619,-1.1619,-1.1619,-1.1619,-1.1619,-1.1619,-1.1619,-1.1619,-1.1619,-1.1613,0.0,0.0,0.0,-1.1009,-1.086,-1.0724,-1.0717,-1.0717,-1.0704,-1.0548,-1.0493,-1.0473,-1.0331,-1.0378,-1.0473,-1.0358,-1.0521,-0.9915,-0.646,-0.2787,0.0,0.0,0.0,0.1748,0.8872,1.096,1.1386,1.1362,1.2902,1.4849,1.6826,1.8798,2.0617,2.2585,2.2859,2.2859,2.2859,2.4587,2.6679,2.8574,3.0641,3.2698,3.5065,3.5391,3.5391,3.5391,3.7289,3.8658,3.8853,4.0406,4.2321,4.4477,4.5171,4.6407,4.839,4.8532,4.9167,5.0713,5.0713,5.1481,5.2963,5.2963,5.3756,5.5179,5.5179,5.5179,-2.7459,-2.727,-2.7013,-2.6108,-2.519,-2.4477,-2.4522,-2.3727,-2.3144,-2.3144,-2.3144,-2.3144,-2.3144,-2.3848,-2.4414,-2.4414,-2.4753,-2.4704,-2.4031,-2.3504,-2.3024,-2.266,-2.2714,-2.2859,-2.2859,-2.2859,-2.2859,-2.2859,-2.2297,-2.2022,-2.2022,-2.019,-1.7669,-1.4432,-1.3872,-1.2888,-1.1619,-1.1619,-1.1619,-1.1619,-1.1619,-1.1619,-1.1619,-1.1619,-1.1558,0.0,0.0,0.0,-1.1002,-1.0853,-1.0765,-1.0717,-1.0717,-1.0717,-1.0717,-1.0663,-1.0582,-1.0487,-1.0439,-1.0392,-1.0337,-1.0304,-1.0365,-1.0052,-0.9086,-0.4738,0.0,0.0,0.0,0.0538,0.2862,0.7142,1.0973,1.1502,1.2966,1.4412,1.5106,1.7809,2.034,2.0894,2.2022,2.2859,2.2859,2.3653,2.4872,2.6985,2.9094,3.1408,3.3642,3.4967,3.582,3.582,3.6202,3.682,3.7781,4.0632,4.2616,4.3044,4.4556,4.5784,4.6407,4.6764,4.7205,4.7626,4.8621,4.9422,4.9987,5.0961,5.2159,5.3756,5.4165,5.4923,-2.7066,-2.6908,-2.6605,-2.5825,-2.5114,-2.4513,-2.407,-2.3527,-2.3144,-2.3144,-2.3144,-2.3144,-2.3144,-2.3848,-2.4414,-2.4414,-2.5055,-2.5263,-2.4122,-2.3789,-2.336,-2.2295,-2.2579,-2.2859,-2.2859,-2.2859,-2.2859,-2.2859,-2.2859,-2.2859,-2.2859,-2.1734,-1.9773,-1.6685,-1.5132,-1.3452,-1.1619,-1.1619,-1.1619,-1.1619,-1.1619,-1.1619,-1.1619,-1.1558,-1.1484,0.0,0.0,-1.1029,0.0,-1.0785,-1.0717,-1.0717,-1.0717,-1.0717,-1.0704,-1.0595,-1.0493,-1.0392,-1.0276,-1.0215,-1.0181,-1.0127,-1.0154,-1.0109,-1.0365,-0.5508,0.0,0.0,0.0,0.0,0.0,0.3271,0.7424,1.0518,1.2308,1.3224,1.3302,1.5765,1.8229,1.8938,2.0479,2.1872,2.1872,2.2697,2.4093,2.6305,2.7881,2.9633,3.1826,3.3743,3.4883,3.4883,3.5355,3.583,3.6514,3.9863,4.2099,4.2209,4.4294,4.5397,4.5171,4.5497,4.5773,4.5999,4.6872,4.7768,4.8532,5.0177,5.1516,5.2556,5.3726,5.4691,0.0,-2.5767,-2.5087,-2.4453,-2.3894,-2.3369,-2.274,-2.2832,0.0,-2.3144,-2.3144,-2.3144,-2.3184,-2.3867,-2.4434,-2.4492,-2.5741,-2.621,-2.4945,-2.4805,-2.4163,-2.2511,-2.2645,-2.2846,-2.2859,-2.2859,-2.2859,-2.2859,-2.2859,-2.2859,-2.2859,-2.2859,-2.2022,-2.0201,-1.6685,-1.3872,-1.1756,-1.1756,-1.1763,-1.1619,-1.1619,-1.1619,-1.1613,-1.1463,-1.1389,0.0,-1.107,-1.0941,-1.0921,-1.0778,-1.0717,-1.085,-1.0717,-1.085,-1.108,-1.067,-1.0551,-1.0615,-1.0313,-1.0176,-1.0129,-0.9863,-0.9917,-1.0093,-1.0283,-0.5896,-0.0658,-0.0134,0.0,0.0,0.0,0.0,0.1641,0.8371,1.0499,1.1235,1.1468,1.2997,1.469,1.6685,1.8508,1.9912,2.0063,2.1697,2.3814,2.6026,2.6773,2.7798,2.9835,3.1738,3.3013,3.3013,3.4727,3.5588,3.5335,3.8315,4.0717,4.1704,4.4032,4.5103,4.4461,4.4602,4.4995,4.5547,4.5547,4.6484,4.8379,5.0357,5.134,5.1508,5.3583,5.4672,-2.4431,0.0,-2.7041,-2.5751,-2.5574,-2.5404,0.0,-2.3413,-2.3144,-2.3144,-2.3144,-2.3242,-2.3574,-2.4062,-2.4648,-2.5312,-2.4597,-2.3911,-2.3871,-2.2795,-2.2005,-2.2136,-2.2338,-2.2605,-2.2846,-2.2859,-2.2859,-2.2859,-2.2859,-2.2859,-2.2859,-2.2859,-2.2022,-2.0201,-1.9217,-1.7107,-1.3729,-1.3729,-1.3024,-1.1619,-1.1619,-1.1619,-1.1613,-1.1463,-1.1328,-1.1206,-1.1029,-1.088,-1.0772,-1.0731,-1.1505,-1.2545,-1.124,-1.2281,-1.4474,-1.3093,-1.3268,-1.4117,-1.4023,-1.2961,-1.1429,-1.0193,-0.9842,-0.991,-1.0107,-0.9166,-0.6985,-0.1602,0.0,0.0,0.0,0.0,0.0405,0.2049,0.4675,0.7774,1.092,1.1952,1.2818,1.4673,1.6545,1.8369,1.9773,2.0695,2.1961,2.4127,2.5939,2.7244,2.8023,2.9757,3.1017,3.1017,3.2735,3.3845,3.3753,3.6648,3.8338,3.8226,4.1538,4.3409,4.3265,4.4932,4.5974,4.6125,4.6125,4.6496,4.7389,4.7974,4.8927,5.051,5.1573,5.337,-2.3527,-2.4883,-2.6058,-2.53,-2.5217,-2.5032,-2.4045,-2.3422,-2.3144,-2.3144,-2.3301,-2.3516,-2.375,-2.4297,-2.4733,-2.4711,-2.4754,-2.4715,-2.4302,-2.2661,-2.163,-2.1951,-2.2365,-2.2632,-2.2659,-2.2779,-2.2859,-2.2859,-2.2859,-2.2859,-2.2859,-2.2859,-2.2435,-2.1459,-2.1321,-1.9495,-1.5698,-1.5698,-1.5141,-1.4156,-1.4073,-1.4032,-1.4015,-1.375,-1.3576,-1.3477,-1.3294,-1.3153,-1.3062,-1.3062,-1.3578,-1.4362,-1.3456,-1.4232,-1.5774,-1.477,-1.4779,-1.5236,-1.5135,-1.4397,-1.3048,-1.1374,-1.0899,-1.0929,-1.1102,-1.0847,-0.9793,-0.595,-0.2535,0.0,0.0,0.0,0.0,0.0,0.15,0.357,0.5851,0.8981,1.1713,1.2795,1.4475,1.6115,1.7082,1.8153,1.9577,2.1672,2.3047,2.4313,2.5385,2.7362,2.8553,2.8553,3.0371,3.1495,3.1495,3.3744,3.5861,3.729,4.0159,4.1576,4.1345,4.324,4.5031,4.6301,4.6552,4.6954,4.7481,4.7757,4.8506,4.9625,5.0883,5.246,-2.3044,-2.3356,-2.3786,-2.3902,-2.3959,-2.3798,-2.3322,-2.3133,-2.3164,-2.3223,-2.3535,-2.3828,-2.3965,-2.4687,-2.5006,-2.4207,-2.5646,-2.6547,-2.5326,-2.3407,-2.2195,-2.2291,-2.2485,-2.2579,-2.2378,-2.2619,-2.2792,-2.2792,-2.2832,-2.2859,-2.2859,-2.2859,-2.2859,-2.2859,-2.2859,-2.1321,-1.8089,-1.7809,-1.7518,-1.7197,-1.6857,-1.6746,-1.6696,-1.6305,-1.6125,-1.6105,0.0,0.0,-1.5913,-1.5913,-1.6043,-1.6302,-1.6043,-1.6172,-1.6668,-1.6212,-1.6118,-1.6011,-1.5502,-1.5173,-1.4759,-1.3057,-1.2577,-1.2603,-1.2647,-1.1977,-1.1031,-1.0941,-0.6473,-0.1474,-0.0939,-0.0403,0.0,0.0,0.0,0.0,0.0,0.5109,0.992,1.1074,1.2559,1.3481,1.3601,1.5091,1.7058,1.9073,1.9737,2.0563,2.2701,2.4498,2.5775,2.6084,2.7862,2.8946,2.8946,3.0615,3.3044,3.6305,3.8723,3.9885,3.9802,4.123,4.3312,4.6038,4.6586,4.7258,4.8033,4.8535,4.8812,4.9039,5.0809,5.1741,-2.2654,-2.2655,-2.2746,-2.2727,-2.3166,-2.3444,-2.2788,-2.2859,-2.3242,-2.3613,-2.375,-2.4004,-2.4727,-2.5586,-2.6229,-2.6435,-2.663,-2.6376,-2.5426,-2.3916,-2.3142,-2.3686,-2.2577,-2.183,-2.2031,-2.2311,-2.2485,-2.2485,-2.2726,-2.2859,-2.2859,-2.2859,-2.2859,-2.2859,-2.2859,-2.2585,-2.2022,-2.0479,-1.8688,-1.6817,-1.6776,-1.6666,-1.6476,-1.6235,-1.6125,-1.6105,0.0,-1.5913,-1.5913,-1.5913,-1.6818,-1.7988,-1.6431,-1.7731,-2.0068,-1.8593,-1.8794,-1.9645,-1.7635,-1.6954,-1.6657,-1.4779,-1.4242,-1.4252,-1.4282,-1.4198,-1.3882,-1.2457,-1.0656,-0.8318,-0.5362,-0.228,0.0,0.0,0.0,0.0,0.0,0.096,0.3583,0.9944,1.1358,1.1448,1.1502,1.3166,1.5165,1.7286,1.7791,1.8735,2.0826,2.1505,2.2405,2.4025,2.5959,2.7031,2.7031,2.8688,3.0072,3.0649,3.5508,3.9067,4.0807,4.1466,4.2811,4.4798,4.5302,4.6494,4.8636,4.8736,4.9012,4.9464,4.9797,5.0664,-2.2849,-2.2509,-2.2275,-2.2706,-2.2907,-2.3016,-2.3246,-2.3441,-2.3555,-2.375,-2.416,-2.4668,-2.5312,-2.5957,-2.6357,-2.6368,-2.538,-2.4553,-2.4221,-2.3274,-2.2539,-2.2666,-2.2203,-2.1777,-2.175,-2.2017,-2.2178,-2.2178,-2.2458,-2.2619,-2.2619,-2.2779,-2.2859,-2.2859,-2.2859,-2.2779,-2.2619,-2.179,-2.0885,-1.9787,-1.9515,-1.9314,-1.9196,-1.8936,-1.8818,-1.8818,0.0,-1.8768,-1.8768,-1.8768,-1.9164,-1.9801,-1.9024,-1.9674,-2.0956,-2.0029,-2.0151,-2.0491,-1.9312,-1.8917,-1.8626,-1.6777,-1.61,-1.6067,-1.5946,-1.535,-1.4821,-1.5187,-1.3012,-1.032,-0.8624,-0.7075,-0.4833,-0.0939,0.0,0.0,0.0,0.0,0.1085,0.4507,0.6702,0.8611,1.0522,1.1603,1.2554,1.3511,1.4783,1.6236,1.8248,1.8637,1.9116,2.0121,2.1938,2.3054,2.3054,2.5662,2.8283,3.0715,3.3329,3.6032,3.8957,3.9693,4.1109,4.3088,4.3848,4.5287,4.7694,4.7694,4.8361,4.959,4.959,4.995,-2.3121,-2.2639,-2.2192,-2.2979,-2.2787,-2.2777,-2.3762,-2.3994,-2.3965,-2.4062,-2.4687,-2.5352,-2.5801,-2.6328,-2.6576,-2.6245,-2.4895,-2.3913,-2.3764,-2.2949,-2.2461,-2.2596,-2.2148,-2.1813,-2.2098,-2.197,-2.1884,-2.1884,-2.2151,-2.2311,-2.2311,-2.2539,-2.2659,-2.2659,-2.2659,-2.2552,-2.2311,-2.2245,-2.2218,-2.2205,-2.1764,-2.151,-2.1443,-2.1216,-2.1109,-2.1109,-2.1109,-2.1109,-2.1109,-2.1109,-2.1109,-2.1109,-2.1109,-2.1109,-2.1082,-2.0855,-2.0775,-2.0859,-2.0917,-2.0929,-2.0631,-1.9095,-1.8633,-1.8464,-1.7848,-1.6828,-1.6156,-1.715,-1.4978,-1.2019,-1.1445,-1.1066,-0.9273,-0.3751,-0.1876,-0.1073,-0.0134,0.0,0.0,0.0,0.228,0.4964,0.767,0.8873,0.9775,1.0629,1.2102,1.3612,1.5115,1.5545,1.6038,1.7077,1.8465,1.9565,2.0051,2.3065,2.6537,3.0321,3.0979,3.2784,3.6017,3.6892,3.8591,4.1197,4.2171,4.3647,4.5888,4.6029,4.6788,4.8175,4.8297,4.8502,-2.3239,-2.2868,-2.255,-2.3118,-2.2879,-2.2722,-2.3585,-2.4134,-2.4492,-2.4902,-2.5352,-2.582,-2.625,-2.7012,-2.7439,-2.7078,-2.6875,-2.636,-2.5304,-2.4132,-2.3991,-2.5546,-2.2995,-2.1782,-2.337,-2.2412,-2.159,-2.159,-2.1857,-2.2017,-2.2017,-2.2031,-2.2044,-2.2044,-2.2044,-2.2031,-2.2017,-2.175,-2.1617,-2.1617,-2.1577,-2.1403,-2.1136,-2.1122,-2.1109,-2.1109,-2.1109,-2.1109,-2.1109,-2.1109,-2.1109,-2.1109,-2.1109,-2.1109,-2.1109,-2.1082,-2.1082,-2.1281,-2.2436,-2.2914,-2.287,-2.2423,-2.232,-2.2023,-2.0196,-1.9536,-1.914,-1.7445,-1.6851,-1.6219,-1.3682,-1.1841,-1.0531,-1.006,-0.7379,-0.4155,-0.0671,0.0,0.0,0.0,0.0269,0.0537,0.0671,0.362,0.6947,1.0202,1.0836,1.108,1.1397,1.1553,1.311,1.6757,1.7205,1.7994,1.99,2.1872,2.3938,2.5846,2.789,3.0101,3.2363,3.3285,3.5491,3.9014,3.9833,4.1229,4.3103,4.3466,4.3826,4.3826,4.4301,4.5457,-2.3077,-2.2853,-2.2709,-2.3429,-2.3639,-2.3711,-2.3769,-2.4531,-2.5293,-2.5449,-2.6055,-2.6338,-2.59,-2.7199,-2.7891,-2.6082,-2.5912,-2.5594,-2.4421,-2.3003,-2.2215,-2.2812,-2.1839,-2.1362,-2.1978,-2.1583,-2.1269,-2.1269,-2.155,-2.171,-2.171,-2.1884,-2.1991,-2.1991,-2.1991,-2.1897,-2.1724,-2.1603,-2.1456,-2.1269,-2.1269,-2.1216,-2.1109,-2.1109,-2.1109,-2.1109,-2.1109,-2.1109,-2.1109,-2.1109,-2.1109,-2.1109,-2.1109,-2.1109,-2.1235,-2.2215,-2.1978,-2.1461,-2.4009,-2.4223,-2.3565,-2.43,-2.3831,-2.2797,-2.1671,-2.0586,-1.9654,-1.8931,-1.8746,-1.8203,-1.5272,-1.4061,-1.3526,-1.3012,-1.1833,-1.0103,-0.7204,-0.4929,-0.266,-0.0398,0.0,0.0,0.0,0.1176,0.2477,0.3891,0.5992,0.7481,0.7558,0.9661,1.1731,1.3239,1.4379,1.5981,1.7994,1.8843,2.0,2.1958,2.5066,2.7627,2.9641,3.072,3.248,3.4931,3.6028,3.8127,4.1164,4.1223,4.1987,4.3017,4.4285,4.5324,-2.3458,-2.3077,-2.2787,-2.3743,-2.4142,-2.4219,-2.4199,-2.5098,-2.5977,-2.6113,-2.6816,-2.7226,-2.6635,-2.7962,-2.8461,-2.6192,-2.5982,-2.5691,-2.4486,-2.2952,-2.209,-2.2577,-2.2215,-2.209,-2.2577,-2.2702,-2.2452,-2.1978,-2.2046,-2.2043,-2.1416,-2.1603,-2.171,-2.171,-2.171,-2.1617,-2.1416,-2.1416,-2.1309,-2.1109,-2.1109,-2.1109,-2.1109,-2.1109,-2.1109,-2.1109,-2.1109,-2.1362,-2.1853,-2.1362,-2.1348,-2.1978,-2.2452,-2.2702,-2.2827,-2.3931,-2.3683,-2.3062,-2.5863,-2.5984,-2.5237,-2.6184,-2.5741,-2.4547,-2.3607,-2.2157,-2.0851,-2.0656,-2.0482,-2.0037,-1.7901,-1.6786,-1.5887,-1.4747,-1.4391,-1.4143,-1.3034,-1.0227,-0.7048,-0.3901,-0.2339,-0.1556,-0.1547,-0.1543,-0.1538,-0.1531,0.1657,0.3976,0.4028,0.7248,0.9794,1.0833,1.2157,1.3626,1.4982,1.6245,1.756,1.8969,2.1404,2.418,2.7222,2.8309,2.9622,3.1542,3.2579,3.4667,3.7883,3.8024,3.9027,4.0926,4.2282,4.3144,-2.4354,-2.3682,-2.287,-2.4241,-2.4162,-2.4023,-2.4883,-2.5762,-2.6504,-2.6934,-2.7715,-2.8418,-2.8848,-2.9277,-2.9238,-2.801,-2.7849,-2.7388,-2.6177,-2.4655,-2.4178,-2.5741,-2.4532,-2.4178,-2.5863,-2.5984,-2.5375,-2.3698,-2.3574,-2.2841,-2.1235,-2.1109,-2.1109,-2.1109,-2.1109,-2.1109,-2.1109,-2.1109,-2.1109,-2.1109,-2.1109,-2.1109,-2.1109,-2.1109,-2.1109,-2.1109,-2.1109,-2.2104,-2.345,-2.1853,-2.209,-2.3822,-2.5375,-2.5984,-2.5984,-2.5984,-2.5968,-2.6227,-2.7811,-2.8408,-2.8426,-2.8426,-2.8408,-2.8098,-2.6151,-2.4499,-2.3052,-2.2361,-2.218,-2.2064,-2.2064,-1.9801,-1.7234,-1.5504,-1.5008,-1.5411,-1.6794,-1.5317,-1.2983,-1.0742,-0.739,-0.4963,-0.4999,-0.5003,-0.4979,-0.4906,-0.1633,0.0758,0.0895,0.3727,0.6949,1.0276,1.077,1.0933,1.0933,1.4503,1.6705,1.6705,1.6705,1.9329,2.5204,2.5831,2.7106,2.9083,2.9583,3.0941,3.317,3.3549,3.4752,3.668,3.709,3.8227,-2.3858,-2.3424,-2.2765,-2.3779,-2.4414,-2.4844,-2.541,-2.5977,-2.668,-2.7695,-2.8359,-2.8443,-2.7548,-2.8821,-2.9584,-2.818,-2.8066,-2.8045,-2.7794,-2.6349,-2.5024,-2.4425,-2.3931,-2.3822,-2.4301,-2.4301,-2.4532,-2.5253,-2.4301,-2.3325,-2.2827,-2.1727,-2.1109,-2.1109,-2.1109,-2.1109,-2.1109,-2.1109,-2.1109,-2.1109,-2.1109,-2.1109,-2.1109,-2.1109,-2.1109,-2.1109,-2.2341,-2.3076,-2.3698,-2.4286,-2.4885,-2.5375,-2.5863,-2.5984,-2.6106,-2.7314,-2.6953,-2.6349,-2.9157,-2.9412,-2.8545,-2.9766,-2.9412,-2.8217,-2.747,-2.6168,-2.4714,-2.3989,-2.3795,-2.3731,-2.3376,-2.2565,-2.1713,-2.052,-1.9447,-1.8496,-1.7672,-1.6887,-1.6081,-1.4888,-1.2538,-1.0971,-1.1662,-0.9794,-0.8301,-0.8384,-0.7424,-0.5001,-0.0384,0.1282,0.2339,0.3092,0.5541,0.8023,1.0607,1.1833,1.2527,1.271,1.3985,1.6838,2.1378,2.1795,2.3694,2.7293,2.7632,2.8962,3.1158,3.1277,3.2333,3.4205,3.5624,3.7184,-2.3449,-2.3165,-2.2715,-2.3574,-2.4297,-2.5019,-2.582,-2.6328,-2.6953,-2.8066,-2.8633,-2.8636,-2.8014,-2.9297,-3.0238,-2.9291,-2.9245,-2.9394,-2.9394,-2.7931,-2.6591,-2.5635,-2.5513,-2.5513,-2.5513,-2.6122,-2.6608,-2.6953,-2.5984,-2.5269,-2.4532,-2.3559,-2.2702,-2.209,-2.209,-2.1727,-2.1109,-2.1109,-2.1109,-2.1109,-2.1109,-2.1109,-2.1109,-2.1109,-2.1109,-2.1235,-2.3559,-2.4178,-2.3822,-2.6729,-2.7572,-2.7073,-2.7692,-2.7931,-2.8051,-2.9039,-2.8783,-2.8188,-3.0157,-3.0274,-2.953,-3.0528,-3.0274,-2.9356,-2.9231,-2.8066,-2.6592,-2.5835,-2.5611,-2.5378,-2.4847,-2.471,-2.4384,-2.3237,-2.1847,-2.0433,-1.9456,-1.8753,-1.8021,-1.6966,-1.5664,-1.4741,-1.467,-1.2937,-1.1711,-1.1711,-1.0664,-0.8453,-0.4609,-0.2822,-0.1427,-0.0134,0.2009,0.4166,0.625,0.7747,0.9267,1.0826,1.206,1.3739,1.603,1.7927,2.0557,2.4162,2.4355,2.5997,2.9186,2.9186,3.0184,3.2018,3.3044,3.4557,-2.3182,-2.2917,-2.2754,-2.3535,-2.4082,-2.4766,-2.6133,-2.6719,-2.7207,-2.8105,-2.8633,-2.9062,-2.9492,-3.0254,-3.084,-3.0879,-3.0898,-3.0898,-3.0898,-2.953,-2.8545,-2.8426,-2.8426,-2.8426,-2.8426,-2.9766,-3.0138,-2.8783,-2.8545,-2.7811,-2.6349,-2.6106,-2.5375,-2.3807,-2.3822,-2.3076,-2.1348,-2.1362,-2.1362,-2.1362,-2.1362,-2.1362,-2.1362,-2.1109,-2.1222,-2.1727,-2.4885,-2.5513,-2.4671,-2.9057,-3.002,-2.8783,-3.0274,-3.0898,-3.0898,-3.0898,-3.0898,-3.0898,-3.0898,-3.0898,-3.0898,-3.0898,-3.0898,-3.0898,-3.0898,-2.9903,-2.8501,-2.7737,-2.75,-2.7395,-2.6738,-2.6608,-2.6227,-2.4803,-2.3023,-2.1813,-2.1813,-2.0702,-1.9332,-1.7781,-1.743,-1.6962,-1.5311,-1.4955,-1.4718,-1.4599,-1.2046,-1.0264,-1.0283,-0.7719,-0.4541,-0.1337,-0.0669,-0.0402,-0.0,0.3082,0.6309,0.9576,1.0092,1.0372,1.0699,1.4513,1.7812,2.038,2.0415,2.2653,2.7011,2.6896,2.8053,3.0026,3.0026,3.1034,-2.3182,-2.314,-2.3047,-2.3242,-2.3848,-2.4844,-2.6504,-2.6699,-2.6855,-2.8047,-2.8633,-2.9062,-2.9492,-3.0,-3.0469,-3.084,-3.0898,-3.0898,-3.0898,-3.0645,-2.9903,-2.8545,-2.8426,-2.8426,-2.8426,-2.8783,-2.9275,-3.0274,-2.9157,-2.8289,-2.7931,-2.6712,-2.5863,-2.5497,-2.5497,-2.4655,-2.3076,-2.3076,-2.3076,-2.3076,-2.3076,-2.3076,-2.2966,-2.1727,-2.2452,-2.5008,-2.7073,-2.8426,-2.9412,-3.0528,-3.0645,-3.0392,-3.0762,-3.0898,-3.0898,-3.0898,-3.0898,-3.0898,-3.0898,-3.0898,-3.0898,-3.0898,-3.0898,-3.0898,-3.0898,-3.0645,-3.0276,-2.9738,-3.0102,-3.0567,-3.0038,-3.0433,-3.0657,-2.9221,-2.6082,-2.3375,-2.3375,-2.3039,-2.2363,-2.0887,-2.0659,-2.0099,-1.8635,-1.7325,-1.602,-1.4837,-1.3994,-1.2691,-1.0447,-0.9716,-0.9068,-0.8451,-0.5904,-0.3082,-0.0268,0.0669,0.1473,0.228,0.4961,0.7794,1.0538,1.3051,1.5691,1.8153,1.8343,1.9836,2.2752,2.2818,2.469,2.8068,2.8068,2.9043,-2.251,-2.2745,-2.3086,-2.4121,-2.4551,-2.5176,-2.6934,-2.6992,-2.6992,-2.8066,-2.8476,-2.875,-2.918,-2.9766,-3.0273,-3.0527,-3.0742,-3.0898,-3.0898,-3.0898,-3.0528,-2.9648,-2.9648,-2.9648,-2.9648,-2.9648,-3.002,-3.0879,-3.0138,-2.9648,-2.9648,-2.8801,-2.7931,-2.7194,-2.7194,-2.6349,-2.4778,-2.4778,-2.4778,-2.4778,-2.4778,-2.4778,-2.4655,-2.3076,-2.3683,-2.6106,-2.7692,-2.892,-2.9785,-3.0528,-3.0898,-3.0898,-3.0898,-3.0898,-3.0898,-3.0898,-3.0898,-3.0898,-3.0898,-3.0898,-3.0898,-3.0898,-3.0898,-3.0898,-3.0898,-3.1441,-3.1896,-3.143,-3.1939,-3.2533,-3.2184,-3.22,-3.2129,-3.1418,-2.8529,-2.5646,-2.5041,-2.4267,-2.3599,-2.2814,-2.2702,-2.2363,-2.1601,-2.02,-1.8687,-1.7032,-1.6335,-1.5104,-1.294,-1.28,-1.2347,-1.0829,-0.9088,-0.7218,-0.5235,-0.3617,-0.1875,-0.0134,0.1741,0.5232,1.0545,1.0124,1.1247,1.4361,1.5584,1.7394,1.9867,2.1015,2.2633,2.4703,2.5611,2.707,-2.1769,-2.2187,-2.3105,-2.5117,-2.541,-2.5605,-2.7187,-2.7324,-2.7344,-2.8125,-2.8301,-2.8418,-2.8848,-2.9492,-3.0,-3.0078,-3.0469,-3.0762,-3.0762,-3.084,-3.0898,-3.0898,-3.0898,-3.0898,-3.0898,-3.0898,-3.0898,-3.0898,-3.0898,-3.0898,-3.0898,-3.0898,-3.0274,-2.8902,-2.8783,-2.8051,-2.647,-2.647,-2.647,-2.647,-2.647,-2.6591,-2.6832,-2.5146,-2.5146,-2.647,-2.817,-2.8783,-2.892,-3.0274,-3.0898,-3.0898,-3.0898,-3.0898,-3.0898,-3.0898,-3.0898,-3.0898,-3.0898,-3.1112,-3.1325,-3.1325,-3.1441,-3.1672,-3.1672,-3.255,-3.3444,-3.304,-3.3572,-3.4252,-3.3753,-3.3356,-3.3047,-3.2755,-3.0922,-2.8825,-2.7504,-2.5991,-2.4803,-2.4565,-2.4139,-2.3822,-2.3822,-2.2814,-2.1556,-2.0144,-1.8907,-1.7661,-1.6317,-1.6066,-1.5003,-1.1934,-1.1556,-1.1336,-1.0765,-0.8046,-0.5088,-0.2012,-0.1205,0.2009,0.8638,0.6057,0.6549,1.0855,1.3005,1.5228,1.7724,1.9596,2.0647,2.1141,2.3116,2.4891,-2.1392,-2.2187,-2.3418,-2.4805,-2.541,-2.5898,-2.6875,-2.7344,-2.7715,-2.8203,-2.8301,-2.8418,-2.8848,-2.9004,-2.9219,-2.959,-3.0019,-3.0293,-3.0293,-3.0644,-3.0898,-3.0898,-3.0898,-3.0898,-3.0898,-3.0898,-3.0898,-3.0898,-3.0898,-3.0898,-3.0898,-3.0898,-3.0762,-3.0528,-3.0528,-2.9785,-2.8051,-2.8051,-2.8051,-2.8051,-2.8051,-2.8783,-3.0157,-2.8545,-2.7931,-2.817,-2.9903,-3.0528,-3.0528,-3.0762,-3.0898,-3.0898,-3.0898,-3.0898,-3.0898,-3.0898,-3.0898,-3.0898,-3.0898,-3.1767,-3.2851,-3.2851,-3.3642,-3.4736,-3.4736,-3.4847,-3.4936,-3.4891,-3.5596,-3.6143,-3.5624,-3.6033,-3.6137,-3.4481,-3.3848,-3.3231,-3.1803,-3.0369,-2.9011,-2.7767,-2.5519,-2.3822,-2.3822,-2.3599,-2.3487,-2.3247,-2.2184,-2.0864,-1.9438,-1.842,-1.707,-1.5355,-1.5255,-1.3935,-1.092,-1.0247,-0.9751,-0.9297,-0.6443,-0.2814,0.1207,0.0948,0.3989,1.0861,1.153,1.2934,1.5467,1.5949,1.718,1.9025,2.0991,2.2198,-2.1056,-2.2168,-2.3398,-2.4434,-2.5039,-2.5723,-2.707,-2.7344,-2.75,-2.8144,-2.8301,-2.834,-2.8535,-2.8769,-2.8984,-2.918,-2.957,-2.9844,-2.9844,-3.0215,-3.0508,-3.0508,-3.0742,-3.0898,-3.0898,-3.0898,-3.0898,-3.0898,-3.0898,-3.0898,-3.0898,-3.0898,-3.0898,-3.0898,-3.0898,-3.0528,-2.9785,-2.9993,-3.0238,-3.0464,-2.9993,-3.0272,-3.123,-3.0252,-2.9766,-2.9903,-3.0528,-3.0898,-3.0898,-3.0898,-3.0898,-3.0898,-3.0898,-3.0898,-3.0898,-3.0898,-3.0898,-3.0995,-3.1883,-3.253,-3.3191,-3.4069,-3.4736,-3.5288,-3.5288,-3.5836,-3.6487,-3.6487,-3.7202,-3.7829,-3.7608,-3.732,-3.7014,-3.6185,-3.5793,-3.5355,-3.4751,-3.2932,-3.1008,-2.962,-2.8357,-2.7201,-2.6481,-2.5608,-2.5128,-2.5353,-2.4433,-2.3497,-2.32,-2.1996,-2.0506,-1.8939,-1.7965,-1.6291,-1.3796,-1.2759,-1.1732,-1.0711,-0.925,-0.765,-0.6046,-0.2173,0.1652,0.5029,0.9072,1.1962,1.3252,1.3604,1.4814,1.6904,1.9025,1.993,-2.0762,-2.1934,-2.3027,-2.3887,-2.459,-2.543,-2.6855,-2.709,-2.7226,-2.7969,-2.8125,-2.8164,-2.8281,-2.8555,-2.8769,-2.8769,-2.9121,-2.9394,-2.9394,-2.9863,-3.0195,-3.0195,-3.0605,-3.0898,-3.0898,-3.0898,-3.0898,-3.0898,-3.0898,-3.0898,-3.0898,-3.0898,-3.0898,-3.0898,-3.0898,-3.0937,-3.1055,-3.1367,-3.1621,-3.1836,-3.1191,-3.1113,-3.1504,-3.1074,-3.0957,-3.1055,-3.0937,-3.0898,-3.0898,-3.0898,-3.0898,-3.0898,-3.0898,-3.0898,-3.1015,-3.1325,-3.1441,-3.1652,-3.3191,-3.3845,-3.4403,-3.5508,-3.6054,-3.6402,-3.6402,-3.7156,-3.8031,-3.8031,-3.8521,-3.9044,-3.8919,-3.814,-3.7362,-3.7211,-3.6759,-3.6263,-3.5978,-3.4264,-3.2431,-3.103,-3.0824,-3.0514,-2.9513,-2.8495,-2.7898,-2.7804,-2.6906,-2.6162,-2.6118,-2.5044,-2.3653,-2.2352,-2.075,-1.9127,-1.7312,-1.5644,-1.3822,-1.2088,-1.1622,-1.1157,-1.0819,-0.5597,-0.2351,-0.1259,0.5104,0.8974,1.0369,1.1782,1.3115,1.4662,1.6232,1.7312,-2.0469,-2.125,-2.2148,-2.3008,-2.4141,-2.5195,-2.5723,-2.6445,-2.7148,-2.7598,-2.7695,-2.7812,-2.8223,-2.832,-2.832,-2.832,-2.8672,-2.8945,-2.8945,-2.9668,-3.0195,-3.0195,-3.0605,-3.0898,0.0,0.0,0.0,0.0,-3.0898,-3.0898,-3.0898,-3.0898,-3.0898,-3.0898,-3.0898,-3.1074,-3.1484,-3.1504,-3.1328,-3.0957,-3.0918,-3.1113,-3.1504,-3.1074,-3.1113,-3.1465,-3.1055,-3.0898,-3.0898,-3.0898,-3.0898,-3.0898,-3.0898,-3.0898,-3.1112,-3.2416,-3.2964,-3.3191,-3.4626,-3.6054,-3.724,-3.7346,-3.8348,-3.9465,-3.9465,-3.9465,-3.9594,-3.9594,-3.9672,-3.9521,-3.9019,-3.8417,-3.7839,-3.7312,-3.6759,-3.6048,-3.4775,-3.4385,-3.3871,-3.2431,-3.223,-3.2129,-3.2129,-3.253,-3.2323,-3.1,-3.0138,-2.9184,-2.7813,-2.6611,-2.5863,-2.5725,-2.4286,-2.2659,-2.085,-1.9242,-1.7474,-1.5784,-1.4101,-1.2468,-1.0994,-1.0659,-0.8858,-0.5544,-0.1478,0.2397,0.6068,1.0093,1.2149,1.2421,1.263,1.3725,-2.0019,-2.0586,-2.125,-2.2109,-2.3105,-2.4102,-2.5078,-2.5762,-2.6387,-2.7109,-2.748,-2.7715,-2.7871,-2.8105,-2.8301,-2.8301,-2.8418,-2.8516,-2.8516,-2.9023,-2.9473,0.0,0.0,0.0,0.0,0.0,0.0,0.0,0.0,-3.0898,-3.0898,-3.0898,-3.0898,-3.0898,-3.0898,-3.123,-3.1934,-3.166,-3.1855,-3.25,-3.1406,-3.125,-3.1914,-3.1484,-3.1367,-3.1504,-3.1367,-3.1289,-3.1269,-3.0996,-3.1055,-3.1269,-3.0996,-3.0898,-3.1112,-3.253,-3.3077,-3.3417,-3.5813,-3.7026,-3.769,-3.8582,-3.9258,-3.9697,-3.9697,-3.9697,-3.9697,-3.9697,-4.0262,-4.0893,-4.0685,-4.0491,-3.9987,-3.8199,-3.8175,-3.8289,-3.7099,-3.6188,-3.5259,-3.3871,-3.3674,-3.3353,-3.2431,-3.2757,-3.3101,-3.2889,-3.2032,-3.1421,-3.1291,-2.9009,-2.7554,-2.7554,-2.6106,-2.4517,-2.2783,-2.1128,-1.9357,-1.7731,-1.5913,-1.4313,-1.2633,-1.1733,-1.0657,-0.9405,-0.8099,-0.4183,0.239,0.3666,0.6172,0.9719,1.1516,1.2776,-1.959,-2.0019,-2.0566,-2.1445,-2.2305,-2.3203,-2.4199,-2.4883,-2.5547,-2.6406,-2.6816,-2.7109,-2.7402,-2.7676,-2.7949,-2.8242,-2.8301,-2.8301,0.0,0.0,0.0,0.0,0.0,0.0,0.0,0.0,0.0,0.0,0.0,0.0,-3.0898,-3.0898,-3.0957,-3.1094,-3.125,-3.1601,-3.2168,-3.2012,-3.2305,-3.2988,-3.1855,-3.1699,-3.2363,-3.1934,-3.1816,-3.1934,-3.1797,-3.1738,-3.1699,-3.1269,-3.1348,-3.1699,-3.1269,-3.1426,-3.1968,-3.3367,-3.4181,-3.4936,-3.737,-3.8243,-3.8348,-3.9362,-3.9697,-3.9697,-3.9697,-3.9981,-4.0262,-3.9775,-4.0945,-4.2181,-4.169,-4.168,-4.1251,-3.9429,-3.9496,-3.9711,-3.8917,-3.8134,-3.7217,-3.5879,-3.5593,-3.5259,-3.4158,-3.4427,-3.4839,-3.4831,-3.4352,-3.4032,-3.3802,-3.1552,-2.9925,-2.9925,-2.8015,-2.6349,-2.5269,-2.3127,-2.1379,-2.0271,-1.8185,-1.6519,-1.5424,-1.3976,-1.2959,-1.2401,-1.1969,-0.8691,-0.2418,-0.0771,0.3415,0.9757,1.1423,1.2387,0.0,0.0,0.0,-2.0977,-2.1836,-2.2598,-2.3047,-2.3789,-2.4648,-2.5527,-2.5703,-2.5977,-2.6816,-2.6992,-2.7266,-2.8125,0.0,0.0,0.0,0.0,0.0,0.0,0.0,0.0,0.0,0.0,0.0,0.0,-3.0898,-3.0898,-3.0898,-3.0898,-3.1074,-3.1504,-3.1953,-3.2168,-3.2187,-3.2598,-3.2598,-3.2207,-3.2187,-3.2383,-3.2793,-3.2383,-3.2402,-3.2773,-3.2363,-3.2187,-3.2168,-3.1719,-3.1797,-3.2148,-3.1699,-3.2431,-3.3822,-3.4957,-3.6317,-3.7713,-3.9154,-3.9697,-3.9697,-3.9697,-3.9697,-3.9697,-3.9697,-4.0642,-4.1319,-4.0185,-4.1591,-4.3313,-4.2057,-4.1775,-4.1661,-4.0996,-4.0415,-4.0,-4.0,-4.0,-3.9623,-3.8379,-3.8107,-3.7952,-3.7349,-3.7736,-3.7767,-3.6932,-3.712,-3.7026,-3.5508,-3.4069,-3.3191,-3.3077,-3.0393,-2.8527,-2.8426,-2.5513,-2.3698,-2.3698,-2.0798,-1.9137,-1.9276,-1.7895,-1.6428,-1.4856,-1.2941,-1.0703,-0.8116,-0.2768,0.3988,1.2065,1.2185,1.2238,-1.8691,0.0,0.0,0.0,0.0,0.0,-2.2519,-2.3359,-2.4121,-2.4668,-2.5039,-2.543,-2.5996,-2.6348,0.0,0.0,0.0,0.0,0.0,0.0,0.0,0.0,0.0,0.0,0.0,0.0,0.0,0.0,-3.0898,-3.0898,-3.0898,-3.0898,-3.1074,-3.1504,-3.1953,-3.2324,-3.2617,-3.2734,-3.2891,-3.3066,-3.2461,-3.2383,-3.2793,-3.2676,-3.2676,-3.2793,-3.2676,-3.2793,-3.3008,-3.2285,-3.2246,-3.2701,-3.3394,-3.39,-3.4562,-3.7175,-3.8029,-3.8263,-3.9724,-4.0023,-3.9697,-3.9697,-3.9697,-3.9878,-4.0743,-4.1319,-4.169,-4.2252,-4.3598,-4.491,-4.4931,-4.5026,-4.4558,-4.2539,-4.2591,-4.2694,-4.1423,-4.1782,-4.1782,-3.9798,-3.936,-3.9195,-3.8527,-3.8938,-3.9025,-3.844,-3.7799,-3.7346,-3.6918,-3.5617,-3.4292,-3.3191,-3.2374,-3.0858,-2.8527,-2.7572,-2.6591,-2.5375,-2.3592,-2.2107,-2.1043,-1.9634,-1.8239,-1.6865,-1.3675,-1.1749,-1.0981,-0.6645,-0.2793,0.0462,0.4619,0.6487,-1.8516,-1.8562,-1.8809,-1.9473,0.0,0.0,-2.1875,-2.2773,-2.3633,0.0,-2.4355,-2.4727,-2.5352,0.0,0.0,0.0,0.0,0.0,0.0,0.0,0.0,0.0,0.0,0.0,0.0,-2.9824,-3.0059,-3.0332,-3.0508,-3.0684,-3.0879,-3.1055,-3.1348,-3.1777,-3.2207,-3.2637,-3.3047,-3.3066,-3.3184,-3.3418,-3.293,-3.2812,-3.3066,-3.3066,-3.3066,-3.3066,-3.3066,-3.3539,-3.4322,-3.3962,-3.3902,-3.4186,-3.538,-3.6129,-3.6898,-3.8536,-3.9296,-3.9682,-4.0259,-4.03,-3.9998,-3.9772,-3.9697,-3.9981,-4.1219,-4.1985,-4.2544,-4.3313,-4.4442,-4.5602,-4.6456,-4.6531,-4.5853,-4.4167,-4.4355,-4.4368,-4.2666,-4.319,-4.3269,-4.1085,-4.0858,-4.0789,-4.014,-4.0106,-4.0166,-4.0076,-3.9088,-3.8453,-3.8453,-3.7156,-3.5945,-3.5046,-3.3845,-3.2374,-3.0509,-2.912,-2.8122,-2.7297,-2.6064,-2.4623,-2.3084,-2.2606,-2.1269,-1.9018,-1.7019,-1.558,-1.4867,-1.0886,-0.8457,-0.7497,-0.1852,0.0771,-1.8496,-1.8504,-1.8672,-1.9102,-2.0117,0.0,-2.1211,-2.2148,-2.3144,0.0,0.0,-2.3965,0.0,0.0,0.0,0.0,0.0,0.0,0.0,0.0,0.0,0.0,0.0,0.0,-2.8906,-2.9277,-2.9512,-2.957,-2.9922,-3.0351,-3.0859,-3.125,-3.166,-3.2148,-3.2578,-3.2988,-3.3418,-3.3418,-3.3418,-3.3418,-3.3418,-3.3418,-3.3418,-3.3418,-3.3418,-3.3418,-3.3544,-3.4487,-3.5806,-3.6152,-3.6295,-3.6252,-3.7377,-3.8735,-3.9855,-3.9603,-4.0318,-4.1354,-4.0877,-4.0732,-4.0635,-4.013,-4.0031,-4.0364,-4.1591,-4.2834,-4.3787,-4.3882,-4.4812,-4.6018,-4.7163,-4.7031,-4.6401,-4.5785,-4.5734,-4.5372,-4.3922,-4.4358,-4.4403,-4.2386,-4.2469,-4.2568,-4.1959,-4.1556,-4.1319,-4.1512,-4.0642,-3.9878,-3.9697,-3.8582,-3.769,-3.7477,-3.5156,-3.3395,-3.3077,-3.0509,-2.9067,-2.9368,-2.8144,-2.6761,-2.5464,-2.5817,-2.4498,-2.1162,-2.1132,-2.0318,-1.8572,-1.483,-1.3035,-1.2738,-0.7472,-0.5125,-1.8379,-1.8125,-1.8242,-1.8652,-1.9219,0.0,-2.0996,-2.1699,-2.2344,0.0,-2.3262,-2.3418,0.0,0.0,0.0,0.0,0.0,0.0,0.0,0.0,0.0,0.0,0.0,0.0,-2.8848,-2.9004,-2.9199,-2.9551,-2.9648,-3.0039,-3.0859,-3.0976,-3.1367,-3.2148,-3.2578,-3.2988,-3.3418,-3.3418,-3.3418,-3.3418,-3.3418,-3.3418,-3.3418,-3.3418,-3.3418,-3.3418,-3.4736,-3.556,-3.6051,-3.8557,-3.8912,-3.7843,-3.9406,-4.0219,-4.054,-4.1742,-4.2138,-4.1982,-4.1856,-4.1949,-4.2056,-4.1951,-4.2259,-4.3026,-4.4256,-4.484,-4.5207,-4.6255,-4.7332,-4.8232,-4.8429,-4.8419,-4.8264,-4.7851,-4.7136,-4.6315,-4.574,-4.5746,-4.5687,-4.5049,-4.4379,-4.3808,-4.3199,-4.3385,-4.3185,-4.1807,-4.1419,-4.0844,-3.9775,-3.9465,-3.8792,-3.7583,-3.7026,-3.5704,-3.3304,-3.2488,-3.1888,-3.1107,-2.9769,-2.8518,-2.7522,-2.6464,-2.5197,-2.351,-2.2141,-2.0497,-1.8572,-1.751,-1.6322,-1.4798,-1.2146,-1.095,-1.8887,-1.8496,-1.832,-1.832,-1.8809,0.0,0.0,-2.0937,-2.1738,-2.2383,-2.2676,-2.3027,-2.3672,0.0,0.0,0.0,0.0,0.0,0.0,0.0,0.0,0.0,0.0,0.0,-2.8535,-2.8613,-2.8867,-2.9531,-2.9766,-3.0176,-3.0859,-3.1289,-3.1719,-3.2148,-3.2773,-3.3203,-3.3418,-3.3418,-3.3418,-3.3418,-3.3418,-3.3418,-3.3418,-3.4258,-3.4612,-3.4736,-3.6295,-3.7484,-3.832,-3.9873,-4.0592,-4.0707,-4.1419,-4.1785,-4.1899,-4.2737,-4.2811,-4.2534,-4.2258,-4.2413,-4.2729,-4.2466,-4.2932,-4.3787,-4.5024,-4.5869,-4.6609,-4.7734,-4.846,-4.8891,-4.9456,-4.9615,-4.9489,-4.8978,-4.8541,-4.7924,-4.6941,-4.6851,-4.6818,-4.6592,-4.5974,-4.5354,-4.4929,-4.4879,-4.4562,-4.3637,-4.2447,-4.1419,-4.0743,-4.0083,-3.9465,-3.8687,-3.7902,-3.6918,-3.5376,-3.4845,-3.4061,-3.3069,-3.2811,-3.1803,-2.9733,-2.8549,-2.715,-2.5838,-2.5767,-2.4793,-2.3028,-2.2739,-2.0683,-1.7046,-1.601,-1.5582,-1.9473,-1.8965,-1.8484,0.0,0.0,-1.9199,0.0,0.0,0.0,0.0,0.0,0.0,0.0,0.0,0.0,0.0,0.0,0.0,0.0,0.0,0.0,0.0,0.0,0.0,0.0,-2.832,-2.873,-2.9512,-2.9883,-3.0312,-3.0859,-3.1621,-3.209,-3.2168,-3.2988,-3.3418,-3.3418,-3.3418,-3.3418,-3.3418,-3.365,-3.3902,-3.3902,-3.5581,-3.6295,-3.6396,-3.7963,-3.9405,-4.0592,-4.0937,-4.1785,-4.2986,-4.2986,-4.2986,-4.2986,-4.2986,-4.2986,-4.3022,-4.2764,-4.3096,-4.3535,-4.3359,-4.3697,-4.4442,-4.5479,-4.6462,-4.7538,-4.8512,-4.8973,-4.9376,-5.0397,-5.0703,-5.0585,-5.0098,-4.9818,-4.9341,-4.8102,-4.7898,-4.7836,-4.7793,-4.7532,-4.7169,-4.6645,-4.6166,-4.5689,-4.5389,-4.3693,-4.2279,-4.1985,-4.0844,-4.0083,-4.0083,-3.8767,-3.7796,-3.7559,-3.6714,-3.5681,-3.4547,-3.5084,-3.4306,-3.1733,-3.0497,-2.9325,-2.8053,-2.9341,-2.9325,-2.8068,-2.7763,-2.4698,-1.9176,-1.9176,-1.9025,-1.9727,0.0,0.0,0.0,-1.8633,0.0,0.0,0.0,-2.0879,-2.1719,0.0,0.0,0.0,0.0,0.0,0.0,0.0,0.0,0.0,0.0,0.0,0.0,0.0,0.0,0.0,-2.8418,-2.9043,-2.9531,-2.9609,-3.0,-3.084,-3.1328,-3.1758,-3.2148,-3.2988,-3.3418,-3.3418,-3.3418,-3.3418,-3.3418,-3.486,-3.556,-3.556,-3.7122,-3.7985,-3.7985,-3.9639,-4.0476,-4.0707,-4.215,-4.2849,-4.2986,-4.2986,-4.2986,-4.2986,-4.2986,-4.2986,-4.3184,-4.424,-4.4727,-4.5101,-4.6316,-4.6766,-4.6931,-4.7019,-4.7222,-4.7538,-4.8512,-4.9456,-5.0474,-5.1451,-5.1776,-5.1795,-5.1967,-5.079,-4.9719,-4.9754,-4.9304,-4.8979,-4.9384,-4.9403,-4.9022,-4.7853,-4.731,-4.6726,-4.5598,-4.5115,-4.4535,-4.3409,-4.2181,-4.1419,-4.1419,-4.0236,-3.8921,-3.7583,-3.6924,-3.607,-3.505,-3.4483,-3.3666,-3.2413,-3.1026,-3.0118,-3.0026,-3.0118,-3.0118,-3.0026,-2.9977,-2.6938,-2.1291,-2.1291,-2.0241,0.0,0.0,0.0,0.0,0.0,0.0,-1.9883,0.0,-2.0371,0.0,0.0,0.0,0.0,0.0,0.0,0.0,-2.2344,0.0,0.0,0.0,0.0,0.0,0.0,0.0,0.0,0.0,0.0,0.0,-2.9766,-3.0371,-3.0488,-3.1152,-3.1719,-3.2148,-3.2754,-3.3184,-3.3418,-3.3418,-3.3418,-3.3418,-3.5088,-3.5806,-3.5928,-3.8439,-3.9639,-3.9639,-4.1305,-4.2012,-4.2012,-4.2737,-4.2986,-4.2986,-4.2986,-4.2986,-4.3073,-4.3907,-4.4126,-4.4318,-4.5767,-4.6542,-4.6991,-4.7654,-4.7585,-4.7309,-4.7309,-4.7679,-4.8377,-4.9456,-5.0474,-5.1557,-5.2557,-5.287,-5.2872,-5.3011,-5.2102,-5.1128,-5.0815,-5.0168,-4.9805,-5.0425,-5.0123,-4.9829,-5.0134,-4.9028,-4.7789,-4.6697,-4.5869,-4.5207,-4.4627,-4.3504,-4.2447,-4.169,-4.1119,-4.0236,-3.8896,-3.9395,-3.9231,-3.7834,-3.6873,-3.5264,-3.3037,-3.3357,-3.3152,-3.2018,-3.3013,-3.3013,-3.2018,-3.2018,-3.0135,-2.6677,-2.6677,-2.6228,-2.2285,0.0,0.0,0.0,0.0,0.0,0.0,0.0,0.0,0.0,0.0,0.0,0.0,0.0,0.0,0.0,0.0,-2.1914,0.0,0.0,0.0,0.0,0.0,0.0,0.0,0.0,0.0,0.0,0.0,-3.043,-3.0215,-3.0918,-3.1543,-3.1973,-3.2519,-3.2949,-3.3242,-3.3842,-3.4007,-3.4133,-3.6173,-3.7122,-3.7243,-3.9989,-4.1305,-4.1305,-4.2488,-4.2986,-4.2986,-4.2986,-4.2986,-4.2986,-4.2986,-4.3184,-4.3713,-4.4643,-4.5048,-4.5262,-4.7094,-4.8027,-4.8471,-4.8358,-4.7992,-4.7679,-4.7679,-4.846,-4.9456,-5.055,-5.1303,-5.217,-5.3179,-5.3518,-5.3518,-5.3518,-5.2875,-5.2097,-5.1386,-5.0608,-5.0304,-5.1082,-5.0626,-5.0518,-5.1658,-5.0133,-4.8512,-4.7849,-4.6697,-4.5869,-4.5869,-4.4982,-4.3792,-4.2279,-4.208,-4.1589,-4.0253,-4.1196,-4.1363,-4.027,-3.9339,-3.7542,-3.4789,-3.5957,-3.6093,-3.4671,-3.6093,-3.6209,-3.5452,-3.5452,-3.4458,-3.2524,-3.1,-3.031,0.0,0.0,0.0,-2.1328,0.0,0.0,0.0,0.0,-2.1191,0.0,0.0,0.0,0.0,0.0,0.0,0.0,0.0,0.0,0.0,0.0,0.0,0.0,0.0,0.0,0.0,0.0,0.0,0.0,-2.9101,0.0,-3.0176,-3.0644,-3.1094,-3.1523,-3.2363,-3.2793,-3.2812,-3.4759,-3.5683,-3.5806,-3.8912,-4.0476,-4.0476,-4.215,-4.2961,-4.2961,-4.2986,-4.2986,-4.2986,-4.2986,-4.2986,-4.2986,-4.2986,-4.3797,-4.4941,-4.4941,-4.5048,-4.5342,-4.8139,-4.915,-4.9194,-4.8506,-4.8536,-4.8759,-4.8759,-4.9536,-5.055,-5.1557,-5.1849,-5.217,-5.3179,-5.3518,-5.3518,-5.3518,-5.2875,-5.2097,-5.1386,-5.0608,-5.0304,-5.1082,-5.1153,-5.1329,-5.1801,-5.0133,-4.8841,-4.8759,-4.7904,-4.7222,-4.7222,-4.6693,-4.5588,-4.3654,-4.3372,-4.2762,-4.1386,-4.125,-4.1228,-4.1107,-4.1114,-4.0256,-3.8465,-3.8465,-3.8465,-3.8465,-3.8465,-3.9387,-4.0924,-4.0924,-3.9996,-3.8179,-3.2802,-3.031,0.0,0.0,-2.3828,-2.3105,0.0,0.0,0.0,0.0,0.0,0.0,0.0,0.0,0.0,0.0,0.0,0.0,0.0,0.0,0.0,0.0,0.0,0.0,0.0,-2.4277,0.0,0.0,0.0,0.0,-2.834,0.0,-2.9336,-3.0039,-3.0644,-3.1094,-3.166,-3.209,-3.2383,-3.443,-3.5365,-3.5486,-3.8869,-4.0592,-4.0592,-4.2263,-4.2986,-4.2986,-4.2986,-4.2986,-4.2986,-4.2986,-4.3492,-4.4318,-4.4318,-4.5155,-4.637,-4.637,-4.6991,-4.8038,-4.9873,-4.9961,-4.9224,-4.9015,-4.89,-4.8841,-4.8841,-4.9977,-5.1451,-5.1776,-5.2383,-5.3041,-5.3416,-5.3518,-5.3518,-5.3518,-5.3281,-5.2739,-5.1488,-5.1014,-5.0913,-5.1183,-5.1217,-5.156,-5.2773,-5.1776,-5.0365,-4.8973,-4.8512,-4.8072,-4.7366,-4.7496,-4.7134,-4.5559,-4.5797,-4.5266,-4.3362,-4.3313,-4.3287,-4.2888,-4.2832,-4.2074,-4.0408,-4.0278,-4.0278,-4.0278,-4.0278,-4.0666,-4.1181,-4.1181,-4.0924,-4.0278,-3.834,-3.6857,-2.5039,-2.5098,0.0,-2.4238,-2.4219,0.0,-2.3711,0.0,-2.2969,0.0,0.0,0.0,0.0,0.0,0.0,0.0,0.0,0.0,0.0,-2.1387,0.0,0.0,-2.2656,-2.3457,-2.3769,-2.5078,-2.6055,-2.6367,-2.7676,-2.8535,0.0,0.0,-3.0176,-3.0625,-3.1662,-3.2434,-3.2734,-3.5243,-3.6516,-3.6516,-3.9703,-4.1153,-4.1266,-4.2413,-4.2986,-4.2986,-4.2986,-4.2986,-4.2986,-4.2986,-4.3797,-4.5048,-4.5048,-4.6188,-4.7808,-4.7808,-4.8738,-4.9969,-5.0917,-5.0757,-5.0152,-4.991,-5.0027,-5.0216,-4.9994,-5.108,-5.252,-5.2786,-5.314,-5.3551,-5.3822,-5.3687,-5.3518,-5.3518,-5.3518,-5.3078,-5.1555,-5.1217,-5.1285,-5.1555,-5.1386,-5.1792,-5.3585,-5.3341,-5.2218,-5.0165,-4.9515,-4.8872,-4.7934,-4.8531,-4.8296,-4.6582,-4.7384,-4.7292,-4.5236,-4.5659,-4.5565,-4.4695,-4.462,-4.3855,-4.2201,-4.2074,-4.2074,-4.2074,-4.2074,-4.2328,-4.2981,-4.2981,-4.2706,-4.2074,-4.2706,-4.2074]}]]